[[{"header":{"parameterUnit":"m.s-1","parameterCategory":1,"la1":30.6,"la2":29.2853,"lo1":-89.7004,"lo2":-87.6739,"dy":0.0162,"dx":0.0183,"nx":112,"ny":82,"refTime":"2023-07-19T06:00:00:Z","depth":0,"parameterNumber":2,"parameterNumberName":"U-component_of_WINDS"},"data":[0.0,0.0,0.0,0.0,0.0,0.0,0.0,0.0,0.0,0.0,0.0,0.0,0.0,0.0,0.0,0.0,0.0,0.0,0.0,0.0,0.0,0.0,0.0,0.0,0.0,0.0,0.0,0.0,0.0,0.0,0.0,0.0,0.0,0.0,0.0,0.0,0.0,0.0,0.0,0.0,0.0,0.0,0.0,0.0,0.0,0.0,0.0,0.0,0.0,0.0,0.0,0.0,0.0,0.0,0.0,0.0,0.0,0.0,0.0,0.0,0.0,0.0,0.0,0.0,0.0,0.0,0.0,0.0,0.0,0.0,0.0,0.0,0.0,0.0,0.0,0.0,0.0,0.0,0.0,0.0,0.0,0.0,0.0,0.0,0.0,0.0,0.0,0.0,0.0,0.0,-2.7282,-2.7523,-2.8768,-2.9554,-2.9489,-2.9554,-2.8943,-2.7413,0.0,0.0,0.0,0.0,0.0,0.0,0.0,0.0,0.0,0.0,0.0,0.0,0.0,0.0,0.0,0.0,0.0,0.0,0.0,0.0,0.0,0.0,0.0,0.0,0.0,0.0,0.0,0.0,0.0,0.0,0.0,0.0,0.0,0.0,0.0,0.0,0.0,0.0,0.0,0.0,0.0,0.0,0.0,0.0,0.0,0.0,0.0,0.0,0.0,0.0,0.0,0.0,0.0,0.0,0.0,0.0,0.0,0.0,0.0,0.0,0.0,0.0,0.0,0.0,0.0,0.0,0.0,0.0,0.0,0.0,0.0,0.0,0.0,0.0,0.0,0.0,0.0,0.0,0.0,0.0,0.0,0.0,0.0,0.0,0.0,0.0,0.0,0.0,0.0,0.0,0.0,0.0,0.0,0.0,0.0,0.0,0.0,0.0,0.0,0.0,0.0,0.0,0.0,0.0,-2.7195,-2.8442,-2.9467,-2.9925,-2.951,-2.986,-2.9292,-2.7435,0.0,0.0,0.0,0.0,0.0,0.0,0.0,0.0,0.0,0.0,0.0,0.0,0.0,0.0,0.0,0.0,0.0,0.0,0.0,0.0,0.0,0.0,0.0,0.0,0.0,0.0,0.0,0.0,0.0,0.0,0.0,0.0,0.0,0.0,0.0,0.0,0.0,0.0,0.0,0.0,0.0,0.0,0.0,0.0,0.0,0.0,0.0,0.0,0.0,0.0,0.0,0.0,0.0,0.0,0.0,0.0,0.0,0.0,0.0,0.0,0.0,0.0,0.0,0.0,0.0,0.0,0.0,0.0,0.0,0.0,0.0,0.0,0.0,0.0,0.0,0.0,0.0,0.0,0.0,0.0,0.0,0.0,0.0,0.0,0.0,0.0,0.0,0.0,0.0,0.0,0.0,0.0,0.0,0.0,0.0,0.0,0.0,0.0,0.0,0.0,0.0,0.0,0.0,-2.6867,-2.7654,-2.9358,-2.9947,-3.0122,-2.9904,-3.0078,-2.9379,-2.7435,-2.7304,0.0,0.0,0.0,0.0,0.0,0.0,0.0,0.0,0.0,0.0,0.0,0.0,0.0,0.0,0.0,0.0,0.0,0.0,0.0,0.0,0.0,0.0,0.0,0.0,0.0,0.0,0.0,0.0,0.0,0.0,0.0,0.0,0.0,0.0,0.0,0.0,0.0,0.0,0.0,0.0,0.0,0.0,0.0,0.0,0.0,0.0,0.0,0.0,0.0,0.0,0.0,0.0,0.0,0.0,0.0,0.0,0.0,0.0,0.0,0.0,0.0,0.0,0.0,0.0,0.0,0.0,0.0,0.0,0.0,0.0,0.0,0.0,0.0,0.0,0.0,0.0,0.0,0.0,0.0,0.0,0.0,0.0,0.0,0.0,0.0,0.0,0.0,0.0,0.0,0.0,0.0,0.0,0.0,0.0,0.0,0.0,0.0,0.0,0.0,0.0,0.0,0.0,-2.7304,-2.8047,-3.0013,-3.01,-3.0078,-3.0209,-3.01,-2.9248,-2.7435,-2.7304,0.0,0.0,0.0,0.0,0.0,0.0,0.0,0.0,0.0,0.0,0.0,0.0,0.0,0.0,0.0,0.0,0.0,0.0,0.0,0.0,0.0,0.0,0.0,0.0,0.0,0.0,0.0,0.0,0.0,0.0,0.0,0.0,0.0,0.0,0.0,0.0,0.0,0.0,0.0,0.0,0.0,0.0,0.0,0.0,0.0,0.0,0.0,0.0,0.0,0.0,0.0,0.0,0.0,0.0,0.0,0.0,0.0,0.0,0.0,0.0,0.0,0.0,0.0,0.0,0.0,0.0,0.0,0.0,0.0,0.0,0.0,0.0,0.0,0.0,0.0,0.0,0.0,0.0,0.0,0.0,0.0,0.0,0.0,0.0,0.0,0.0,0.0,0.0,0.0,0.0,0.0,0.0,0.0,0.0,0.0,0.0,0.0,0.0,0.0,0.0,0.0,0.0,-2.7304,-2.8047,-3.0013,-2.9816,-2.9707,-3.0166,-2.9794,-2.8899,-2.7413,-2.7304,0.0,0.0,0.0,0.0,0.0,0.0,0.0,0.0,0.0,0.0,0.0,0.0,0.0,0.0,0.0,0.0,0.0,0.0,0.0,0.0,0.0,0.0,0.0,0.0,0.0,0.0,0.0,0.0,0.0,0.0,0.0,0.0,0.0,0.0,0.0,0.0,0.0,0.0,0.0,0.0,0.0,0.0,0.0,0.0,0.0,0.0,0.0,0.0,0.0,0.0,0.0,0.0,0.0,0.0,0.0,0.0,0.0,0.0,0.0,0.0,0.0,0.0,0.0,0.0,0.0,0.0,0.0,0.0,0.0,0.0,0.0,0.0,0.0,0.0,0.0,0.0,0.0,0.0,0.0,0.0,0.0,0.0,0.0,0.0,0.0,0.0,0.0,0.0,0.0,0.0,0.0,0.0,0.0,0.0,0.0,0.0,0.0,0.0,0.0,0.0,0.0,0.0,-2.7304,-2.8047,0.0,-2.9773,-2.9685,-3.0166,-2.9773,-2.8855,-2.7413,0.0,0.0,0.0,0.0,0.0,0.0,0.0,0.0,0.0,0.0,0.0,0.0,0.0,0.0,0.0,0.0,0.0,0.0,0.0,0.0,0.0,0.0,0.0,0.0,0.0,0.0,0.0,0.0,0.0,0.0,0.0,0.0,0.0,0.0,0.0,0.0,0.0,0.0,0.0,0.0,0.0,0.0,0.0,0.0,0.0,0.0,0.0,0.0,0.0,0.0,0.0,0.0,0.0,0.0,0.0,0.0,0.0,0.0,0.0,0.0,0.0,0.0,0.0,0.0,0.0,0.0,0.0,0.0,0.0,0.0,0.0,0.0,0.0,0.0,0.0,0.0,0.0,0.0,0.0,0.0,0.0,0.0,0.0,0.0,0.0,0.0,0.0,0.0,0.0,0.0,0.0,0.0,0.0,0.0,0.0,0.0,0.0,0.0,0.0,0.0,0.0,0.0,-2.7195,-2.7304,-2.8003,0.0,-2.9554,-2.9445,-2.9947,-2.9532,-2.8702,-2.7392,0.0,0.0,0.0,0.0,0.0,0.0,0.0,0.0,0.0,0.0,0.0,0.0,0.0,0.0,0.0,0.0,0.0,0.0,0.0,0.0,0.0,0.0,0.0,0.0,0.0,0.0,0.0,0.0,0.0,0.0,0.0,0.0,0.0,0.0,0.0,0.0,0.0,0.0,0.0,0.0,0.0,0.0,0.0,0.0,0.0,0.0,0.0,0.0,0.0,0.0,0.0,0.0,0.0,0.0,0.0,0.0,0.0,0.0,0.0,0.0,0.0,0.0,0.0,0.0,0.0,0.0,0.0,0.0,0.0,0.0,0.0,0.0,0.0,0.0,0.0,0.0,0.0,0.0,0.0,0.0,0.0,0.0,0.0,0.0,0.0,0.0,0.0,0.0,0.0,0.0,0.0,0.0,0.0,0.0,0.0,0.0,0.0,0.0,0.0,0.0,0.0,0.0,-2.7195,-2.7326,-2.7872,-2.9336,-2.9099,-2.8989,-2.9445,-2.9077,-2.8399,0.0,0.0,0.0,0.0,0.0,0.0,0.0,0.0,0.0,0.0,0.0,0.0,0.0,0.0,0.0,0.0,0.0,0.0,0.0,0.0,0.0,0.0,0.0,0.0,0.0,0.0,0.0,0.0,0.0,0.0,0.0,0.0,0.0,0.0,0.0,0.0,0.0,0.0,0.0,0.0,0.0,0.0,0.0,0.0,0.0,0.0,0.0,0.0,0.0,0.0,0.0,0.0,0.0,0.0,0.0,0.0,0.0,0.0,0.0,0.0,0.0,0.0,0.0,0.0,0.0,0.0,0.0,0.0,0.0,0.0,0.0,0.0,0.0,0.0,0.0,0.0,0.0,0.0,0.0,0.0,0.0,0.0,0.0,0.0,0.0,0.0,0.0,0.0,0.0,0.0,0.0,0.0,0.0,0.0,0.0,0.0,0.0,0.0,0.0,0.0,0.0,0.0,0.0,-2.7239,-2.761,-2.8244,-2.9358,-2.9099,-2.8989,-2.9445,-2.9077,-2.8484,-2.7827,0.0,0.0,0.0,0.0,0.0,0.0,0.0,0.0,0.0,0.0,0.0,0.0,0.0,0.0,0.0,0.0,0.0,0.0,0.0,0.0,0.0,0.0,0.0,0.0,0.0,0.0,0.0,0.0,0.0,0.0,0.0,0.0,0.0,0.0,0.0,0.0,0.0,0.0,0.0,0.0,0.0,0.0,0.0,0.0,0.0,0.0,0.0,0.0,0.0,0.0,0.0,0.0,0.0,0.0,0.0,0.0,0.0,0.0,0.0,0.0,0.0,0.0,0.0,0.0,0.0,0.0,0.0,0.0,0.0,0.0,0.0,0.0,0.0,0.0,0.0,0.0,0.0,0.0,0.0,0.0,0.0,0.0,0.0,0.0,0.0,0.0,0.0,0.0,0.0,0.0,0.0,0.0,0.0,0.0,0.0,0.0,0.0,0.0,0.0,0.0,0.0,0.0,-2.6951,-2.769,-2.8451,-2.9258,-2.9354,-2.9379,-2.9467,-2.9132,-2.8675,-2.8045,0.0,0.0,0.0,0.0,0.0,0.0,0.0,0.0,0.0,0.0,0.0,0.0,0.0,0.0,0.0,0.0,0.0,0.0,0.0,0.0,0.0,0.0,0.0,0.0,0.0,0.0,0.0,0.0,0.0,0.0,0.0,0.0,0.0,0.0,0.0,0.0,0.0,0.0,0.0,0.0,0.0,0.0,0.0,0.0,0.0,0.0,0.0,0.0,0.0,0.0,0.0,0.0,0.0,0.0,0.0,0.0,0.0,0.0,0.0,0.0,0.0,0.0,0.0,0.0,0.0,0.0,0.0,0.0,0.0,0.0,0.0,0.0,0.0,0.0,0.0,0.0,0.0,0.0,0.0,0.0,0.0,0.0,0.0,0.0,0.0,0.0,0.0,0.0,0.0,0.0,0.0,0.0,0.0,0.0,0.0,0.0,0.0,0.0,0.0,0.0,0.0,0.0,-2.6679,-2.7761,-2.8653,-2.9128,-2.9802,-3.0035,-2.9598,-2.9271,-2.8787,-2.813,0.0,0.0,0.0,0.0,0.0,0.0,0.0,0.0,0.0,0.0,0.0,0.0,0.0,0.0,0.0,0.0,0.0,0.0,0.0,0.0,0.0,0.0,0.0,0.0,0.0,0.0,0.0,0.0,0.0,0.0,0.0,0.0,0.0,0.0,0.0,0.0,0.0,0.0,0.0,0.0,0.0,0.0,0.0,0.0,0.0,0.0,0.0,0.0,0.0,0.0,0.0,0.0,0.0,0.0,0.0,0.0,0.0,0.0,0.0,0.0,-2.4501,0.0,0.0,0.0,0.0,0.0,0.0,0.0,0.0,0.0,0.0,0.0,0.0,0.0,0.0,0.0,0.0,0.0,0.0,0.0,0.0,0.0,0.0,0.0,0.0,0.0,0.0,0.0,0.0,0.0,0.0,0.0,0.0,0.0,0.0,0.0,0.0,0.0,0.0,0.0,0.0,0.0,-2.7568,-2.8421,-2.9149,-2.9575,-2.997,-3.0068,-2.9786,-2.9343,-2.902,-2.8873,-2.8139,0.0,0.0,0.0,0.0,0.0,0.0,0.0,0.0,0.0,0.0,0.0,0.0,0.0,0.0,0.0,0.0,0.0,0.0,0.0,0.0,0.0,0.0,0.0,0.0,0.0,0.0,0.0,0.0,0.0,0.0,0.0,0.0,0.0,0.0,0.0,0.0,0.0,0.0,0.0,0.0,0.0,0.0,0.0,0.0,0.0,0.0,0.0,0.0,0.0,0.0,0.0,0.0,0.0,0.0,0.0,0.0,0.0,0.0,0.0,0.0,-2.4822,0.0,0.0,0.0,0.0,0.0,0.0,0.0,0.0,0.0,0.0,0.0,0.0,0.0,0.0,0.0,0.0,0.0,0.0,0.0,0.0,0.0,0.0,0.0,0.0,0.0,0.0,0.0,0.0,0.0,0.0,0.0,0.0,0.0,0.0,0.0,0.0,0.0,0.0,0.0,0.0,-2.7558,-2.847,-2.9232,-2.97,-3.0206,-3.0371,-2.9985,-2.9579,-2.9287,-2.9101,-2.8537,0.0,0.0,0.0,0.0,0.0,0.0,0.0,0.0,0.0,0.0,0.0,0.0,0.0,0.0,0.0,0.0,0.0,0.0,0.0,0.0,0.0,0.0,0.0,0.0,0.0,0.0,0.0,0.0,0.0,0.0,0.0,0.0,0.0,0.0,0.0,0.0,0.0,0.0,0.0,0.0,0.0,0.0,0.0,0.0,0.0,0.0,0.0,0.0,0.0,0.0,0.0,0.0,0.0,-2.4683,-2.4646,-2.4511,-2.4511,-2.4398,-2.4178,-2.4897,-2.5124,-2.5142,-2.5498,0.0,0.0,0.0,0.0,0.0,0.0,0.0,0.0,0.0,0.0,0.0,0.0,0.0,0.0,0.0,0.0,0.0,0.0,0.0,0.0,0.0,0.0,0.0,0.0,-2.9053,-2.9026,0.0,0.0,0.0,0.0,0.0,0.0,0.0,0.0,0.0,0.0,0.0,0.0,-2.7475,-2.846,-2.93,-2.9761,-3.0439,-3.0627,-3.0172,-2.9842,-2.9542,-2.9107,-2.8812,-2.8631,0.0,0.0,0.0,0.0,0.0,0.0,0.0,0.0,0.0,0.0,0.0,0.0,0.0,0.0,0.0,0.0,0.0,0.0,0.0,0.0,0.0,0.0,0.0,0.0,0.0,0.0,0.0,0.0,0.0,0.0,0.0,0.0,-1.9762,-1.9762,0.0,0.0,0.0,0.0,0.0,0.0,0.0,0.0,0.0,0.0,0.0,0.0,0.0,-2.3624,-2.3993,-2.4658,-2.5048,-2.5225,-2.5486,-2.5677,-2.5742,-2.5742,-2.5622,-2.5379,-2.5714,0.0,-2.4717,-2.4985,0.0,0.0,0.0,0.0,0.0,0.0,0.0,0.0,0.0,0.0,0.0,0.0,0.0,0.0,0.0,0.0,0.0,0.0,0.0,0.0,0.0,0.0,-2.9077,-2.8669,-2.8977,-2.9183,0.0,-2.856,-2.8736,-2.8684,-2.814,0.0,0.0,0.0,0.0,0.0,0.0,0.0,-2.8317,-2.9128,-2.9782,-3.0244,-3.0578,-3.0703,-3.0411,-2.9929,-2.9518,-2.9034,-2.8614,-2.8269,-2.8113,-2.7793,0.0,0.0,0.0,0.0,0.0,0.0,0.0,0.0,0.0,0.0,0.0,0.0,0.0,0.0,0.0,0.0,0.0,0.0,0.0,0.0,0.0,0.0,0.0,0.0,0.0,0.0,0.0,0.0,0.0,-1.9923,-1.9959,-2.0157,-2.0221,-2.0268,0.0,0.0,0.0,0.0,0.0,0.0,0.0,0.0,0.0,-2.2941,-2.3553,-2.4105,-2.4405,-2.5093,-2.555,-2.5847,-2.6143,-2.6453,-2.6681,-2.6681,-2.6617,-2.6488,-2.66,-2.6437,-2.5986,-2.5268,-2.4901,-2.474,0.0,0.0,0.0,0.0,-2.5727,-2.6169,-2.6723,-2.6838,0.0,-2.7262,0.0,0.0,0.0,0.0,0.0,0.0,0.0,0.0,0.0,0.0,-2.9215,-2.9167,-2.9735,-3.0203,-2.9957,-3.013,-3.0067,0.0,-2.8512,-2.8255,-2.8048,0.0,0.0,0.0,0.0,-2.8255,-2.8918,-2.9496,-3.0078,-3.0537,-3.0705,-3.0705,-3.0579,-3.0162,-2.9754,-2.9417,-2.8935,-2.8621,-2.8423,-2.7862,-2.7489,0.0,0.0,0.0,0.0,0.0,0.0,0.0,0.0,0.0,0.0,0.0,0.0,0.0,0.0,0.0,0.0,0.0,0.0,0.0,0.0,0.0,0.0,0.0,0.0,0.0,0.0,0.0,0.0,-1.9984,-2.0181,-2.0492,-2.0622,-2.0688,0.0,0.0,0.0,0.0,0.0,0.0,-2.2339,-2.2863,-2.3435,-2.3996,-2.4499,-2.4958,-2.5246,-2.5866,-2.6342,-2.6741,-2.7042,-2.7391,-2.7741,-2.7645,-2.7598,-2.7598,-2.7502,-2.7423,-2.72,-2.5759,-2.5076,-2.49,-2.4421,-2.4368,-2.4629,-2.4979,-2.5311,-2.5657,-2.6448,-2.6548,-2.6412,-2.6721,0.0,-2.6406,-2.6462,0.0,0.0,0.0,0.0,-2.8568,-2.868,-2.9003,-2.9367,-2.9614,-3.0296,-3.0888,-3.0903,-3.1154,-3.0967,0.0,-2.9125,-2.8959,-2.8959,0.0,0.0,0.0,0.0,-2.9145,-2.9601,-3.0056,-3.047,-3.0822,-3.0864,-3.0822,-3.0698,-3.0367,-3.0037,-2.9608,-2.9149,-2.8767,-2.8528,-2.7872,-2.7547,-2.7547,0.0,0.0,0.0,0.0,0.0,0.0,0.0,0.0,0.0,0.0,0.0,0.0,0.0,0.0,0.0,0.0,0.0,0.0,0.0,0.0,0.0,0.0,0.0,0.0,0.0,0.0,0.0,0.0,0.0,-2.0371,-2.0721,0.0,0.0,0.0,0.0,-2.19,-2.2513,-2.307,-2.3393,-2.442,-2.5151,-2.5454,-2.6184,-2.6708,-2.7073,-2.7439,-2.7788,-2.8122,-2.8487,-2.8853,-2.9186,-2.8837,-2.8694,-2.8662,-2.8329,-2.7995,-2.7546,-2.6259,-2.6057,-2.642,-2.5813,-2.5668,-2.5779,-2.5559,-2.5661,-2.5915,-2.5948,-2.5965,-2.5898,-2.5853,-2.6065,-2.6359,-2.6664,-2.7371,0.0,0.0,-2.9211,-2.9414,-2.9453,-2.9695,-2.9881,-2.9679,-3.0254,-3.088,-3.0901,-3.1141,-3.136,0.0,-3.0532,-2.9932,-2.9932,0.0,-2.8773,-2.9208,-2.9642,-3.0098,-3.0553,-3.1029,-3.1319,-3.134,-3.134,-3.1153,-3.0719,-3.0677,-3.0263,-2.9373,-2.8876,-2.84,-2.7945,-2.7537,-2.7309,-2.7309,-2.7289,0.0,0.0,0.0,0.0,0.0,0.0,0.0,0.0,0.0,0.0,0.0,0.0,0.0,0.0,0.0,0.0,0.0,0.0,0.0,0.0,0.0,0.0,0.0,0.0,0.0,0.0,0.0,0.0,-2.1671,-2.2053,0.0,-2.2259,-2.2538,-2.3038,-2.361,-2.4086,-2.4706,-2.5516,-2.6136,-2.6708,-2.728,-2.7772,-2.8186,-2.8551,-2.89,-2.9139,-2.9266,-2.96,-2.9838,-2.9949,-2.9822,-2.9758,-2.9758,-2.9631,-2.9504,-2.9329,-2.8418,-2.7629,-2.6936,-2.6263,-2.605,-2.6064,-2.5945,-2.5925,-2.6081,-2.6496,-2.6516,-2.6343,-2.6333,-2.6702,-2.7271,-2.7724,-2.8418,-2.9119,-2.9757,-2.9988,-3.018,-3.0661,-3.0738,-3.0779,-3.1442,-3.1732,-3.194,-3.2129,-3.221,-3.225,-3.225,-3.1505,-3.0884,-3.0884,-3.0615,-3.045,-3.0615,-3.0781,-3.0946,-3.1112,-3.1526,-3.1816,-3.1816,-3.1816,-3.1733,-3.1567,-3.1029,-3.0553,-3.0222,-2.9187,-2.8545,-2.838,-2.7655,-2.7309,-2.7309,-2.7309,-2.7226,0.0,0.0,0.0,0.0,0.0,0.0,0.0,0.0,0.0,0.0,0.0,0.0,0.0,0.0,0.0,0.0,0.0,0.0,0.0,0.0,0.0,0.0,0.0,0.0,0.0,0.0,-2.2275,-2.3101,-2.361,-2.3943,-2.4055,-2.4277,-2.4706,-2.5405,-2.5802,-2.6406,-2.7328,-2.7836,-2.8297,-2.8742,-2.9107,-2.9409,-2.9631,-2.987,-3.006,-3.0172,-3.0394,-3.0632,-3.0855,-3.0728,-3.068,-3.0664,-3.0553,-3.0426,-3.0283,-2.9822,-2.9028,-2.7995,-2.7057,-2.6676,-2.671,-2.6681,-2.6713,-2.6922,-2.7487,-2.7371,-2.6996,-2.7252,-2.7668,-2.8191,-2.8767,-2.93,-2.986,-3.0517,-3.0696,-3.0834,-3.1406,-3.1485,-3.1623,-3.2495,-3.2734,-3.2891,-3.3205,-3.3214,-3.3182,-3.3182,-3.2333,-3.1609,-3.1609,-3.1485,-3.1422,-3.1567,-3.1609,-3.165,-3.1816,-3.2085,-3.2215,-3.2215,-3.2215,-3.2153,-3.1988,-3.136,-3.0843,-3.0698,-2.9373,-2.8607,-2.8607,-2.7738,-2.7309,-2.7309,-2.7309,-2.7309,-2.7309,0.0,0.0,0.0,0.0,0.0,0.0,0.0,0.0,0.0,0.0,0.0,0.0,0.0,0.0,0.0,0.0,0.0,0.0,0.0,0.0,0.0,0.0,0.0,-2.1507,-2.2379,-2.3483,-2.4515,-2.5278,-2.5834,-2.6232,-2.628,-2.6582,-2.7216,-2.7598,-2.809,-2.8773,-2.9472,-2.9854,-2.9854,-3.0172,-3.0362,-3.0362,-3.0362,-3.0553,-3.0994,-3.0994,-3.1268,-3.1919,-3.1586,-3.1427,-3.1411,-3.1045,-3.0696,-3.0362,-3.0346,-3.014,-2.9727,-2.8329,-2.7772,-2.7757,-2.7757,-2.8012,-2.837,-2.8726,-2.8401,-2.7921,-2.8661,-2.8912,-2.91,-2.9725,-3.016,-3.0488,-3.1186,-3.137,-3.1432,-3.1757,-3.2063,-3.2368,-3.2632,-3.3155,-3.3755,-3.4033,-3.4132,-3.4132,-3.4132,-3.2996,-3.205,-3.2029,-3.1733,-3.1588,-3.1946,-3.2008,0.0,-3.2607,-3.2669,-3.2669,-3.2669,-3.2669,-3.2483,-3.205,-3.165,-3.1195,-3.0739,-2.9415,-2.8628,-2.8628,-2.7779,-2.7351,-2.7351,-2.7351,-2.7351,-2.7351,0.0,0.0,0.0,0.0,0.0,0.0,0.0,0.0,0.0,0.0,0.0,0.0,0.0,0.0,0.0,0.0,0.0,0.0,0.0,0.0,0.0,0.0,-2.3657,-2.2997,-2.4027,-2.5214,-2.6009,-2.6724,-2.72,-2.728,-2.7757,-2.8233,-2.8694,-2.9043,-2.9441,-2.987,-3.033,-3.0585,-3.0585,-3.0918,-3.122,-3.1474,-3.1474,-3.1649,-3.1983,-3.1983,-3.2094,-3.2269,-3.2173,-3.2126,-3.211,-3.1776,-3.157,-3.1443,-3.0918,-3.0664,-3.0458,-2.9314,-2.871,-2.8456,-2.8186,-2.8503,-2.9187,-2.98,-3.0235,-3.0676,-3.1384,-3.1975,-3.2497,-3.3192,-3.3663,-3.4004,-3.4389,-3.4325,-3.4241,-3.4588,-3.4585,-3.4521,-3.4707,-3.4696,-3.4534,-3.457,-3.436,-3.4132,-3.4132,-3.3762,-3.341,-3.3058,-3.2913,-3.2768,-3.2504,-3.2483,0.0,-3.2649,-3.2669,-3.2669,-3.2669,-3.2669,-3.2628,-3.2483,-3.1816,-3.1319,-3.1195,-2.9891,-2.9125,-2.9125,-2.8545,-2.8235,-2.8235,-2.8235,-2.8235,0.0,0.0,0.0,0.0,0.0,0.0,0.0,0.0,0.0,0.0,0.0,0.0,0.0,0.0,0.0,0.0,0.0,0.0,0.0,0.0,0.0,0.0,-2.4404,-2.558,-2.5914,-2.6279,-2.6835,-2.7677,-2.8265,-2.8662,-2.8805,-2.9186,-2.9568,-2.9933,-3.014,-3.041,-3.0743,-3.0966,-3.1157,-3.13,-3.1506,-3.1776,-3.2126,-3.2126,-3.2221,-3.2412,-3.2412,-3.2491,-3.2634,-3.2634,-3.2634,-3.2618,-3.2269,-3.2046,-3.1872,-3.1315,-3.115,0.0,0.0,0.0,0.0,0.0,-2.9682,-3.024,-3.1454,-3.2111,-3.2655,-3.3501,-3.4049,-3.4444,-3.5034,-3.5361,-3.5576,-3.5771,-3.5641,-3.5556,-3.5715,-3.5755,-3.5775,-3.5855,-3.5618,-3.5396,-3.5376,-3.4962,-3.4631,-3.4631,-3.4631,0.0,-3.4031,-3.3637,-3.3285,-3.3037,-3.2851,-3.2669,-3.2669,-3.2669,-3.2669,-3.2669,-3.2669,-3.2669,-3.2669,-3.1899,0.0,0.0,0.0,-2.9208,-2.9021,-2.8752,0.0,0.0,0.0,-2.8607,-2.8607,0.0,0.0,0.0,-2.7821,-2.7821,0.0,0.0,0.0,0.0,0.0,0.0,0.0,0.0,0.0,0.0,0.0,0.0,0.0,0.0,0.0,0.0,-2.6104,-2.7614,-2.9298,-2.8773,-2.8519,-2.9377,-2.979,-3.0108,-3.0346,-3.041,-3.0585,-3.095,-3.0982,-3.1141,-3.149,0.0,0.0,0.0,0.0,-3.2142,-3.2475,-3.2475,-3.2491,-3.2523,-3.2523,-3.2698,-3.3096,-3.3096,-3.3096,-3.3,-3.2587,-3.2253,-3.2029,-3.1631,-3.1586,-3.17,-3.0846,-3.0329,-3.0082,-3.0964,-3.123,-3.1513,-3.3298,0.0,0.0,-3.5192,-3.5585,-3.5651,-3.5977,-3.6042,-3.6042,-3.6042,-3.6042,-3.6042,-3.6042,-3.6302,-3.6476,-3.6374,-3.6303,-3.6163,-3.6059,-3.5707,-3.5418,-3.5418,-3.5418,-3.5293,-3.49,-3.4113,-3.3513,-3.3472,-3.312,-3.2892,-3.2892,-3.283,-3.2809,-3.2809,0.0,0.0,-3.2669,-3.194,-3.1422,-3.1381,-3.0118,-2.9187,-2.8794,-2.8773,-2.8773,-2.8773,-2.8773,-2.8773,-2.8773,-2.8773,-2.8773,-2.8773,-2.8669,-2.8607,0.0,0.0,0.0,0.0,0.0,0.0,0.0,0.0,0.0,0.0,0.0,0.0,0.0,0.0,0.0,-2.6899,-2.8297,-2.9631,-3.0823,-3.1061,-3.0966,-3.0601,-3.0871,-3.0998,-3.0775,-3.1014,-3.1331,-3.1697,-3.1713,-3.1856,-3.2205,-3.2221,-3.2253,-3.2316,-3.2316,-3.2491,-3.2841,-3.2857,-3.3,-3.3286,0.0,0.0,-3.3381,-3.3381,-3.3381,-3.3349,-3.2698,-3.2539,-3.2759,-3.2114,-3.2479,-3.3255,-3.2224,-3.1593,-3.1387,-3.2468,-3.2826,-3.3029,-3.4546,-3.5258,-3.5762,-3.6817,-3.7171,-3.7238,-3.7637,-3.7723,0.0,-3.7723,-3.7723,-3.7723,-3.7723,-3.779,-3.767,-3.6841,-3.6678,-3.6473,-3.5707,-3.548,-3.5418,-3.5418,-3.5418,-3.5397,-3.5314,-3.4838,-3.4422,-3.3989,-3.3865,-3.3803,-3.3803,-3.3472,-3.3244,-3.3244,-3.2934,-3.2669,-3.2669,-3.223,-3.1754,-3.1402,-3.0429,-2.9829,-2.9725,-2.9725,-2.9725,-2.9725,-2.9725,-2.9725,-2.9725,-2.9725,-2.9725,-2.9704,-2.8959,-2.8607,0.0,0.0,0.0,0.0,0.0,0.0,0.0,0.0,0.0,0.0,0.0,-2.3864,0.0,0.0,-2.7391,-2.8789,-2.9917,-3.0982,-3.203,-3.2332,-3.2237,-3.1697,-3.1649,-3.1586,-3.1411,-3.1395,-3.1538,-3.1887,-3.1919,-3.2062,-3.2396,-3.2412,-3.2491,-3.2682,-3.2682,-3.2857,-3.3222,-3.3222,-3.3301,-3.3492,-3.3492,-3.3492,-3.3492,-3.3492,-3.3544,-3.3515,-3.297,-3.2949,-3.338,-3.3432,-3.4087,-3.5011,-3.4859,-3.3903,-3.2798,-3.3536,-3.3918,-3.4245,-3.548,-3.6316,-3.6897,-3.7636,-3.7904,-3.7971,-3.8125,-3.8191,-3.8191,-3.8191,-3.8191,-3.8191,-3.8191,-3.8191,-3.8005,-3.7322,-3.697,-3.6618,-3.5914,-3.5583,-3.5418,-3.5418,-3.5418,-3.5418,-3.5418,-3.5231,-3.4941,-3.4546,-3.4277,-3.4132,-3.4132,-3.3924,-3.3637,-3.341,-3.3182,-3.2975,-3.269,-3.2256,-3.1754,-3.1071,-3.0594,-3.0243,-3.0015,-2.9994,-2.9994,-2.9994,-2.9994,-2.9994,-2.9994,-2.9994,-2.9994,-2.9973,-2.9518,-2.9311,0.0,0.0,0.0,0.0,0.0,0.0,0.0,0.0,-2.3642,-2.4464,-2.5119,-2.5961,-2.7073,-2.8074,-2.9171,-3.0505,-3.1268,-3.2015,-3.2936,-3.308,-3.2841,-3.2555,-3.2221,-3.1983,-3.1919,-3.1601,-3.1538,-3.1887,-3.1983,-3.2158,-3.2491,-3.2587,-3.2745,-3.3128,-3.3144,-3.319,-3.3476,-3.3492,-3.3492,-3.3492,-3.3492,-3.3526,-3.3544,-3.3544,-3.358,-3.3611,-3.3569,-3.3831,-3.4231,-3.5264,-3.6108,-3.683,-3.7658,-3.6689,-3.4917,-3.503,-3.5092,-3.5344,-3.6384,-3.7059,-3.7683,-3.8037,-3.8191,-3.8191,-3.8191,-3.8191,-3.8191,-3.8191,-3.8191,-3.8191,-3.8191,-3.8191,-3.8067,-3.7612,-3.7136,-3.6701,-3.6328,-3.5873,-3.5583,-3.5666,-3.5687,-3.5666,-3.5562,-3.5562,-3.5397,-3.4962,-3.4569,-3.4341,-3.4341,-3.4258,-3.409,-3.3613,-3.343,-3.3203,-3.2711,-3.2256,-3.1733,-3.0988,-3.0864,-3.0615,-3.0139,-3.0139,-3.0098,-2.9994,-2.9994,-2.9994,-2.9994,-2.9994,-2.9994,-2.9994,-2.9994,-2.9994,-2.0052,-2.0035,-2.0512,-2.1581,-2.2323,-2.3006,0.0,0.0,-2.5167,-2.6168,-2.6946,-2.7852,-2.9218,-3.0076,-3.0918,-3.1999,-3.2507,-3.2936,-3.3365,-3.3158,-3.2936,-3.2904,-3.2571,-3.2237,-3.1951,-3.1601,-3.1538,-3.1887,-3.2189,-3.2507,-3.2873,-3.319,-3.3381,-3.3429,-3.3429,-3.3444,-3.3492,-3.3492,-3.3492,-3.3492,-3.3492,-3.3562,-3.3565,-3.3565,-3.3578,-3.3706,-3.5155,-3.5851,-3.5996,-3.7511,-3.837,-3.8879,-3.9694,-3.9506,-3.8783,-3.7788,-3.6956,-3.6451,-3.7213,-3.7549,-3.7683,-3.8037,-3.8191,-3.8191,-3.8191,-3.8191,-3.8191,-3.8191,-3.8191,-3.8191,-3.8191,-3.8191,-3.8067,-3.7612,-3.7136,-3.6784,-3.6742,-3.637,-3.6163,-3.6577,-3.6639,-3.6515,-3.6101,-3.6039,-3.5873,-3.5418,-3.5314,-3.5273,-3.5273,-3.4921,-3.4567,-3.4051,-3.3617,-3.3203,-3.2711,-3.2256,-3.1946,-3.1843,-3.1526,-3.1091,-3.0636,-3.0615,-3.0408,-2.9994,-2.9994,-2.9994,-2.9994,-2.9994,-2.9994,-2.9994,-2.9994,-2.9994,-2.0052,-2.0416,0.0,0.0,-2.326,-2.442,-2.5165,-2.6295,-2.7486,-2.8329,-2.9059,-2.9854,-3.0855,-3.1443,-3.1967,0.0,-3.3031,-3.3238,-3.319,-3.2873,-3.2571,-3.238,-3.1856,-3.1617,-3.1887,-3.1601,-3.1538,-3.1887,-3.2046,-3.2269,-3.2618,-3.2777,-3.2952,-3.3174,-3.3174,-3.327,-3.3492,-3.3286,-3.3337,-3.358,-3.3291,-3.3355,-3.3687,-3.3925,-3.4558,-3.5504,-3.6867,-3.7792,-3.8278,-3.9169,-3.9748,-4.0023,-4.0398,-4.0188,-3.9621,-3.8999,-3.8371,-3.7796,-3.815,-3.835,-3.8549,-3.8769,-3.8769,-3.8769,-3.8769,-3.8769,-3.8769,-3.8769,-3.8769,-3.8769,-3.8769,-3.8769,-3.8642,-3.818,-3.7907,-3.7696,-3.7508,-3.7297,-3.7213,-3.7403,-3.7445,-3.7234,-3.652,-3.6373,-3.6144,-3.55,-3.5418,-3.5418,-3.5418,-3.5252,-3.4859,-3.4194,-3.343,-3.2934,-3.2747,-3.2504,-3.2277,-3.2008,-3.1857,-3.1567,-3.1112,-3.0822,-3.0594,-3.0408,-3.0139,-2.9994,-2.9994,-2.9994,-2.9994,-2.9994,-2.9994,-2.9994,-2.0482,0.0,0.0,-2.3133,-2.4611,-2.6072,-2.6962,-2.8154,-2.9282,-3.0092,-3.0585,-3.1045,-3.1665,-3.1967,-3.2253,-3.2602,-3.2888,-3.3,-3.2825,-3.2412,-3.1999,-3.1665,-3.0998,-3.0775,-3.1284,-3.1284,-3.1347,-3.1601,-3.1808,-3.203,-3.2269,-3.2364,-3.2571,-3.3017,-3.3018,-3.3145,-3.3497,-3.3307,-3.3371,-3.3611,-3.343,-3.3566,-3.4094,-3.4908,-3.5986,-3.7409,-3.895,-3.9827,-4.0197,-4.0698,-4.1009,-4.1228,-4.1368,-4.1002,-4.0348,-4.0193,-3.9593,-3.8814,-3.8814,-3.9012,-3.921,-3.921,-3.9231,-3.9165,-3.9231,-3.921,-3.9188,-3.921,-3.921,-3.921,-3.921,-3.921,-3.9125,-3.8784,-3.8593,-3.8444,-3.8317,-3.8167,-3.8125,-3.8253,-3.8274,-3.7997,-3.7276,-3.696,-3.652,-3.5811,-3.5562,-3.5418,-3.5418,-3.5314,-3.4941,-3.4155,-3.3368,-3.2851,-3.269,-3.2669,-3.2525,-3.2194,-3.2173,-3.2023,-3.1567,-3.1236,-3.0946,-3.0698,-3.0367,-3.0118,-2.9994,-2.9994,-2.9994,-2.9994,-2.9994,-2.9994,0.0,0.0,-2.3758,-2.5137,-2.6532,-2.8011,-2.9393,-2.9758,-3.0092,-3.1125,-3.1093,-3.0966,-3.1331,-3.1411,-3.1538,-3.1887,-3.1967,-3.2078,-3.238,-3.184,-3.1284,-3.0934,-3.0283,-2.987,0.0,-3.0489,-3.0886,-3.0886,-3.1538,-3.1919,-3.1935,-3.2237,-3.2571,-3.3017,-3.3033,-3.3177,-3.3597,-3.367,-3.3648,-3.3727,-3.4104,-3.445,-3.4905,-3.6738,-3.8097,-3.9136,-4.1367,-4.1918,-4.1381,-4.2208,-4.2559,-4.2559,-4.3001,-4.2551,-4.1677,-4.161,-4.0621,-3.9144,-3.9144,-3.921,-3.921,-3.921,-3.9186,-3.9229,-3.9165,-3.9167,-3.9212,-3.9188,-3.921,-3.921,-3.921,-3.921,-3.921,-3.9188,-3.8848,-3.8635,-3.9082,-3.8805,-3.8635,-3.9082,-3.9167,-3.9018,-3.855,-3.7783,-3.7149,-3.6604,-3.5894,-3.5418,-3.5418,-3.5045,-3.465,-3.4173,-3.3637,-3.3182,-3.2711,-3.2669,-3.2669,-3.2649,-3.2649,-3.2442,-3.1988,-3.1946,-3.1588,-3.0698,-3.0677,-3.045,-2.9994,-2.9994,-2.9994,-2.9994,-2.9994,-2.9994,0.0,0.0,-2.5153,-2.639,-2.7915,-2.9298,-2.9997,-3.0696,-3.1188,-3.1061,-3.095,-3.0759,-3.041,-3.0346,-3.0458,-3.0807,-3.1061,-3.1252,-3.1363,-3.0982,-3.0473,-2.9886,-2.9409,0.0,0.0,0.0,0.0,-3.0839,-3.13,-3.157,-3.157,-3.1681,-3.2044,-3.2647,-3.2927,-3.3355,-3.4034,-3.406,-3.4341,-3.4942,-3.5807,-3.6644,-3.7313,-3.8793,-3.989,-4.0678,-4.1643,-4.2247,-4.2559,-4.2167,-4.217,-4.2388,-4.1915,-4.1524,-4.1197,-4.0869,-4.041,-3.9953,-3.9953,-3.9953,-3.9953,-3.9953,-3.9953,-3.9909,-3.9953,-3.9931,-3.991,-3.9931,-3.9953,-3.9953,-3.9953,-3.9953,-3.9953,-3.9953,-3.9823,-3.9736,-3.991,-3.9823,-3.9758,-3.991,-3.9953,-3.9736,-3.9002,-3.838,-3.7613,-3.6599,-3.5831,-3.5418,-3.5418,-3.5045,-3.4754,-3.4608,-3.3903,-3.3327,-3.3161,-3.2892,-3.2669,-3.2669,-3.2669,-3.2607,-3.2442,-3.2153,-3.1843,-3.1588,-3.0988,-3.0615,-3.045,-3.0139,-2.9994,-2.9994,-2.9994,-2.9994,0.0,-2.5326,-2.701,-2.8058,-2.9361,-3.0473,-3.0807,-3.1125,-3.1188,-3.075,-3.0313,-2.9753,-2.9119,-2.8975,-2.9087,-2.9297,-2.9856,-3.0351,-3.0458,-3.0283,-2.9933,-2.9361,-2.898,0.0,0.0,0.0,0.0,-3.0648,-3.1261,-3.1609,-3.1609,-3.1763,-3.2155,-3.29,-3.3326,-3.4043,-3.496,-3.5117,-3.5664,-3.6549,-3.7478,-3.8443,-3.9385,-4.0412,-4.1197,-4.1813,-4.2016,-4.2518,-4.3097,-4.2092,-4.1983,-4.2333,-4.1546,-4.1153,-4.0956,-4.0651,-4.0432,-4.0279,-4.0279,-4.0279,-4.0279,-4.0279,-4.0279,-4.0279,-4.0279,-4.0279,-4.0279,-4.0279,-4.0279,-4.0279,-4.0279,-4.0279,-4.0279,-4.0279,-4.0279,-4.0279,-4.0279,-4.0279,-4.0279,-4.0279,-4.0279,-4.0127,-3.9628,-3.8829,-3.7928,-3.6846,-3.6139,-3.5726,-3.5603,-3.5231,-3.4941,-3.4837,-3.4132,-3.3555,-3.3389,-3.2975,-3.2669,-3.2669,-3.2669,-3.2669,-3.2669,-3.238,-3.2153,-3.1988,-3.1319,-3.0843,-3.0677,-3.0222,-2.9994,-2.9994,-2.9994,-2.9994,-2.5343,-2.7296,-2.9091,-3.0124,-3.0886,-3.1474,-3.1776,-3.1014,-3.0198,-3.0163,-2.904,-2.7927,0.0,0.0,-2.7442,-2.7488,-2.8458,-2.9341,-2.972,-2.9774,-2.9679,0.0,0.0,0.0,0.0,0.0,0.0,-3.0389,0.0,-3.2069,-3.2069,-3.2452,-3.2983,-3.3718,-3.4219,-3.5091,-3.6204,-3.6738,-3.7566,-3.8661,-3.9024,-3.9838,-4.1025,-4.1735,-4.2278,-4.2586,-4.2457,-4.266,-4.3032,-4.2027,-4.1918,-4.2333,-4.1808,-4.1371,-4.1,-4.0978,-4.0672,-4.0279,-4.0279,-4.0279,-4.0279,-4.0279,-4.0279,-4.0279,-4.0279,-4.0279,-4.0279,-4.0279,-4.0279,-4.0279,-4.0279,-4.0279,-4.0279,-4.0279,-4.0279,-4.0279,-4.0279,-4.0279,-4.0279,-4.0279,-4.0279,-4.0279,-4.0236,-3.9215,-3.812,-3.7292,-3.6721,-3.6321,-3.5993,-3.5665,-3.5313,-3.4899,-3.4422,-3.3945,-3.3509,-3.2996,-3.2727,-3.2727,-3.2727,-3.2669,-3.2669,-3.2727,-3.252,-3.2085,-3.1629,-3.1249,-3.0772,-3.0263,-3.0015,-2.9994,-2.9994,-2.9994,-2.7518,-2.8916,-3.0108,-3.0918,-3.1252,-3.136,-3.1216,-3.0283,-2.926,-2.8454,-2.7344,-2.6294,0.0,0.0,0.0,-2.6297,-2.7101,0.0,-2.8852,-2.9518,0.0,0.0,0.0,-3.0435,-3.0533,-3.1022,0.0,0.0,-3.2113,-3.2452,-3.2452,-3.2816,-3.3399,-3.4167,-3.5474,-3.6516,-3.7442,-3.872,-3.9694,-4.0289,-4.0933,-4.1573,-4.2138,-4.2673,-4.2757,-4.2435,-4.2024,-4.1961,-4.2005,-4.1022,-4.1131,-4.1786,-4.0956,-4.0782,-4.0956,-4.0607,-4.0388,-4.0279,-4.0279,-4.0279,-4.0279,-4.0279,-4.0279,-4.0279,-4.0279,-4.0279,-4.0279,-4.0279,-4.0279,-4.0279,-4.0279,-4.0279,-4.0279,-4.0279,-4.0279,-4.0279,-4.0279,-4.0279,-4.0279,-4.0279,-4.0279,-4.017,-3.9863,-3.9473,-3.8951,-3.7978,-3.7493,-3.7053,-3.6343,-3.6178,-3.6135,-3.6009,-3.5269,-3.4719,-3.4593,-3.3644,-3.3069,-3.3069,-3.2841,-3.2669,-3.2669,-3.2955,-3.3027,-3.2901,-3.2441,-3.1981,-3.15,-3.0847,-3.0325,-2.9994,-2.9994,-2.9994,-2.9012,-3.0108,-3.1042,-3.1898,-3.1738,-3.1237,-3.0811,-2.9525,-2.8193,-2.7057,-2.6083,0.0,0.0,0.0,0.0,0.0,0.0,0.0,-2.8617,-2.953,-3.0206,0.0,-3.0914,0.0,-3.1449,-3.2016,-3.2598,0.0,-3.3305,-3.3424,-3.3424,-3.4238,-3.5064,-3.5662,-3.7051,-3.8297,-3.9405,-4.0484,-4.1218,-4.1643,-4.2089,-4.2441,-4.2861,-4.3093,-4.29,-4.2398,0.0,-4.1699,-4.1612,-4.0672,-4.0716,-4.1306,-4.0563,-4.0454,-4.0651,-4.0388,-4.0279,-4.0279,-4.0279,-4.0279,-4.0279,-4.0279,-4.0279,-4.0279,-4.0279,-4.0279,-4.0279,-4.0279,-4.0279,-4.0279,-4.0279,-4.0279,-4.0279,-4.0279,-4.0279,-4.0279,-4.0279,-4.0279,-4.0279,-4.0279,-4.0279,-4.0192,-3.9972,-3.9754,-3.936,-3.8532,-3.804,-3.7551,-3.6893,-3.6606,-3.6423,-3.6423,-3.5763,-3.5231,-3.5019,-3.4164,-3.3621,-3.3374,-3.3182,-3.3069,-3.3069,-3.3296,-3.3353,-3.3353,-3.2889,-3.2424,-3.1939,-3.1228,-3.0641,-3.0203,-3.0047,-2.9994,-3.0319,-3.1165,-3.1898,-3.2773,-3.2155,-3.1095,-3.0354,-2.8708,-2.7005,-2.5889,0.0,-2.4336,-2.3668,0.0,-2.5,-2.4817,0.0,-2.7674,-2.8511,-2.9652,-3.0529,-3.0993,-3.1569,-3.2043,-3.2276,-3.3042,-3.3834,-3.4521,-3.4764,-3.4839,-3.4764,-3.6238,-3.7272,-3.7951,-3.8971,-4.0197,-4.1594,-4.2018,-4.23,-4.2651,-4.2651,-4.2861,-4.3184,-4.3184,-4.2857,-4.2289,-4.1874,0.0,-4.1437,-4.0607,-4.052,-4.0869,-4.0454,-4.0279,-4.0279,-4.0279,-4.0279,-4.0279,-4.0279,-4.0279,-4.0279,-4.0279,-4.0279,-4.0279,-4.0279,-4.0279,-4.0279,-4.0279,-4.0279,-4.0279,-4.0279,-4.0279,-4.0279,-4.0279,-4.0279,-4.0279,-4.0279,-4.0279,-4.0279,-4.0279,-4.0279,-4.0279,-4.0279,-3.9994,-3.9471,-3.8925,-3.8466,-3.8008,-3.7461,-3.6911,-3.6545,-3.6545,-3.6118,-3.5648,-3.5157,-3.4688,-3.4161,-3.3713,-3.3636,-3.3636,-3.3636,-3.3636,-3.3692,-3.3692,-3.3287,-3.2797,-3.2264,-3.1592,-3.0969,-3.0443,-3.0203,-3.0099,-3.2485,-3.2949,-3.3244,-3.3142,-3.2057,-3.0667,-2.9293,-2.7433,0.0,0.0,0.0,-2.3419,-2.2944,-2.3668,0.0,-2.4585,0.0,0.0,0.0,0.0,-3.0333,0.0,0.0,0.0,0.0,0.0,0.0,0.0,0.0,-3.7125,-3.683,-3.7712,-3.8951,-4.0678,-4.1197,-4.1947,-4.2883,-4.2953,-4.3023,-4.3093,-4.3093,-4.3093,-4.3184,-4.3184,-4.2682,-4.1808,-4.1721,0.0,-4.052,-4.0345,-4.0323,-4.0388,-4.0301,-4.0279,-4.0279,-4.0279,-4.0279,-4.0279,-4.0279,-4.0279,-4.0279,-4.0279,-4.0279,-4.0279,-4.0279,-4.0279,-4.0279,-4.0279,-4.0279,-4.0279,-4.0279,-4.0279,-4.0279,-4.0279,-4.0279,-4.0279,-4.0279,-4.0279,-4.0279,-4.0279,-4.0279,-4.0279,-4.0279,-4.0214,-3.9842,-3.8969,-3.8709,-3.8379,-3.7483,-3.7314,-3.7253,-3.7253,-3.678,-3.6323,-3.5881,-3.515,-3.4504,-3.4052,-3.3749,-3.3636,-3.3636,-3.3861,-3.403,-3.403,-3.3944,-3.3471,-3.2588,-3.2179,-3.1551,-3.0724,-3.0672,-3.0568,-3.2852,-3.3149,-3.3033,-3.2899,-3.1716,-3.022,-2.866,0.0,0.0,0.0,0.0,-2.3082,-2.2739,0.0,0.0,0.0,0.0,0.0,0.0,0.0,0.0,0.0,0.0,0.0,0.0,0.0,0.0,0.0,0.0,-3.8681,-3.8224,-3.9405,-4.0627,-4.1997,-4.2208,-4.2581,-4.3184,-4.3184,-4.3184,-4.3184,-4.3184,-4.3184,-4.3163,-4.29,-4.2376,-4.1699,-4.1699,0.0,-4.0301,-4.0541,-4.052,-4.0279,-4.0279,-4.0279,-4.0279,-4.0279,-4.0279,-4.0279,-4.0279,-4.0279,-4.0279,-4.0279,-4.0279,-4.0279,-4.0279,-4.0279,-4.0279,-4.0279,-4.0279,-4.0279,-4.0279,-4.0279,-4.0279,-4.0279,-4.0279,-4.0279,-4.0279,-4.0279,-4.0279,-4.0279,-4.0279,-4.0279,-4.0279,-4.0279,-4.0039,-3.9318,-3.8991,-3.8575,-3.7855,-3.7527,-3.7374,-3.7374,-3.6959,-3.65,-3.6056,-3.5381,-3.4788,-3.4332,-3.4142,-3.4086,-3.4086,-3.4199,-3.4311,-3.4311,-3.4311,-3.3963,-3.3302,-3.2717,-3.2062,-3.1377,-3.0986,-3.0724,-3.2935,-3.3162,-3.2995,-3.2865,-3.1591,-2.9909,-2.8226,-2.6303,0.0,0.0,-2.3103,-2.2985,-2.2792,0.0,0.0,0.0,0.0,0.0,0.0,0.0,0.0,0.0,0.0,0.0,0.0,0.0,0.0,0.0,0.0,0.0,-3.991,-4.1075,-4.2089,-4.2721,-4.2721,-4.2883,-4.3184,-4.3184,-4.3184,-4.3184,-4.3184,-4.3119,-4.2988,-4.2595,-4.2092,-4.1546,-4.1546,0.0,0.0,-4.0694,-4.0629,-4.0279,-4.0279,-4.0279,-4.0279,-4.0279,-4.0279,-4.0279,-4.0279,-4.0279,-4.0279,-4.0279,-4.0279,-4.0279,-4.0279,-4.0279,-4.0279,-4.0279,-4.0279,-4.0279,-4.0279,-4.0279,-4.0279,-4.0279,-4.0279,-4.0279,-4.0279,-4.0279,-4.0279,-4.0279,-4.0279,-4.0279,-4.0279,-4.0279,-4.0083,-3.9557,-3.9078,-3.8557,-3.8029,-3.7614,-3.7374,-3.7374,-3.7046,-3.661,-3.6078,-3.5605,-3.5124,-3.4556,-3.4534,-3.4534,-3.4534,-3.4534,-3.4534,-3.4534,-3.4534,-3.4294,-3.3792,-3.3204,-3.2598,-3.2014,-3.1408,-3.1038,-3.3596,-3.401,-3.4183,-3.3795,-3.1963,-2.9824,-2.7882,0.0,0.0,0.0,-2.2749,-2.2921,-2.2873,-2.3642,0.0,0.0,0.0,0.0,0.0,0.0,0.0,0.0,0.0,0.0,0.0,0.0,0.0,0.0,0.0,0.0,-4.2278,-4.2743,-4.3045,-4.3163,-4.3163,-4.3184,-4.3184,-4.3184,-4.3184,-4.3184,-4.3184,-4.2944,-4.2485,-4.2442,-4.1918,-4.1066,-4.1066,0.0,0.0,-4.0323,-4.0323,-4.0279,-4.0279,-4.0279,-4.0279,-4.0279,-4.0279,-4.0279,-4.0279,-4.0279,-4.0279,-4.0279,-4.0279,-4.0279,-4.0279,-4.0279,-4.0279,-4.0279,-4.0279,-4.0279,-4.0279,-4.0279,-4.0279,-4.0279,-4.0279,-4.0279,-4.0279,-4.0279,-4.0279,-4.0279,-4.0279,-4.0279,-4.0279,-4.0279,-3.9973,-3.9034,-3.8797,-3.8488,-3.7571,-3.7396,-3.7374,-3.7374,-3.733,-3.6937,-3.61,-3.5932,-3.5496,-3.4578,-3.4534,-3.4534,-3.4534,-3.4534,-3.4534,-3.4534,-3.4534,-3.4294,-3.3792,-3.3748,-3.3268,-3.232,-3.2276,-3.1858,-3.2702,-3.3409,-3.3445,-3.2596,-3.1119,-2.927,-2.7057,0.0,0.0,-2.259,-2.2636,-2.2913,-2.2913,-2.3803,-2.4554,0.0,0.0,0.0,0.0,0.0,0.0,0.0,0.0,0.0,0.0,0.0,0.0,0.0,0.0,0.0,-4.2953,-4.3093,-4.3184,-4.3184,-4.3184,-4.3184,-4.3184,-4.3184,-4.3184,-4.3184,-4.3184,-4.3075,-4.2857,-4.2245,-4.1765,-4.1393,-4.1131,0.0,0.0,-4.0585,-4.0541,-4.0279,-4.0279,-4.0279,-4.0279,-4.0279,-4.0279,-4.0279,-4.0279,-4.0279,-4.0279,-4.0279,-4.0083,-3.9951,-4.0192,-4.0279,-4.0279,-4.0279,-4.0279,-4.0279,-4.0279,-4.0279,-4.0279,-4.0279,-4.0279,-4.0279,-4.0279,-4.0279,-4.0279,-4.0279,-4.0279,-4.0279,-4.0279,-4.0104,-3.9711,-3.9318,-3.8772,-3.8248,-3.7876,-3.7549,-3.7374,-3.7374,-3.7134,-3.6806,-3.6435,-3.5867,-3.5343,-3.4971,-3.4666,-3.4534,-3.4534,-3.4534,-3.4534,-3.4534,-3.4534,-3.4425,-3.4229,-3.3945,-3.3595,-3.3224,-3.294,-3.2494,-3.1225,-3.2144,-3.2301,-3.1479,-3.0275,-2.8667,0.0,0.0,0.0,-2.2602,-2.2693,-2.295,-2.3059,-2.3914,-2.4624,0.0,0.0,0.0,0.0,0.0,0.0,0.0,0.0,0.0,0.0,0.0,0.0,0.0,0.0,0.0,0.0,-4.3184,-4.3184,-4.3184,-4.3184,-4.3184,-4.3184,-4.3184,-4.3184,-4.3184,-4.3184,-4.3032,-4.2704,-4.2005,-4.1546,-4.1262,-4.0935,0.0,0.0,-4.0651,-4.0585,-4.0279,-4.0279,-4.0279,-4.0279,-4.0279,-4.0279,-4.0279,-4.0279,-4.0279,-4.0257,-4.0105,-3.9885,-3.9644,-3.9799,-3.9952,-4.0061,-4.0061,-4.017,-4.0279,-4.0279,-4.0279,-4.0279,-4.0279,-4.0279,-4.0279,-4.0279,-4.0279,-4.0279,-4.0279,-4.0279,-4.0236,-4.0147,-3.9841,-3.9513,-3.9229,-3.8532,-3.8051,-3.7898,-3.7593,-3.7374,-3.7374,-3.709,-3.685,-3.6697,-3.6042,-3.5517,-3.5233,-3.4906,-3.4666,-3.4534,-3.4534,-3.4534,-3.4534,-3.4534,-3.4534,-3.4534,-3.4185,-3.3945,-3.3792,-3.3442,-3.3027,-2.9292,-3.0265,-3.0827,-3.0809,-2.9599,-2.7985,0.0,0.0,0.0,-2.2986,-2.2895,-2.3023,-2.3407,-2.4073,-2.448,-2.448,-2.5729,0.0,0.0,0.0,0.0,0.0,0.0,0.0,0.0,0.0,0.0,0.0,0.0,0.0,0.0,-4.3184,-4.3184,-4.3184,-4.3184,-4.3184,-4.3184,-4.3184,-4.3184,-4.3184,-4.3184,-4.266,-4.1699,-4.1699,-4.1175,0.0,0.0,0.0,0.0,-4.0279,-4.0279,-4.0279,-4.0279,-4.0279,-4.0279,-4.0279,-4.0279,-4.0279,-4.0279,-4.0279,-4.0192,-3.9776,-3.9622,-3.9535,-3.8991,-3.9187,-3.9622,-3.9622,-3.9972,-4.0279,-4.0279,-4.0279,-4.0279,-4.0279,-4.0279,-4.0279,-4.0279,-4.0279,-4.0279,-4.0279,-4.0279,-4.0126,-3.971,-3.9622,-3.9294,-3.827,-3.8117,-3.7942,-3.7461,-3.7374,-3.7374,-3.7374,-3.7374,-3.7178,-3.6741,-3.6697,-3.626,-3.5277,-3.5212,-3.4993,-3.4534,-3.4534,-3.4534,-3.4534,-3.4534,-3.4534,-3.4534,-3.4513,-3.4272,-3.3792,-3.3792,-3.353,-2.798,-2.8769,-2.9085,-2.8792,-2.793,-2.6738,-2.5157,0.0,-2.2986,-2.2565,-2.2833,-2.3288,-2.3714,-2.4638,-2.5314,-2.5314,-2.6418,0.0,0.0,0.0,0.0,0.0,0.0,0.0,0.0,0.0,0.0,0.0,0.0,0.0,0.0,-4.3184,-4.3184,-4.3184,-4.3184,-4.3184,-4.3184,-4.3184,-4.3184,-4.3184,-4.2835,-4.2485,-4.2158,-4.1524,-4.1066,0.0,0.0,0.0,0.0,-4.0279,-4.0279,-4.0279,-4.0279,-4.0279,-4.0279,-4.0279,-4.0126,-3.9841,-3.9841,-3.9558,-3.9274,-3.91,-3.8838,-3.8532,-3.8379,-3.8685,-3.9122,-3.9513,-3.9972,-4.0279,-4.0279,-4.0279,-4.0279,-4.0279,-4.0279,-4.0279,-4.0279,-4.0279,-4.0279,-4.0279,-4.0279,-4.0126,-3.9688,-3.9274,-3.8838,-3.8204,-3.7833,-3.7549,-3.7396,-3.7374,-3.7374,-3.7374,-3.7374,-3.7309,-3.7178,-3.6872,-3.6413,-3.5758,-3.5408,-3.4993,-3.4534,-3.4534,-3.4534,-3.4534,-3.4534,-3.4534,-3.4534,-3.4534,-3.4447,-3.4294,-3.3945,-3.3704,0.0,-2.6774,-2.6958,-2.6701,-2.6205,0.0,0.0,0.0,-2.2648,-2.2465,-2.2973,-2.3617,-2.4078,-2.517,-2.5994,-2.5994,-2.696,0.0,0.0,0.0,0.0,0.0,0.0,0.0,0.0,0.0,0.0,0.0,0.0,0.0,0.0,-4.2988,-4.29,-4.29,-4.29,-4.2791,-4.2617,-4.2617,-4.2617,-4.2617,-4.2289,-4.2049,-4.1874,-4.1284,-4.0913,0.0,0.0,0.0,0.0,-4.0083,-4.006,-4.006,-3.9799,-3.9733,-3.9733,-3.9733,-3.9537,-3.9274,-3.9274,-3.9078,-3.8731,-3.8557,-3.8226,-3.7833,-3.7833,-3.8182,-3.8707,-3.9425,-3.9841,-4.0104,-4.0236,-4.0279,-4.0279,-4.0279,-4.0279,-4.0279,-4.0279,-4.0279,-4.0279,-4.0279,-4.0279,-4.0061,-3.9384,-3.9034,-3.8619,-3.7942,-3.7571,-3.7374,-3.7374,-3.7374,-3.7374,-3.7374,-3.7374,-3.7374,-3.7374,-3.7112,-3.6741,-3.626,-3.5758,-3.5277,-3.4797,-3.4622,-3.4534,-3.4534,-3.4534,-3.4534,-3.4534,-3.4534,-3.4534,-3.4513,-3.4207,-3.4076,0.0,0.0,0.0,0.0,0.0,0.0,0.0,0.0,0.0,-2.2657,-2.325,-2.3945,-2.4649,-2.5745,-2.6592,-2.6592,0.0,0.0,0.0,0.0,0.0,0.0,0.0,0.0,0.0,0.0,0.0,0.0,0.0,0.0,0.0,-4.2617,-4.2354,-4.2311,-4.2311,-4.2114,-4.1699,-4.1699,-4.1699,-4.1699,-4.1655,-4.1415,-4.1,-4.0935,-4.0672,0.0,0.0,0.0,0.0,-3.9797,-3.9601,-3.9513,-3.9012,-3.8775,-3.8775,-3.8775,-3.8753,-3.8709,-3.8709,-3.8709,-3.8663,-3.8204,-3.7745,-3.7374,-3.7374,-3.7724,-3.8292,-3.925,-3.9557,-3.971,-4.0169,-4.0257,-4.0279,-4.0279,-4.0257,-4.0236,-4.0279,-4.0257,-4.0236,-4.0279,-4.0257,-3.993,-3.8991,-3.8753,-3.8466,-3.7527,-3.7374,-3.7374,-3.7374,-3.7374,-3.7374,-3.7374,-3.7374,-3.7374,-3.7374,-3.7374,-3.7178,-3.6719,-3.6238,-3.5736,-3.5233,-3.4775,-3.4534,-3.4534,-3.4534,-3.4534,-3.4534,-3.4534,-3.4534,-3.4534,-3.4534,-3.4534,-2.2226,0.0,-2.3334,-2.3334,0.0,0.0,0.0,0.0,0.0,0.0,0.0,0.0,0.0,0.0,0.0,0.0,0.0,0.0,0.0,0.0,0.0,0.0,0.0,0.0,0.0,0.0,0.0,0.0,0.0,0.0,0.0,-4.1918,-4.1699,-4.135,-4.1328,-4.1459,-4.1699,-4.1967,-4.1967,-4.1677,-4.1438,-4.122,-4.0978,-4.0236,-4.0039,0.0,0.0,0.0,-3.9776,-3.9666,-3.934,-3.8991,-3.8881,-3.8775,-3.8775,-3.8775,-3.8597,-3.827,-3.827,-3.8029,-3.7702,-3.7593,-3.7461,-3.7374,-3.7374,-3.7724,-3.816,-3.8379,-3.8991,-3.9644,-3.9754,-3.9995,-4.0279,-4.0279,-4.006,-3.9885,-4.0192,-4.006,-3.9907,-4.0214,-4.0038,-3.9537,-3.8947,-3.8532,-3.8073,-3.7461,-3.7374,-3.7374,-3.7374,-3.7374,-3.7374,-3.7374,-3.7374,-3.7374,-3.7374,-3.7374,-3.7178,-3.6719,-3.6238,-3.5736,-3.5233,-3.4775,-3.4534,-3.4534,-3.4534,-3.4534,-3.4534,-3.4534,-3.4534,-3.4534,-3.4534,-3.4534,-2.1731,-2.2016,-2.2346,-2.2346,-2.2437,-2.2474,0.0,0.0,0.0,0.0,0.0,0.0,0.0,0.0,0.0,0.0,0.0,0.0,0.0,0.0,0.0,0.0,0.0,0.0,0.0,0.0,0.0,0.0,0.0,0.0,-4.1699,-4.1503,-4.1262,-4.1022,-4.0563,-4.0563,-4.1044,-4.1242,-4.1242,-4.1044,-4.0651,-4.0432,-4.0301,-3.9558,-3.9362,0.0,0.0,0.0,-3.9209,-3.8991,-3.8728,-3.8488,-3.8248,-3.816,-3.816,-3.816,-3.8008,-3.7767,-3.7767,-3.7593,-3.7374,-3.7374,-3.7374,-3.7374,-3.7374,-3.7571,-3.7811,-3.8051,-3.8488,-3.8947,-3.9165,-3.9427,-3.9624,-3.9624,-3.9406,-3.9296,-3.9558,-3.9406,-3.9296,-3.9558,-3.9406,-3.9078,-3.8597,-3.827,-3.7942,-3.7461,-3.7374,-3.7374,-3.7374,-3.7374,-3.7374,-3.7374,-3.7374,-3.7374,-3.7374,-3.7374,-3.7265,-3.7025,-3.6566,-3.6063,-3.5583,-3.5102,-3.4731,-3.4479,-3.4534,-3.4534,-3.4534,-3.4534,-3.4534,-3.4534,-3.4534,-3.4534,-2.182,-2.182,-2.1865,-2.1776,-2.1954,-2.215,0.0,0.0,0.0,0.0,0.0,0.0,0.0,0.0,0.0,0.0,0.0,0.0,0.0,0.0,0.0,0.0,0.0,0.0,0.0,0.0,0.0,0.0,0.0,0.0,-4.1481,-4.1044,-4.0782,-4.0782,-3.9908,-3.9646,-4.0061,-4.0147,-4.0147,-4.0061,-3.9624,-3.9427,-3.9491,-3.8947,-3.8709,-3.8838,0.0,0.0,-3.8685,-3.827,-3.8051,-3.7964,-3.7549,-3.7374,-3.7374,-3.7374,-3.7374,-3.7374,-3.7374,-3.7374,-3.7374,-3.7374,-3.7374,-3.7374,-3.7374,-3.7374,-3.7461,-3.7876,-3.8051,-3.8204,-3.8619,-3.8709,-3.8775,-3.8775,-3.8772,-3.8688,-3.8753,-3.8709,-3.8688,-3.8753,-3.8709,-3.8597,-3.8182,-3.8051,-3.7855,-3.744,-3.7374,-3.7374,-3.7374,-3.7374,-3.7374,-3.7374,-3.7374,-3.7374,-3.7374,-3.7374,-3.7374,-3.7374,-3.6937,-3.6435,-3.5867,-3.5364,-3.4928,-3.4534,-3.4534,-3.4534,-3.4534,-3.4534,-3.4534,-3.4534,-3.4534,-3.4534,-2.2087,-2.2309,-2.253,-2.2132,-2.2176,-2.2353,-2.2353,0.0,0.0,0.0,0.0,0.0,0.0,0.0,0.0,0.0,0.0,0.0,0.0,0.0,0.0,0.0,0.0,0.0,0.0,0.0,0.0,0.0,0.0,0.0,-4.0498,-4.0104,-3.9841,-3.9841,-3.9231,-3.8991,-3.9056,-3.9333,-3.9333,-3.9056,-3.8714,-3.8692,-3.8925,-3.8444,-3.8444,-3.8753,0.0,-3.8226,-3.8204,-3.8139,-3.7855,-3.7483,-3.7396,-3.7374,-3.7374,-3.7374,-3.7374,-3.7374,-3.7374,-3.7374,-3.7374,-3.7374,-3.7374,-3.7374,-3.7374,-3.7374,-3.7396,-3.7461,-3.7789,-3.8117,-3.8204,-3.8532,-3.8775,-3.8775,-3.851,-3.8335,-3.8688,-3.851,-3.8335,-3.8688,-3.851,-3.8182,-3.8117,-3.7767,-3.7461,-3.7396,-3.7374,-3.7374,-3.7374,-3.7374,-3.7374,-3.7374,-3.7374,-3.7374,-3.7374,-3.7374,-3.7374,-3.7374,-3.6937,-3.6282,-3.5364,-3.4884,-3.46,-3.4534,-3.4534,-3.4534,-3.4534,-3.4534,-3.4534,-3.4534,-3.4534,-3.4534,-2.253,-2.2882,-2.3276,-2.3057,-2.3257,-2.3521,-2.3521,0.0,0.0,0.0,0.0,0.0,0.0,0.0,0.0,0.0,0.0,0.0,0.0,0.0,0.0,0.0,0.0,0.0,0.0,0.0,0.0,0.0,0.0,0.0,-3.9515,-3.9274,-3.9165,-3.9165,-3.8685,-3.8466,-3.855,-3.8371,-3.8419,-3.8775,-3.8407,-3.8276,-3.8423,-3.7942,-3.7833,-3.8029,0.0,-3.7724,-3.7724,-3.7724,-3.7571,-3.7374,-3.7374,-3.7374,-3.7374,-3.7374,-3.7374,-3.7374,-3.7374,-3.7374,-3.7374,-3.7374,-3.7374,-3.7374,-3.7374,-3.7374,-3.7374,-3.7374,-3.7549,-3.7724,-3.7724,-3.7876,-3.8051,-3.8051,-3.7876,-3.7767,-3.8008,-3.7876,-3.7789,-3.8008,-3.7876,-3.7724,-3.7724,-3.7527,-3.7374,-3.7374,-3.7374,-3.7374,-3.7374,-3.7374,-3.7374,-3.7374,-3.7374,-3.7374,-3.7374,-3.7374,-3.7374,-3.7374,-3.6937,-3.6369,-3.5648,-3.5146,-3.4775,-3.4479,-3.4534,-3.4534,-3.4534,-3.4534,-3.4534,-3.4534,-3.4534,-3.4534,-2.3101,-2.3537,-2.4057,-2.4057,0.0,-2.4642,-2.4642,0.0,0.0,0.0,0.0,0.0,0.0,0.0,0.0,0.0,0.0,0.0,0.0,0.0,0.0,0.0,0.0,0.0,0.0,0.0,0.0,0.0,0.0,0.0,-3.8797,-3.8728,-3.8663,-3.8663,-3.8182,-3.8025,-3.8192,-3.7653,-3.7745,-3.8488,-3.8117,-3.7942,-3.792,-3.7549,-3.7374,-3.7374,-3.7374,-3.7374,-3.7374,-3.7374,-3.7374,-3.7374,-3.7374,-3.7374,-3.7374,-3.7374,-3.7374,-3.7374,-3.7374,-3.7374,-3.7374,-3.7374,-3.7374,-3.7374,-3.7374,-3.7374,-3.7374,-3.7374,-3.7374,-3.7374,-3.7374,-3.7374,-3.7374,-3.7374,-3.7374,-3.7374,-3.7374,-3.7374,-3.7374,-3.7374,-3.7374,-3.7374,-3.7374,-3.7374,-3.7374,-3.7374,-3.7374,-3.7374,-3.7374,-3.7374,-3.7374,-3.7374,-3.7374,-3.7374,-3.7374,-3.7374,-3.7374,-3.7374,-3.6937,-3.6522,-3.6151,-3.5539,-3.5037,-3.4687,-3.4578,-3.4534,-3.4534,-3.4534,-3.4534,-3.4534,-3.4534,-3.4534,-2.3797,-2.4272,-2.4828,-2.4828,-2.4991,0.0,-2.5148,-2.628,0.0,0.0,0.0,0.0,0.0,0.0,0.0,0.0,0.0,0.0,0.0,0.0,0.0,0.0,0.0,0.0,0.0,0.0,0.0,0.0,0.0,0.0,-3.8775,-3.8401,-3.816,-3.816,-3.768,-3.744,-3.75,-3.7396,-3.7418,-3.7483,-3.744,-3.744,-3.744,-3.7396,-3.7374,-3.7374,-3.7374,-3.7374,-3.7374,-3.7374,-3.7374,-3.7374,-3.7374,-3.7374,-3.7374,-3.7374,-3.7374,-3.7374,-3.7374,-3.7374,-3.7374,-3.7374,-3.7374,-3.7374,-3.7374,-3.7374,-3.7374,-3.7374,-3.7374,-3.7374,-3.7374,-3.7374,-3.7374,-3.7374,-3.7374,-3.7374,-3.7374,-3.7374,-3.7374,-3.7374,-3.7374,-3.7374,-3.7374,-3.7374,-3.7374,-3.7374,-3.7374,-3.7374,-3.7374,-3.7374,-3.7374,-3.7374,-3.7374,-3.7374,-3.7374,-3.7374,-3.7374,-3.7374,-3.6937,-3.6675,-3.6653,-3.5714,-3.519,-3.5168,-3.4731,-3.4534,-3.4534,-3.4534,-3.4534,-3.4534,-3.4534,-3.4534,-2.4487,-2.4914,-2.5338,-2.5338,0.0,0.0,0.0,0.0,0.0,0.0,0.0,0.0,0.0,0.0,0.0,0.0,0.0,0.0,0.0,0.0,0.0,0.0,0.0,0.0,0.0,0.0,0.0,0.0,0.0,0.0,0.0,-3.7483,-3.7221,-3.7221,-3.6762,-3.6581,-3.6765,-3.6581,-3.6398,-3.6236,-3.6725,-3.6784,-3.6559,-3.6559,-3.6559,-3.6559,-3.6559,-3.6559,-3.6559,-3.6559,-3.6559,-3.6522,-3.6828,-3.7134,-3.7374,-3.7374,-3.7374,-3.7374,-3.7374,-3.7374,-3.7374,-3.7374,-3.7374,-3.7374,-3.7374,-3.7374,-3.7374,-3.7374,-3.7374,-3.7374,-3.7374,-3.7374,-3.7374,-3.7374,-3.7374,-3.7374,-3.7374,-3.7374,-3.7374,-3.7374,-3.7374,-3.7374,-3.7374,-3.7374,-3.7483,-3.7789,-3.7571,-3.7483,-3.7789,-3.7571,-3.7374,-3.7374,-3.7374,-3.7374,-3.7374,-3.7374,-3.7374,-3.7374,-3.7221,-3.6981,-3.6697,-3.6326,-3.5845,-3.5212,-3.5037,-3.4818,-3.4534,-3.4534,-3.4534,-3.4534,-3.4534,-3.4534,-2.5084,-2.538,-2.5718,0.0,0.0,0.0,0.0,0.0,0.0,0.0,0.0,0.0,0.0,0.0,0.0,0.0,0.0,0.0,0.0,0.0,0.0,0.0,0.0,0.0,0.0,0.0,0.0,0.0,0.0,0.0,0.0,-3.6631,-3.6457,-3.6457,-3.6209,-3.6114,-3.6274,-3.6114,-3.5787,-3.5396,-3.5962,-3.6129,-3.6034,-3.6034,-3.6034,-3.6034,-3.6034,-3.6034,-3.6034,-3.6034,-3.6034,-3.6056,-3.6326,-3.6762,-3.7156,-3.7156,-3.7243,-3.7374,-3.7374,-3.7374,-3.7374,-3.7374,-3.7374,-3.7374,-3.7374,-3.7374,-3.7374,-3.7374,-3.7374,-3.7374,-3.7374,-3.7374,-3.7374,-3.7374,-3.7374,-3.7374,-3.7374,-3.7374,-3.7374,-3.7374,-3.7374,-3.7374,-3.7374,-3.7505,-3.7724,-3.8051,-3.7833,-3.7724,-3.8073,-3.768,-3.7374,-3.7374,-3.7374,-3.7374,-3.7374,-3.7374,-3.7374,-3.7374,-3.7374,-3.7243,-3.6915,-3.6631,-3.6151,-3.5452,-3.5146,-3.484,-3.4534,-3.4534,-3.4534,-3.4534,-3.4534,-3.4534,-2.5612,-2.5738,0.0,0.0,0.0,0.0,0.0,0.0,0.0,0.0,0.0,0.0,0.0,0.0,0.0,0.0,0.0,0.0,0.0,0.0,0.0,0.0,0.0,0.0,0.0,0.0,0.0,0.0,0.0,0.0,0.0,-3.6012,-3.6012,-3.6012,-3.6012,-3.6012,-3.6012,-3.6012,-3.5692,-3.519,-3.519,-3.5452,-3.6012,-3.6012,-3.6012,-3.6012,-3.6012,-3.6012,-3.6012,-3.6012,-3.6012,-3.6012,-3.6012,-3.626,-3.6697,-3.6697,-3.6981,-3.7374,-3.7374,-3.7374,-3.7374,-3.7374,-3.7374,-3.7374,-3.7374,-3.7374,-3.7374,-3.7374,-3.7374,-3.7374,-3.7374,-3.7374,-3.7374,-3.7374,-3.7374,-3.7374,-3.7374,-3.7374,-3.7374,-3.7374,-3.7374,-3.7374,-3.7374,-3.7789,-3.8095,-3.8117,-3.8095,-3.8095,-3.8095,-3.768,-3.7374,-3.7374,-3.7374,-3.7374,-3.7374,-3.7374,-3.7374,-3.7374,-3.7374,-3.7374,-3.7374,-3.6537,-3.6034,-3.6034,-3.5037,-3.4534,-3.4534,-3.4479,-3.4479,-3.4534,-3.4534,-3.4534,-2.578,-2.6104,0.0,0.0,0.0,0.0,0.0,0.0,0.0,0.0,0.0,0.0,0.0,0.0,0.0,0.0,0.0,0.0,0.0,0.0,0.0,0.0,0.0,0.0,0.0,0.0,0.0,0.0,0.0,0.0,0.0,-3.5627,-3.543,-3.543,-3.5124,-3.4949,-3.4949,-3.4949,-3.4884,-3.4731,-3.4731,-3.4797,-3.4949,-3.4949,-3.4949,-3.4949,-3.4949,-3.4949,-3.4949,-3.4949,-3.5146,-3.543,-3.543,-3.5736,-3.6195,-3.6195,-3.6319,-3.645,-3.645,-3.645,-3.645,-3.645,-3.661,-3.6894,-3.6894,-3.7134,-3.7374,-3.7374,-3.7374,-3.7374,-3.7374,-3.7374,-3.7374,-3.7374,-3.7374,-3.7374,-3.7374,-3.7374,-3.7374,-3.7374,-3.7374,-3.7374,-3.7374,-3.7505,-3.7702,-3.8051,-3.7811,-3.7593,-3.7593,-3.7461,-3.7374,-3.7374,-3.7374,-3.7374,-3.7374,-3.7374,-3.7374,-3.7374,-3.7374,-3.7374,-3.7374,-3.7112,-3.6653,-3.6034,-3.602,-3.5539,-3.4534,-3.484,-3.484,-3.4534,-3.4534,-3.4534,-2.5864,0.0,0.0,0.0,0.0,0.0,0.0,0.0,0.0,0.0,0.0,0.0,0.0,0.0,0.0,0.0,0.0,0.0,0.0,0.0,0.0,0.0,0.0,0.0,0.0,0.0,0.0,0.0,0.0,0.0,0.0,-3.5102,-3.4928,-3.4928,-3.4666,-3.4534,-3.4534,-3.4534,-3.4534,-3.4534,-3.4534,-3.4534,-3.4534,-3.4534,-3.4534,-3.4534,-3.4534,-3.4534,-3.4534,-3.4534,-3.4687,-3.4928,-3.4928,-3.5233,-3.567,-3.567,-3.5801,-3.6034,-3.6034,-3.6034,-3.6034,-3.6034,-3.6173,-3.6413,-3.6413,-3.6741,-3.7112,-3.7112,-3.7243,-3.7374,-3.7374,-3.7374,-3.7374,-3.7374,-3.7374,-3.7374,-3.7374,-3.7374,-3.7374,-3.7374,-3.7374,-3.7374,-3.7374,-3.7527,-3.7767,-3.8051,-3.7855,-3.7593,-3.7396,-3.7374,-3.7374,-3.7374,-3.7374,-3.7374,-3.7374,-3.7495,-3.7616,-3.7616,-3.7796,-3.7976,-3.7976,-3.744,-3.6828,-3.626,-3.6465,-3.615,-3.5251,-3.5565,-3.5533,-3.5189,-3.5046,-3.4958,0.0,0.0,0.0,0.0,0.0,0.0,0.0,0.0,0.0,0.0,0.0,0.0,0.0,0.0,0.0,0.0,0.0,0.0,0.0,0.0,0.0,0.0,0.0,0.0,0.0,0.0,0.0,0.0,0.0,0.0,0.0,-3.4534,-3.4534,-3.4534,-3.4534,-3.4534,-3.4534,-3.4534,-3.4534,-3.4534,-3.4534,-3.4534,-3.4534,-3.4534,-3.4534,-3.4534,-3.4534,-3.4534,-3.4534,-3.4534,-3.4534,-3.4534,-3.4534,-3.4775,-3.5146,-3.5146,-3.543,-3.5845,-3.5845,-3.5845,-3.5845,-3.5845,-3.5867,-3.5947,-3.5947,-3.6238,-3.6631,-3.6675,-3.7003,-3.733,-3.7374,-3.7374,-3.7374,-3.7374,-3.7374,-3.7374,-3.7374,-3.7374,-3.7374,-3.7374,-3.7374,-3.7374,-3.7374,-3.7745,-3.8051,-3.8051,-3.8051,-3.7876,-3.744,-3.7374,-3.7374,-3.7374,-3.7374,-3.7435,-3.7435,-3.7758,-3.7938,-3.7998,-3.8574,-3.893,-3.8908,-3.7636,-3.6919,-3.6875,-3.675,-3.66,-3.6525,-3.6692,-3.6611,-3.6297,-3.6022,-3.5763,0.0,0.0,0.0,0.0,0.0,0.0,0.0,0.0,0.0,0.0,0.0,0.0,0.0,0.0,0.0,0.0,0.0,0.0,0.0,0.0,0.0,0.0,0.0,0.0,0.0,0.0,0.0,0.0,0.0,0.0,-3.4534,-3.4534,-3.4534,-3.4534,-3.4534,-3.4534,-3.4534,-3.4534,-3.4534,0.0,-3.4534,-3.4534,-3.4534,-3.4534,-3.4534,-3.4534,-3.4534,-3.4534,-3.4534,-3.4534,-3.4534,-3.4534,-3.4534,-3.4578,-3.4666,-3.4666,-3.4731,-3.484,-3.484,-3.484,-3.484,-3.484,-3.5081,-3.5364,-3.5364,-3.5714,-3.6195,-3.6588,-3.6762,-3.6937,-3.7287,-3.7374,-3.7374,-3.7374,-3.7374,-3.7374,-3.7374,-3.7374,-3.7374,-3.7374,-3.7374,-3.7374,-3.7374,-3.7461,-3.7527,-3.7527,-3.7527,-3.7505,-3.7396,-3.7374,-3.7374,-3.7374,-3.7374,-3.7495,-3.7758,-3.8058,-3.8418,-3.8953,-3.9321,-3.9615,-3.9884,-3.917,-3.8553,-3.8202,-3.8534,-3.8217,-3.7229,-3.764,-3.753,-3.6936,-3.6874,-3.6773,0.0,0.0,0.0,0.0,0.0,0.0,0.0,0.0,0.0,0.0,0.0,0.0,0.0,0.0,0.0,0.0,0.0,0.0,0.0,0.0,0.0,0.0,0.0,0.0,0.0,0.0,0.0,0.0,0.0,-3.4534,-3.4534,-3.4534,-3.4534,-3.4534,-3.4294,-3.4294,-3.4534,-3.4294,-3.4294,-3.4534,-3.4534,-3.4534,-3.4534,-3.4534,-3.4534,-3.4534,-3.4534,-3.4534,-3.4534,-3.4534,-3.4534,-3.4534,-3.4534,-3.4534,-3.4534,-3.4534,-3.4534,-3.4534,-3.4534,-3.4534,-3.4534,-3.4534,-3.4687,-3.4884,-3.4884,-3.5212,-3.5648,-3.5911,-3.6326,-3.6741,-3.6981,-3.7221,-3.7374,-3.7374,-3.7374,-3.7374,-3.7374,-3.7374,-3.7374,-3.7374,-3.7374,-3.7374,-3.7374,-3.7374,-3.7374,-3.7374,-3.7374,-3.7374,-3.7374,-3.7374,-3.7435,-3.7637,-3.7637,-3.7796,-3.8276,-3.8752,-3.9285,-3.9931,-4.049,-4.1009,-4.1296,-4.1124,-4.0544,-3.9395,-3.9476,-3.9333,-3.8871,-3.8856,-3.867,-3.8281,-3.8176,-3.8056,0.0,0.0,0.0,0.0,0.0,0.0,0.0,0.0,0.0,0.0,0.0,0.0,0.0,0.0,0.0,0.0,0.0,0.0,0.0,0.0,0.0,0.0,0.0,0.0,0.0,0.0,0.0,0.0,0.0,-3.4272,-3.4272,-3.4272,-3.4272,-3.4272,-3.3879,-3.3857,-3.4272,-3.3879,-3.3879,-3.4272,-3.4272,-3.4316,-3.4403,-3.4403,-3.4447,-3.4534,-3.4534,-3.4534,-3.4534,-3.4534,-3.4534,-3.4534,-3.4534,-3.4534,-3.4534,-3.4534,-3.4534,-3.4534,-3.4534,-3.4534,-3.4534,-3.4534,-3.4534,-3.4534,-3.4534,-3.4797,-3.5102,-3.519,-3.5867,-3.6588,-3.6675,-3.7046,-3.7374,-3.7374,-3.7374,-3.7374,-3.7374,-3.7374,-3.7374,-3.7374,-3.7435,-3.7495,-3.7616,-3.7616,-3.7676,-3.7736,-3.7736,-3.7736,-3.7736,-3.7736,-3.7796,-3.8118,-3.8178,-3.8455,-3.8967,-3.9697,-4.0397,-4.0976,-4.1834,-4.2457,-4.2762,-4.3042,-4.2457,-4.087,-4.0497,-4.0435,-4.0546,-4.0163,-3.9915,-3.977,-3.9561,-3.9337,0.0,0.0,0.0,0.0,0.0,0.0,0.0,0.0,0.0,0.0,0.0,0.0,0.0,0.0,0.0,0.0,0.0,0.0,0.0,0.0,0.0,0.0,0.0,0.0,0.0,0.0,0.0,0.0,-3.3508,-3.3321,-3.3321,-3.3321,-3.3321,-3.3321,-3.3256,-3.3256,-3.3321,-3.3202,-3.3202,-3.3321,-3.3321,-3.3486,-3.3901,-3.3901,-3.4119,-3.4534,-3.4534,-3.4534,-3.4534,-3.4534,-3.4534,-3.4534,-3.4534,-3.4534,-3.4534,-3.4534,-3.4534,-3.4534,-3.4534,-3.4534,-3.4534,-3.4534,-3.4534,-3.4534,-3.4534,-3.4556,-3.4687,-3.5102,-3.5627,-3.6209,-3.6588,-3.7046,-3.7374,-3.7374,-3.7374,-3.7374,-3.7374,-3.7374,-3.7374,-3.7374,-3.7637,-3.7998,-3.8514,-3.8611,-3.8693,-3.899,-3.9072,-3.9072,-3.9072,-3.9072,-3.9072,-3.9131,-3.9344,-3.9615,-3.9989,-4.086,-4.1606,-4.2231,-4.2905,-4.3351,-4.3734,-4.3789,-4.3653,-4.3432,-4.2855,-4.2218,-4.1512,-4.144,-4.1096,-4.0364,-4.0338,-4.0287,0.0,0.0,0.0,0.0,0.0,0.0,0.0,0.0,0.0,0.0,0.0,0.0,0.0,0.0,0.0,0.0,0.0,0.0,0.0,0.0,0.0,0.0,0.0,0.0,0.0,0.0,0.0,0.0,-3.3234,-3.3124,-3.3124,-3.3124,-3.2974,-3.2823,-3.2734,-3.2734,-3.2823,-3.2734,-3.2862,-3.3124,-3.3124,-3.3234,-3.3377,-3.3377,-3.3814,-3.4534,-3.4534,-3.4534,-3.4534,-3.4534,-3.4534,-3.4534,-3.4534,-3.4534,-3.4534,-3.4534,-3.4534,-3.4534,-3.4534,-3.4534,-3.4534,-3.4534,-3.4534,-3.4534,-3.4702,-3.4758,-3.4913,-3.5424,-3.5904,-3.6407,-3.6802,-3.7408,-3.7991,-3.7991,-3.8253,-3.8455,-3.8455,-3.7916,-3.7435,-3.7616,-3.7938,-3.8358,-3.899,-3.9226,-3.9439,-3.9732,-3.9791,-3.9791,-3.9791,-3.9791,-3.9873,-4.0048,-4.0316,-4.0697,-4.1206,-4.1923,-4.2625,-4.3265,-4.3683,-4.4013,-4.4367,-4.4367,-4.4367,-4.4367,-4.3431,-4.2859,-4.2618,-4.2056,-4.1673,-4.1413,-4.1102,-4.0972,0.0,0.0,0.0,0.0,0.0,0.0,0.0,0.0,0.0,0.0,0.0,0.0,0.0,0.0,0.0,0.0,0.0,0.0,0.0,0.0,0.0,0.0,0.0,0.0,0.0,0.0,0.0,0.0,-3.2818,-3.27,-3.27,-3.27,-3.2603,-3.2379,-3.2276,-3.2254,-3.2305,-3.2276,-3.235,-3.27,-3.27,-3.2765,-3.2896,-3.2896,-3.3355,-3.4141,-3.4141,-3.4229,-3.4338,-3.4393,-3.4515,-3.4646,-3.4791,-3.4847,-3.4847,-3.4902,-3.4958,-3.4958,-3.4958,-3.4958,-3.4958,-3.4958,-3.4958,-3.5013,-3.5257,-3.5368,-3.5533,-3.5927,-3.6457,-3.6956,-3.7123,-3.7847,-3.8562,-3.8678,-3.9001,-3.9323,-3.9285,-3.8574,-3.7976,-3.8395,-3.8633,-3.9049,-3.9873,-4.0199,-4.0466,-4.087,-4.0928,-4.0928,-4.0928,-4.0928,-4.1009,-4.1263,-4.1501,-4.1899,-4.24,-4.2936,-4.3462,-4.3955,-4.4258,-4.4476,-4.4668,-4.4668,-4.4668,-4.4668,-4.3873,-4.348,-4.354,-4.2709,-4.2372,-4.2369,-4.1951,-4.1742,0.0,0.0,0.0,0.0,0.0,0.0,0.0,0.0,0.0,0.0,0.0,0.0,0.0,0.0,0.0,0.0,0.0,0.0,0.0,0.0,0.0,0.0,0.0,0.0,0.0,0.0,0.0,0.0,-3.1979,-3.1695,-3.1695,-3.1695,-3.1644,-3.1644,-3.1622,-3.1622,-3.1644,-3.1673,-3.1673,-3.1695,-3.1695,-3.1957,-3.2416,-3.2416,-3.2678,-3.319,-3.319,-3.3399,-3.389,-3.4087,-3.4537,-3.5035,-3.5543,-3.574,-3.5763,-3.6091,-3.6223,-3.6223,-3.6223,-3.6223,-3.6223,-3.6223,-3.6223,-3.6223,-3.6223,-3.644,-3.6603,-3.6657,-3.7169,-3.7762,-3.7762,-3.8105,-3.8644,-3.9216,-3.9356,-3.9405,-3.9311,-3.9249,-3.9367,-3.9989,-4.0106,-4.0513,-4.1777,-4.2004,-4.2174,-4.2737,-4.2849,-4.2849,-4.2849,-4.2849,-4.2874,-4.2849,-4.3129,-4.327,-4.3326,-4.3848,-4.4258,-4.4258,-4.4531,-4.4668,-4.4668,-4.4668,-4.4668,-4.4668,-4.4642,-4.4354,-4.3859,-4.3807,-4.3493,-4.2971,-4.2944,-4.2944,0.0,0.0,0.0,0.0,0.0,0.0,0.0,0.0,0.0,0.0,0.0,0.0,0.0,0.0,0.0,0.0,0.0,0.0,0.0,0.0,0.0,0.0,0.0,0.0,0.0,0.0,0.0,0.0,0.0,-3.1476,-3.1171,-3.1149,-3.1018,-3.0734,-3.0996,-3.1302,-3.1629,-3.1629,-3.1629,-3.1629,-3.1629,-3.1717,-3.1891,-3.2046,-3.2237,-3.2391,-3.2598,-3.2958,-3.3409,-3.3987,-3.4447,-3.492,-3.5759,-3.62,-3.6417,-3.6719,-3.6827,-3.6827,-3.6827,-3.6827,-3.6827,-3.6827,-3.6827,-3.6827,-3.6989,-3.7257,-3.7524,-3.795,-3.8359,-3.877,-3.8953,-3.9345,-3.9957,-4.0918,-4.1114,-4.1205,-4.1598,-4.0721,-4.0024,-4.0455,-4.086,-4.1378,-4.2231,-4.2681,-4.3073,-4.3487,-4.3543,-4.3543,-4.3543,-4.3543,-4.3543,-4.3543,-4.3819,-4.3958,-4.3958,-4.4341,-4.4559,-4.4559,-4.4668,-4.4668,-4.4668,-4.4668,-4.4668,-4.4668,-4.4668,-4.4617,-4.4408,-4.4042,-4.3781,-4.3572,-4.318,-4.3023,0.0,0.0,0.0,0.0,0.0,0.0,0.0,0.0,0.0,0.0,0.0,0.0,0.0,0.0,0.0,0.0,0.0,0.0,0.0,0.0,0.0,0.0,0.0,0.0,0.0,0.0,0.0,0.0,0.0,0.0,-3.069,-3.0668,-3.0515,-3.0209,-3.0515,-3.0821,-3.1149,-3.1149,-3.1236,-3.149,-3.149,-3.1629,-3.1936,-3.219,-3.2269,-3.2291,-3.2594,-3.2913,-3.3193,-3.403,-3.4665,-3.5244,-3.6503,-3.7173,-3.7441,-3.7844,-3.795,-3.795,-3.795,-3.795,-3.795,-3.795,-3.795,-3.8003,-3.8161,-3.8425,-3.8739,-3.9104,-3.944,-3.9698,-3.9878,-4.0334,-4.0887,-4.1673,-4.2128,-4.2507,-4.2886,-4.2026,-4.1239,-4.1525,-4.1923,-4.24,-4.3017,-4.3462,-4.3793,-4.4094,-4.4148,-4.4148,-4.4148,-4.4148,-4.4148,-4.4148,-4.4313,-4.4422,-4.4422,-4.4613,-4.4668,-4.4668,-4.4668,-4.4668,-4.4668,-4.4668,-4.4668,-4.4668,-4.4668,-4.4668,-4.4668,-4.433,-4.4173,-4.4147,-4.3781,-4.3389,0.0,0.0,0.0,0.0,0.0,0.0,0.0,0.0,0.0,0.0,0.0,0.0,0.0,0.0,0.0,0.0,0.0,0.0,0.0,0.0,0.0,0.0,0.0,0.0,0.0,0.0,0.0,0.0,-3.0209,-3.0209,-3.0188,-3.0166,-3.0188,-3.0188,-3.0188,-3.0188,-3.0209,-3.0209,-3.0597,-3.1307,-3.1329,-3.1723,-3.2521,-3.2745,-3.2846,-3.2846,-3.3147,-3.3242,-3.3308,-3.4377,-3.5224,-3.608,-3.7733,-3.8582,-3.8896,-3.9517,-3.9749,-3.9749,-3.9749,-3.9749,-3.9749,-3.9749,-3.9749,-3.9749,-3.9749,-3.9929,-4.0134,-4.0134,-4.0338,-4.0491,-4.0491,-4.0901,-4.1311,-4.1337,-4.2182,-4.2977,-4.3003,-4.3026,-4.3129,-4.3326,-4.3436,-4.3628,-4.4203,-4.4313,-4.4422,-4.4668,-4.4668,-4.4668,-4.4668,-4.4668,-4.4668,-4.4668,-4.4668,-4.4668,-4.4668,-4.4668,-4.4668,-4.4668,-4.4668,-4.4668,-4.4668,-4.4668,-4.4668,-4.4668,-4.4668,-4.4668,-4.4668,-4.4668,-4.4668,-4.4668,-4.4668,-4.4121,-2.5906,0.0,0.0,0.0,0.0,0.0,0.0,0.0,0.0,0.0,0.0,0.0,0.0,0.0,0.0,0.0,0.0,0.0,0.0,0.0,0.0,0.0,0.0,0.0,0.0,0.0,0.0,0.0,-3.0209,-3.0057,-2.9707,-2.95,-2.9645,-3.0189,-3.0211,-3.0367,-3.0696,-3.0696,-3.0908,-3.1285,-3.1694,-3.2165,-3.2722,-3.336,-3.377,-3.3944,-3.4237,-3.4357,-3.4398,-3.4664,-3.5361,-3.6422,-3.7851,-3.8937,-3.975,-4.0134,-4.0313,-4.0313,-4.0313,-4.0313,-4.0313,-4.0313,-4.0313,-4.0313,-4.0313,-4.044,-4.0694,-4.0694,-4.0846,-4.1073,-4.1073,-4.1177,-4.1411,-4.1878,-4.219,-4.2658,-4.349,-4.3669,-4.3687,-4.3742,-4.3929,-4.4094,-4.4258,-4.4476,-4.4613,-4.4668,-4.4668,-4.4668,-4.4668,-4.4668,-4.4668,-4.4668,-4.4668,-4.4668,-4.4668,-4.4668,-4.4668,-4.4668,-4.4668,-4.4668,-4.4668,-4.4668,-4.4668,-4.4668,-4.4668,-4.4668,-4.4668,-4.4668,-4.4668,-4.4668,-4.4668,-4.433,0.0,0.0,0.0,0.0,0.0,0.0,-2.5906,-2.6125,0.0,0.0,0.0,0.0,0.0,0.0,0.0,0.0,0.0,0.0,0.0,0.0,0.0,0.0,0.0,0.0,0.0,-2.9598,-2.9646,-2.9741,-2.9741,-2.9657,-2.9421,-2.9527,-2.9804,-3.0375,-3.0259,-3.0395,-3.0783,-3.0689,-3.0874,-3.1457,-3.1756,-3.246,-3.3505,-3.4054,-3.4607,-3.5066,-3.5331,-3.5452,-3.5476,-3.5576,-3.616,-3.7092,-3.8391,-3.9525,-4.0491,-4.0744,-4.0821,-4.0821,-4.0821,-4.0821,-4.0821,-4.0821,-4.0821,-4.0821,-4.0821,-4.0946,-4.1047,-4.1047,-4.1147,-4.1324,-4.1324,-4.1324,-4.1402,-4.1742,-4.2004,-4.2395,-4.3075,-4.3363,-4.3649,-4.4157,-4.4367,-4.4476,-4.4476,-4.4613,-4.4668,-4.4668,-4.4668,-4.4668,-4.4668,-4.4668,-4.4668,-4.4668,-4.4668,-4.4668,-4.4668,-4.4668,-4.4668,-4.4668,-4.4668,-4.4668,-4.4668,-4.4668,-4.4668,-4.4668,-4.4668,-4.4668,-4.4668,-4.4668,-4.4668,-4.4668,-4.4668,-4.4408,0.0,0.0,0.0,0.0,0.0,0.0,-2.599,-2.5948,-2.5948,0.0,0.0,0.0,0.0,0.0,0.0,0.0,0.0,0.0,0.0,0.0,0.0,0.0,0.0,0.0,-2.8819,-2.8776,-2.8846,-2.9096,-2.9074,-2.9168,-2.942,-2.9966,-3.0487,-3.0826,-3.0532,-3.0487,-3.0758,-3.0487,-3.0855,-3.1756,-3.1827,-3.2787,-3.4477,-3.4785,-3.5387,-3.6168,-3.6358,-3.6499,-3.6499,-3.6687,-3.7152,-3.7841,-3.9065,-4.0076,-4.0893,-4.1198,-4.1324,-4.1324,-4.1324,-4.1324,-4.1324,-4.1324,-4.1324,-4.1324,-4.1324,-4.1324,-4.1324,-4.1324,-4.1324,-4.1324,-4.1324,-4.1324,-4.1324,-4.1324,-4.1716,-4.2133,-4.2211,-4.2579,-4.3258,-4.433,-4.4591,-4.4643,-4.4668,-4.4668,-4.4668,-4.4668,-4.4668,-4.4668,-4.4668,-4.4668,-4.4668,-4.4668,-4.4668,-4.4668,-4.4668,-4.4668,-4.4668,-4.4668,-4.4668,-4.4668,-4.4668,-4.4668,-4.4668,-4.4668,-4.4668,-4.4668,-4.4668,-4.4668,-4.4668,-4.4668,-4.4668,-4.446,0.0,0.0,0.0,0.0,0.0,0.0,-2.6385,-2.6324,-2.624,0.0,0.0,0.0,0.0,0.0,0.0,0.0,0.0,0.0,0.0,0.0,0.0,0.0,0.0,0.0,-2.8993,-2.85,-2.85,-2.9261,-2.8969,-2.9148,-2.9963,-3.0664,-3.125,-3.1805,-3.1516,-3.1516,-3.1713,-3.1516,-3.1697,-3.2279,-3.2629,-3.3597,-3.4967,-3.5491,-3.6134,-3.6875,-3.6922,-3.6968,-3.6968,-3.7273,-3.7565,-3.8015,-3.8943,-3.9803,-4.0546,-4.1091,-4.1324,-4.1324,-4.1324,-4.1324,-4.1324,-4.1324,-4.1324,-4.1324,-4.1324,-4.1324,-4.1324,-4.1324,-4.1324,-4.1324,-4.1324,-4.1324,-4.1324,-4.1324,-4.1402,-4.1611,-4.2133,-4.229,-4.2526,-4.3232,-4.3729,-4.4173,-4.4643,-4.4668,-4.4668,-4.4668,-4.4668,-4.4668,-4.4668,-4.4668,-4.4668,-4.4668,-4.4668,-4.4668,-4.4668,-4.4668,-4.4668,-4.4668,-4.4668,-4.4668,-4.4668,-4.4668,-4.4668,-4.4668,-4.4668,-4.4668,-4.4668,-4.4668,-4.4668,-4.4668,-4.4668,-4.467,0.0,0.0,0.0,-2.7208,0.0,0.0,0.0,-2.688,-2.6962,0.0,0.0,0.0,0.0,0.0,0.0,0.0,0.0,0.0,0.0,0.0,0.0,0.0,0.0,0.0,-2.9155,-2.8861,-2.8858,-2.9459,-2.9601,-3.0181,-3.1332,-3.1864,-3.2445,-3.3039,-3.2574,-3.2481,-3.2698,-3.2481,-3.2525,-3.2914,-3.3146,-3.3878,-3.5007,-3.5596,-3.6296,-3.7065,-3.7488,-3.7664,-3.7664,-3.7965,-3.8123,-3.8344,-3.8778,-3.9507,-4.0461,-4.0749,-4.1063,-4.1324,-4.1324,-4.1324,-4.1324,-4.1324,-4.1324,-4.1324,-4.1324,-4.1324,-4.1324,-4.1324,-4.1398,-4.1498,-4.1498,-4.1597,-4.1696,-4.1696,-4.1696,-4.1776,-4.2066,-4.2119,-4.2303,-4.2884,-4.3254,-4.3624,-4.42,-4.4539,-4.4668,-4.4668,-4.4668,-4.4668,-4.4668,-4.4668,-4.4668,-4.4668,-4.4668,-4.4668,-4.4668,-4.4668,-4.4668,-4.4668,-4.4668,-4.4668,-4.4668,-4.4668,-4.4668,-4.4668,-4.4668,-4.4668,-4.4668,-4.4668,-4.4668,-4.4668,-4.4434,-4.446,0.0,0.0,0.0,0.0,0.0,-2.7753,0.0,0.0,0.0,0.0,0.0,0.0,0.0,0.0,0.0,0.0,0.0,0.0,0.0,0.0,0.0,0.0,0.0,0.0,0.0,-2.9498,-2.9582,-2.966,-3.0087,-3.0902,-3.2281,-3.3004,-3.3527,-3.3861,-3.3411,-3.33,-3.3598,-3.3343,-3.3343,-3.3641,-3.3641,-3.4161,-3.5029,-3.5539,-3.6199,-3.7037,-3.7753,-3.8107,-3.8213,-3.8512,-3.8602,-3.861,-3.8754,-3.9433,-4.0301,-4.0432,-4.0851,-4.1324,-4.1324,-4.1324,-4.1324,-4.1324,-4.1324,-4.1324,-4.1324,-4.1324,-4.1324,-4.1324,-4.1498,-4.1696,-4.1696,-4.1895,-4.2065,-4.2065,-4.2065,-4.2065,-4.2065,-4.2065,-4.2225,-4.2731,-4.2918,-4.3165,-4.3809,-4.436,-4.4727,-4.4727,-4.4778,-4.4776,-4.4776,-4.4722,-4.4668,-4.4668,-4.4668,-4.4668,-4.4668,-4.4668,-4.4668,-4.4668,-4.4668,-4.4668,-4.4668,-4.4668,-4.4668,-4.4668,-4.4668,-4.4668,-4.4668,-4.4668,-4.467,-4.4539,-4.4095,-4.4068,0.0,0.0,0.0,0.0,-2.9199,0.0,0.0,0.0,0.0,0.0,0.0,0.0,0.0,0.0,0.0,0.0,0.0,0.0,0.0,0.0,0.0,0.0,0.0,0.0,0.0,-3.0258,-3.0233,-2.9982,-2.9524,-2.9896,-3.1361,-3.3234,-3.3979,-3.3416,-3.3537,-3.3852,-3.4272,-3.4063,-3.4189,-3.4564,-3.4564,-3.4895,-3.5542,-3.5594,-3.614,-3.7011,-3.7358,-3.7764,-3.8213,-3.8512,-3.8602,-3.8655,-3.9123,-3.9594,-3.9991,-4.0544,-4.0999,-4.1324,-4.1324,-4.1324,-4.1324,-4.1324,-4.1324,-4.1324,-4.1324,-4.1324,-4.1324,-4.1324,-4.1498,-4.1696,-4.1696,-4.1895,-4.2065,-4.2065,-4.2065,-4.2065,-4.2065,-4.2065,-4.2092,-4.2172,-4.2625,-4.316,-4.3696,-4.428,-4.4731,-4.4731,-4.4944,-4.5126,-4.5126,-4.4884,-4.4668,-4.4668,-4.4668,-4.4668,-4.4668,-4.4668,-4.4668,-4.4668,-4.4668,-4.4668,-4.4668,-4.4668,-4.4668,-4.4668,-4.4668,-4.4668,-4.4668,-4.4668,-4.446,-4.3964,-4.3912,-4.3624,0.0,0.0,0.0,0.0,0.0,0.0,-2.9819,0.0,-3.005,0.0,0.0,0.0,0.0,0.0,0.0,0.0,0.0,0.0,0.0,0.0,0.0,0.0,0.0,0.0,0.0,0.0,0.0,0.0,-3.0254,-3.0535,-3.1304,-3.3186,-3.4113,-3.3831,-3.4275,-3.4605,-3.4812,-3.4714,-3.4771,-3.4936,-3.4936,-3.5068,-3.5334,-3.5637,-3.6204,-3.6911,-3.7546,-3.8087,-3.8639,-3.889,-3.9007,-3.9034,-3.9249,-3.9478,-3.9694,-4.0304,-4.0839,-4.1297,-4.1614,-4.1746,-4.1746,-4.1746,-4.1746,-4.1746,-4.1746,-4.1746,-4.1746,-4.1746,-4.1944,-4.2141,-4.2141,-4.2338,-4.2582,-4.2582,-4.2582,-4.2582,-4.2582,-4.2582,-4.2582,-4.2582,-4.2797,-4.2991,-4.326,-4.3763,-4.4171,-4.4171,-4.4467,-4.4679,-4.4679,-4.4701,-4.4668,-4.4668,-4.4668,-4.4668,-4.4668,-4.4668,-4.4668,-4.4668,-4.4668,-4.4668,-4.4668,-4.4668,-4.4668,-4.4668,-4.4668,-4.4668,-4.4668,-4.4668,-4.4434,-4.3912,-4.352,-4.3415,-3.1161,0.0,0.0,0.0,0.0,0.0,0.0,0.0,0.0,0.0,0.0,0.0,0.0,0.0,0.0,0.0,0.0,0.0,0.0,0.0,0.0,0.0,0.0,0.0,0.0,0.0,0.0,-3.0869,-3.1093,-3.1288,-3.1505,-3.2925,-3.3814,-3.394,-3.4526,-3.4967,-3.5208,-3.5208,-3.5208,-3.529,-3.529,-3.5249,-3.5208,-3.5595,-3.6167,-3.6844,-3.7558,-3.8236,-3.8908,-3.9203,-3.9292,-3.9292,-3.9292,-3.9339,-3.9451,-3.9974,-4.0621,-4.1266,-4.1692,-4.1932,-4.2065,-4.2065,-4.2065,-4.2065,-4.2065,-4.2065,-4.2065,-4.2065,-4.2289,-4.2511,-4.2511,-4.2706,-4.29,-4.29,-4.29,-4.29,-4.29,-4.29,-4.29,-4.29,-4.29,-4.29,-4.29,-4.3395,-4.3814,-4.3814,-4.4065,-4.4334,-4.452,-4.4625,-4.4781,-4.4938,-4.4938,-4.4884,-4.483,-4.4856,-4.4776,-4.4722,-4.4668,-4.4668,-4.4668,-4.4668,-4.4668,-4.4668,-4.4668,-4.4668,-4.4668,-4.4668,-4.4513,-4.4095,-4.3363,-4.3154,0.0,0.0,0.0,-3.1927,0.0,0.0,0.0,0.0,-3.1853,0.0,0.0,0.0,0.0,0.0,0.0,0.0,0.0,0.0,0.0,0.0,0.0,0.0,0.0,0.0,0.0,0.0,0.0,-3.1559,-3.1716,-3.178,-3.1776,-3.2498,-3.3062,-3.3301,-3.3913,-3.458,-3.5386,-3.5386,-3.5467,-3.5669,-3.5669,-3.5588,-3.5386,-3.5413,-3.5933,-3.6817,-3.7086,-3.7859,-3.8908,-3.9203,-3.9292,-3.9292,-3.9292,-3.9319,-3.9356,-3.968,-4.0415,-4.1213,-4.1239,-4.1612,-4.2065,-4.2065,-4.2065,-4.2065,-4.2065,-4.2065,-4.2065,-4.2065,-4.2289,-4.2511,-4.2511,-4.2706,-4.29,-4.29,-4.29,-4.29,-4.29,-4.29,-4.29,-4.29,-4.29,-4.29,-4.29,-4.3389,-4.3796,-4.3796,-4.401,-4.4399,-4.5014,-4.4861,-4.4917,-4.5475,-4.5555,-4.5448,-4.518,-4.518,-4.5072,-4.4722,-4.4668,-4.4668,-4.4668,-4.4668,-4.4668,-4.4668,-4.4668,-4.4668,-4.4668,-4.4668,-4.4668,-4.467,-4.3546,-4.2735,0.0,0.0,-3.2182,-3.2109,0.0,0.0,0.0,0.0,0.0,0.0,0.0,0.0,0.0,0.0,0.0,0.0,0.0,0.0,0.0,0.0,0.0,0.0,0.0,0.0,0.0,0.0,0.0,-3.2,-3.2036,-3.2073,-3.2063,-3.2678,-3.3236,-3.3688,-3.4281,-3.4914,-3.5588,-3.5588,-3.5629,-3.571,-3.571,-3.5669,-3.5588,-3.5588,-3.598,-3.668,-3.7196,-3.786,-3.859,-3.9084,-3.9292,-3.9292,-3.9292,-3.9292,-3.9373,-3.988,-4.0518,-4.1234,-4.2064,-4.2469,-4.2631,-4.2631,-4.2631,-4.2631,-4.2631,-4.2631,-4.2631,-4.2631,-4.2679,-4.2755,-4.2755,-4.2852,-4.29,-4.29,-4.29,-4.29,-4.29,-4.29,-4.29,-4.29,-4.29,-4.29,-4.29,-4.3063,-4.3172,-4.3172,-4.344,-4.3883,-4.4423,-4.4594,-4.4943,-4.5555,-4.5609,-4.5555,-4.5448,-4.5448,-4.5448,-4.5315,-4.5287,-4.5287,-4.5287,-4.5287,-4.5287,-4.5287,-4.5126,-4.5018,-4.5018,-4.4776,-4.4668,-4.4642,-4.3938,-4.3284,-3.2218,-3.2218,0.0,-3.2218,-3.2218,0.0,-3.2218,0.0,0.0,0.0,0.0,0.0,0.0,0.0,0.0,0.0,0.0,0.0,0.0,-3.2218,0.0,0.0,0.0,0.0,0.0,0.0,-3.2218,-3.2218,-3.2218,-3.2218,0.0,0.0,-3.3023,-3.362,-3.4179,-3.4775,-3.5344,-3.5601,-3.571,-3.571,-3.571,-3.571,-3.571,-3.571,-3.6035,-3.6632,-3.7214,-3.7838,-3.8477,-3.9047,-3.9292,-3.9292,-3.9292,-3.9292,-3.9346,-3.9726,-4.0404,-4.13,-4.2466,-4.29,-4.29,-4.29,-4.29,-4.29,-4.29,-4.29,-4.29,-4.29,-4.29,-4.29,-4.29,-4.29,-4.29,-4.29,-4.29,-4.29,-4.29,-4.29,-4.29,-4.29,-4.29,-4.29,-4.29,-4.29,-4.29,-4.29,-4.3079,-4.344,-4.3983,-4.4423,-4.491,-4.5552,-4.5794,-4.5875,-4.5742,-4.5662,-4.5609,-4.5609,-4.5609,-4.5609,-4.5609,-4.5609,-4.5609,-4.5609,-4.5448,-4.5287,-4.518,-4.4964,-4.4856,-4.4668,-4.4356,-4.3859]},{"header":{"parameterUnit":"m.s-1","parameterCategory":1,"la1":30.6,"la2":29.2853,"lo1":-89.7004,"lo2":-87.6739,"dy":0.0162,"dx":0.0183,"nx":112,"ny":82,"refTime":"2023-07-19T06:00:00:Z","depth":0,"parameterNumber":3,"parameterNumberName":"V-component_of_WINDS"},"data":[0.0,0.0,0.0,0.0,0.0,0.0,0.0,0.0,0.0,0.0,0.0,0.0,0.0,0.0,0.0,0.0,0.0,0.0,0.0,0.0,0.0,0.0,0.0,0.0,0.0,0.0,0.0,0.0,0.0,0.0,0.0,0.0,0.0,0.0,0.0,0.0,0.0,0.0,0.0,0.0,0.0,0.0,0.0,0.0,0.0,0.0,0.0,0.0,0.0,0.0,0.0,0.0,0.0,0.0,0.0,0.0,0.0,0.0,0.0,0.0,0.0,0.0,0.0,0.0,0.0,0.0,0.0,0.0,0.0,0.0,0.0,0.0,0.0,0.0,0.0,0.0,0.0,0.0,0.0,0.0,0.0,0.0,0.0,0.0,0.0,0.0,0.0,0.0,0.0,0.0,-4.0448,-4.0804,-4.265,-4.3816,-4.3719,-4.3816,-4.2909,-4.0642,0.0,0.0,0.0,0.0,0.0,0.0,0.0,0.0,0.0,0.0,0.0,0.0,0.0,0.0,0.0,0.0,0.0,0.0,0.0,0.0,0.0,0.0,0.0,0.0,0.0,0.0,0.0,0.0,0.0,0.0,0.0,0.0,0.0,0.0,0.0,0.0,0.0,0.0,0.0,0.0,0.0,0.0,0.0,0.0,0.0,0.0,0.0,0.0,0.0,0.0,0.0,0.0,0.0,0.0,0.0,0.0,0.0,0.0,0.0,0.0,0.0,0.0,0.0,0.0,0.0,0.0,0.0,0.0,0.0,0.0,0.0,0.0,0.0,0.0,0.0,0.0,0.0,0.0,0.0,0.0,0.0,0.0,0.0,0.0,0.0,0.0,0.0,0.0,0.0,0.0,0.0,0.0,0.0,0.0,0.0,0.0,0.0,0.0,0.0,0.0,0.0,0.0,0.0,0.0,-4.0318,-4.2068,-4.3686,-4.4366,-4.3751,-4.4269,-4.3427,-4.0675,0.0,0.0,0.0,0.0,0.0,0.0,0.0,0.0,0.0,0.0,0.0,0.0,0.0,0.0,0.0,0.0,0.0,0.0,0.0,0.0,0.0,0.0,0.0,0.0,0.0,0.0,0.0,0.0,0.0,0.0,0.0,0.0,0.0,0.0,0.0,0.0,0.0,0.0,0.0,0.0,0.0,0.0,0.0,0.0,0.0,0.0,0.0,0.0,0.0,0.0,0.0,0.0,0.0,0.0,0.0,0.0,0.0,0.0,0.0,0.0,0.0,0.0,0.0,0.0,0.0,0.0,0.0,0.0,0.0,0.0,0.0,0.0,0.0,0.0,0.0,0.0,0.0,0.0,0.0,0.0,0.0,0.0,0.0,0.0,0.0,0.0,0.0,0.0,0.0,0.0,0.0,0.0,0.0,0.0,0.0,0.0,0.0,0.0,0.0,0.0,0.0,0.0,0.0,-3.9833,-4.0998,-4.3524,-4.4399,-4.4658,-4.4334,-4.4593,-4.3557,-4.0675,-4.048,0.0,0.0,0.0,0.0,0.0,0.0,0.0,0.0,0.0,0.0,0.0,0.0,0.0,0.0,0.0,0.0,0.0,0.0,0.0,0.0,0.0,0.0,0.0,0.0,0.0,0.0,0.0,0.0,0.0,0.0,0.0,0.0,0.0,0.0,0.0,0.0,0.0,0.0,0.0,0.0,0.0,0.0,0.0,0.0,0.0,0.0,0.0,0.0,0.0,0.0,0.0,0.0,0.0,0.0,0.0,0.0,0.0,0.0,0.0,0.0,0.0,0.0,0.0,0.0,0.0,0.0,0.0,0.0,0.0,0.0,0.0,0.0,0.0,0.0,0.0,0.0,0.0,0.0,0.0,0.0,0.0,0.0,0.0,0.0,0.0,0.0,0.0,0.0,0.0,0.0,0.0,0.0,0.0,0.0,0.0,0.0,0.0,0.0,0.0,0.0,0.0,0.0,-4.048,-4.1581,-4.4496,-4.4625,-4.4593,-4.4787,-4.4625,-4.3362,-4.0675,-4.048,0.0,0.0,0.0,0.0,0.0,0.0,0.0,0.0,0.0,0.0,0.0,0.0,0.0,0.0,0.0,0.0,0.0,0.0,0.0,0.0,0.0,0.0,0.0,0.0,0.0,0.0,0.0,0.0,0.0,0.0,0.0,0.0,0.0,0.0,0.0,0.0,0.0,0.0,0.0,0.0,0.0,0.0,0.0,0.0,0.0,0.0,0.0,0.0,0.0,0.0,0.0,0.0,0.0,0.0,0.0,0.0,0.0,0.0,0.0,0.0,0.0,0.0,0.0,0.0,0.0,0.0,0.0,0.0,0.0,0.0,0.0,0.0,0.0,0.0,0.0,0.0,0.0,0.0,0.0,0.0,0.0,0.0,0.0,0.0,0.0,0.0,0.0,0.0,0.0,0.0,0.0,0.0,0.0,0.0,0.0,0.0,0.0,0.0,0.0,0.0,0.0,0.0,-4.048,-4.1581,-4.4496,-4.4204,-4.4043,-4.4723,-4.4172,-4.2844,-4.0642,-4.048,0.0,0.0,0.0,0.0,0.0,0.0,0.0,0.0,0.0,0.0,0.0,0.0,0.0,0.0,0.0,0.0,0.0,0.0,0.0,0.0,0.0,0.0,0.0,0.0,0.0,0.0,0.0,0.0,0.0,0.0,0.0,0.0,0.0,0.0,0.0,0.0,0.0,0.0,0.0,0.0,0.0,0.0,0.0,0.0,0.0,0.0,0.0,0.0,0.0,0.0,0.0,0.0,0.0,0.0,0.0,0.0,0.0,0.0,0.0,0.0,0.0,0.0,0.0,0.0,0.0,0.0,0.0,0.0,0.0,0.0,0.0,0.0,0.0,0.0,0.0,0.0,0.0,0.0,0.0,0.0,0.0,0.0,0.0,0.0,0.0,0.0,0.0,0.0,0.0,0.0,0.0,0.0,0.0,0.0,0.0,0.0,0.0,0.0,0.0,0.0,0.0,0.0,-4.048,-4.1581,0.0,-4.414,-4.401,-4.4723,-4.414,-4.278,-4.0642,0.0,0.0,0.0,0.0,0.0,0.0,0.0,0.0,0.0,0.0,0.0,0.0,0.0,0.0,0.0,0.0,0.0,0.0,0.0,0.0,0.0,0.0,0.0,0.0,0.0,0.0,0.0,0.0,0.0,0.0,0.0,0.0,0.0,0.0,0.0,0.0,0.0,0.0,0.0,0.0,0.0,0.0,0.0,0.0,0.0,0.0,0.0,0.0,0.0,0.0,0.0,0.0,0.0,0.0,0.0,0.0,0.0,0.0,0.0,0.0,0.0,0.0,0.0,0.0,0.0,0.0,0.0,0.0,0.0,0.0,0.0,0.0,0.0,0.0,0.0,0.0,0.0,0.0,0.0,0.0,0.0,0.0,0.0,0.0,0.0,0.0,0.0,0.0,0.0,0.0,0.0,0.0,0.0,0.0,0.0,0.0,0.0,0.0,0.0,0.0,0.0,0.0,-4.0318,-4.048,-4.1517,0.0,-4.3816,-4.3654,-4.4399,-4.3783,-4.2553,-4.061,0.0,0.0,0.0,0.0,0.0,0.0,0.0,0.0,0.0,0.0,0.0,0.0,0.0,0.0,0.0,0.0,0.0,0.0,0.0,0.0,0.0,0.0,0.0,0.0,0.0,0.0,0.0,0.0,0.0,0.0,0.0,0.0,0.0,0.0,0.0,0.0,0.0,0.0,0.0,0.0,0.0,0.0,0.0,0.0,0.0,0.0,0.0,0.0,0.0,0.0,0.0,0.0,0.0,0.0,0.0,0.0,0.0,0.0,0.0,0.0,0.0,0.0,0.0,0.0,0.0,0.0,0.0,0.0,0.0,0.0,0.0,0.0,0.0,0.0,0.0,0.0,0.0,0.0,0.0,0.0,0.0,0.0,0.0,0.0,0.0,0.0,0.0,0.0,0.0,0.0,0.0,0.0,0.0,0.0,0.0,0.0,0.0,0.0,0.0,0.0,0.0,0.0,-4.0318,-4.0513,-4.1322,-4.3492,-4.3039,-4.2877,-4.3654,-4.3007,-4.2004,0.0,0.0,0.0,0.0,0.0,0.0,0.0,0.0,0.0,0.0,0.0,0.0,0.0,0.0,0.0,0.0,0.0,0.0,0.0,0.0,0.0,0.0,0.0,0.0,0.0,0.0,0.0,0.0,0.0,0.0,0.0,0.0,0.0,0.0,0.0,0.0,0.0,0.0,0.0,0.0,0.0,0.0,0.0,0.0,0.0,0.0,0.0,0.0,0.0,0.0,0.0,0.0,0.0,0.0,0.0,0.0,0.0,0.0,0.0,0.0,0.0,0.0,0.0,0.0,0.0,0.0,0.0,0.0,0.0,0.0,0.0,0.0,0.0,0.0,0.0,0.0,0.0,0.0,0.0,0.0,0.0,0.0,0.0,0.0,0.0,0.0,0.0,0.0,0.0,0.0,0.0,0.0,0.0,0.0,0.0,0.0,0.0,0.0,0.0,0.0,0.0,0.0,0.0,-4.0383,-4.0934,-4.1873,-4.3524,-4.3039,-4.2877,-4.3654,-4.3007,-4.2229,-4.1353,0.0,0.0,0.0,0.0,0.0,0.0,0.0,0.0,0.0,0.0,0.0,0.0,0.0,0.0,0.0,0.0,0.0,0.0,0.0,0.0,0.0,0.0,0.0,0.0,0.0,0.0,0.0,0.0,0.0,0.0,0.0,0.0,0.0,0.0,0.0,0.0,0.0,0.0,0.0,0.0,0.0,0.0,0.0,0.0,0.0,0.0,0.0,0.0,0.0,0.0,0.0,0.0,0.0,0.0,0.0,0.0,0.0,0.0,0.0,0.0,0.0,0.0,0.0,0.0,0.0,0.0,0.0,0.0,0.0,0.0,0.0,0.0,0.0,0.0,0.0,0.0,0.0,0.0,0.0,0.0,0.0,0.0,0.0,0.0,0.0,0.0,0.0,0.0,0.0,0.0,0.0,0.0,0.0,0.0,0.0,0.0,0.0,0.0,0.0,0.0,0.0,0.0,-4.0622,-4.1539,-4.258,-4.3685,-4.3621,-4.3557,-4.3686,-4.3394,-4.2713,-4.1677,0.0,0.0,0.0,0.0,0.0,0.0,0.0,0.0,0.0,0.0,0.0,0.0,0.0,0.0,0.0,0.0,0.0,0.0,0.0,0.0,0.0,0.0,0.0,0.0,0.0,0.0,0.0,0.0,0.0,0.0,0.0,0.0,0.0,0.0,0.0,0.0,0.0,0.0,0.0,0.0,0.0,0.0,0.0,0.0,0.0,0.0,0.0,0.0,0.0,0.0,0.0,0.0,0.0,0.0,0.0,0.0,0.0,0.0,0.0,0.0,0.0,0.0,0.0,0.0,0.0,0.0,0.0,0.0,0.0,0.0,0.0,0.0,0.0,0.0,0.0,0.0,0.0,0.0,0.0,0.0,0.0,0.0,0.0,0.0,0.0,0.0,0.0,0.0,0.0,0.0,0.0,0.0,0.0,0.0,0.0,0.0,0.0,0.0,0.0,0.0,0.0,0.0,-4.1082,-4.2241,-4.329,-4.4007,-4.4497,-4.4528,-4.3881,-4.3911,-4.3389,-4.1902,0.0,0.0,0.0,0.0,0.0,0.0,0.0,0.0,0.0,0.0,0.0,0.0,0.0,0.0,0.0,0.0,0.0,0.0,0.0,0.0,0.0,0.0,0.0,0.0,0.0,0.0,0.0,0.0,0.0,0.0,0.0,0.0,0.0,0.0,0.0,0.0,0.0,0.0,0.0,0.0,0.0,0.0,0.0,0.0,0.0,0.0,0.0,0.0,0.0,0.0,0.0,0.0,0.0,0.0,0.0,0.0,0.0,0.0,0.0,0.0,-4.2867,0.0,0.0,0.0,0.0,0.0,0.0,0.0,0.0,0.0,0.0,0.0,0.0,0.0,0.0,0.0,0.0,0.0,0.0,0.0,0.0,0.0,0.0,0.0,0.0,0.0,0.0,0.0,0.0,0.0,0.0,0.0,0.0,0.0,0.0,0.0,0.0,0.0,0.0,0.0,0.0,0.0,-4.2553,-4.335,-4.4039,-4.4788,-4.4854,-4.4788,-4.4789,-4.4333,-4.3844,-4.3519,-4.2413,0.0,0.0,0.0,0.0,0.0,0.0,0.0,0.0,0.0,0.0,0.0,0.0,0.0,0.0,0.0,0.0,0.0,0.0,0.0,0.0,0.0,0.0,0.0,0.0,0.0,0.0,0.0,0.0,0.0,0.0,0.0,0.0,0.0,0.0,0.0,0.0,0.0,0.0,0.0,0.0,0.0,0.0,0.0,0.0,0.0,0.0,0.0,0.0,0.0,0.0,0.0,0.0,0.0,0.0,0.0,0.0,0.0,0.0,0.0,0.0,-4.4436,0.0,0.0,0.0,0.0,0.0,0.0,0.0,0.0,0.0,0.0,0.0,0.0,0.0,0.0,0.0,0.0,0.0,0.0,0.0,0.0,0.0,0.0,0.0,0.0,0.0,0.0,0.0,0.0,0.0,0.0,0.0,0.0,0.0,0.0,0.0,0.0,0.0,0.0,0.0,0.0,-4.3257,-4.4156,-4.5013,-4.5734,-4.5963,-4.5994,-4.5734,-4.5439,-4.4884,-4.4071,-4.332,0.0,0.0,0.0,0.0,0.0,0.0,0.0,0.0,0.0,0.0,0.0,0.0,0.0,0.0,0.0,0.0,0.0,0.0,0.0,0.0,0.0,0.0,0.0,0.0,0.0,0.0,0.0,0.0,0.0,0.0,0.0,0.0,0.0,0.0,0.0,0.0,0.0,0.0,0.0,0.0,0.0,0.0,0.0,0.0,0.0,0.0,0.0,0.0,0.0,0.0,0.0,0.0,0.0,-5.0328,-5.0954,-5.1971,-5.1971,-5.2024,-5.1997,-4.9261,-4.8134,-4.8169,-4.6962,0.0,0.0,0.0,0.0,0.0,0.0,0.0,0.0,0.0,0.0,0.0,0.0,0.0,0.0,0.0,0.0,0.0,0.0,0.0,0.0,0.0,0.0,0.0,0.0,-4.4103,-4.4167,0.0,0.0,0.0,0.0,0.0,0.0,0.0,0.0,0.0,0.0,0.0,0.0,-4.3863,-4.4997,-4.5991,-4.6716,-4.7209,-4.7274,-4.6684,-4.6618,-4.5929,-4.4395,-4.4261,-4.3773,0.0,0.0,0.0,0.0,0.0,0.0,0.0,0.0,0.0,0.0,0.0,0.0,0.0,0.0,0.0,0.0,0.0,0.0,0.0,0.0,0.0,0.0,0.0,0.0,0.0,0.0,0.0,0.0,0.0,0.0,0.0,0.0,-4.1902,-4.1902,0.0,0.0,0.0,0.0,0.0,0.0,0.0,0.0,0.0,0.0,0.0,0.0,0.0,-4.9668,-5.0444,-5.1122,-5.1931,-5.2886,-5.3583,-5.4444,-5.5362,-5.5362,-5.5418,-5.553,-5.4988,0.0,-5.0398,-4.9435,0.0,0.0,0.0,0.0,0.0,0.0,0.0,0.0,0.0,0.0,0.0,0.0,0.0,0.0,0.0,0.0,0.0,0.0,0.0,0.0,0.0,0.0,-4.5206,-4.5881,-4.5594,-4.537,0.0,-4.6041,-4.5654,-4.5133,-4.4599,0.0,0.0,0.0,0.0,0.0,0.0,0.0,-4.5317,-4.6054,-4.6749,-4.7474,-4.7538,-4.7504,-4.7506,-4.6979,-4.6222,-4.5465,-4.4807,-4.4054,-4.3084,-4.3106,0.0,0.0,0.0,0.0,0.0,0.0,0.0,0.0,0.0,0.0,0.0,0.0,0.0,0.0,0.0,0.0,0.0,0.0,0.0,0.0,0.0,0.0,0.0,0.0,0.0,0.0,0.0,0.0,0.0,-4.2603,-4.2802,-4.3227,-4.324,-4.3218,0.0,0.0,0.0,0.0,0.0,0.0,0.0,0.0,0.0,-5.0631,-5.1683,-5.259,-5.3398,-5.4587,-5.5581,-5.639,-5.7199,-5.8045,-5.8886,-5.8886,-5.8915,-5.8973,-5.8879,-5.801,-5.6369,-5.3125,-5.1481,-5.0865,0.0,0.0,0.0,0.0,-4.8258,-4.8198,-4.8963,-4.9301,0.0,-4.9692,0.0,0.0,0.0,0.0,0.0,0.0,0.0,0.0,0.0,0.0,-4.6415,-4.7364,-4.7702,-4.8101,-4.9125,-4.8928,-4.8001,0.0,-4.5518,-4.5218,-4.4887,0.0,0.0,0.0,0.0,-4.5218,-4.6278,-4.6976,-4.7671,-4.8398,-4.843,-4.843,-4.8464,-4.7803,-4.7044,-4.6287,-4.5529,-4.471,-4.3768,-4.3525,-4.3254,0.0,0.0,0.0,0.0,0.0,0.0,0.0,0.0,0.0,0.0,0.0,0.0,0.0,0.0,0.0,0.0,0.0,0.0,0.0,0.0,0.0,0.0,0.0,0.0,0.0,0.0,0.0,0.0,-4.335,-4.3775,-4.4578,-4.4862,-4.5004,0.0,0.0,0.0,0.0,0.0,0.0,-5.0174,-5.1351,-5.2636,-5.4054,-5.5027,-5.5892,-5.6704,-5.8096,-5.9166,-5.9886,-6.0736,-6.1521,-6.2307,-6.2092,-6.1985,-6.1985,-6.1771,-6.1593,-6.1093,-5.6687,-5.4551,-5.3858,-5.1927,-5.1088,-5.0919,-5.0792,-5.0627,-5.0628,-5.1628,-5.2103,-5.2259,-5.2585,0.0,-5.0726,-5.0697,0.0,0.0,0.0,0.0,-4.7546,-4.8207,-4.815,-4.8158,-4.8922,-4.9559,-5.0158,-5.0927,-5.0591,-4.9558,0.0,-4.6609,-4.6344,-4.6344,0.0,0.0,0.0,0.0,-4.6643,-4.7371,-4.81,-4.8763,-4.9326,-4.9392,-4.9326,-4.9127,-4.8597,-4.7836,-4.6813,-4.6087,-4.5265,-4.4352,-4.3751,-4.3449,-4.3449,0.0,0.0,0.0,0.0,0.0,0.0,0.0,0.0,0.0,0.0,0.0,0.0,0.0,0.0,0.0,0.0,0.0,0.0,0.0,0.0,0.0,0.0,0.0,0.0,0.0,0.0,0.0,0.0,0.0,-4.5619,-4.6404,0.0,0.0,0.0,0.0,-4.9043,-5.0566,-5.1815,-5.2697,-5.4848,-5.649,-5.7338,-5.8809,-5.9987,-6.0808,-6.1628,-6.2414,-6.3163,-6.3984,-6.4804,-6.5554,-6.4769,-6.4448,-6.4376,-6.3627,-6.2877,-6.2051,-5.9502,-5.8353,-5.7974,-5.5674,-5.4578,-5.4352,-5.45,-5.4409,-5.4331,-5.4402,-5.4437,-5.4296,-5.3451,-5.3,-5.2723,-5.2614,-5.2161,0.0,0.0,-5.1108,-5.0947,-5.1014,-5.0919,-5.0855,-5.1019,-5.0726,-5.0392,-5.0426,-5.0323,-5.0187,0.0,-4.8862,-4.7901,-4.7901,0.0,-4.6046,-4.6742,-4.7438,-4.8166,-4.8895,-4.9657,-5.0121,-5.0154,-5.0154,-4.9856,-4.916,-4.9094,-4.8431,-4.7007,-4.6212,-4.545,-4.4721,-4.3962,-4.3598,-4.3598,-4.3565,0.0,0.0,0.0,0.0,0.0,0.0,0.0,0.0,0.0,0.0,0.0,0.0,0.0,0.0,0.0,0.0,0.0,0.0,0.0,0.0,0.0,0.0,0.0,0.0,0.0,0.0,0.0,0.0,-4.8675,-4.9531,0.0,-4.9995,-5.0769,-5.1744,-5.3028,-5.4099,-5.5491,-5.7311,-5.8702,-5.9987,-6.1272,-6.2378,-6.3306,-6.4126,-6.4912,-6.5447,-6.5732,-6.6482,-6.7017,-6.7267,-6.6981,-6.6839,-6.6839,-6.6553,-6.6268,-6.5875,-6.4015,-6.2057,-5.9971,-5.8132,-5.7327,-5.7192,-5.6603,-5.6397,-5.6411,-5.6821,-5.7027,-5.6978,-5.5992,-5.5513,-5.5149,-5.4265,-5.3729,-5.3352,-5.2999,-5.2869,-5.2804,-5.2707,-5.2707,-5.291,-5.3245,-5.3073,-5.2765,-5.2559,-5.2051,-5.1612,-5.1612,-5.0419,-4.9425,-4.9425,-4.8995,-4.873,-4.8995,-4.926,-4.9525,-4.979,-5.0452,-5.0916,-5.0916,-5.0916,-5.0783,-5.0518,-4.9657,-4.8895,-4.8365,-4.6709,-4.5682,-4.5417,-4.4257,-4.3598,-4.3598,-4.3598,-4.3466,0.0,0.0,0.0,0.0,0.0,0.0,0.0,0.0,0.0,0.0,0.0,0.0,0.0,0.0,0.0,0.0,0.0,0.0,0.0,0.0,0.0,0.0,0.0,0.0,0.0,0.0,-5.0031,-5.1886,-5.3028,-5.3778,-5.4028,-5.4527,-5.5491,-5.7061,-5.7953,-5.9309,-6.1379,-6.2521,-6.3555,-6.4555,-6.5375,-6.6053,-6.6553,-6.7088,-6.7517,-6.7766,-6.8266,-6.8801,-6.9301,-6.9015,-6.8908,-6.8873,-6.8623,-6.8337,-6.8016,-6.6981,-6.5197,-6.2877,-6.0772,-5.9916,-5.9815,-5.9229,-5.8957,-5.8905,-5.8945,-5.8697,-5.8225,-5.7458,-5.7043,-5.6698,-5.5706,-5.5251,-5.4995,-5.4632,-5.4532,-5.4499,-5.4397,-5.4397,-5.4497,-5.4755,-5.4613,-5.4336,-5.4053,-5.3543,-5.3102,-5.3102,-5.1744,-5.0585,-5.0585,-5.0386,-5.0286,-5.0518,-5.0585,-5.0651,-5.0916,-5.1347,-5.168,-5.168,-5.168,-5.158,-5.1315,-5.0187,-4.9359,-4.9127,-4.7007,-4.5781,-4.5781,-4.439,-4.3598,-4.3598,-4.3598,-4.3598,-4.3598,0.0,0.0,0.0,0.0,0.0,0.0,0.0,0.0,0.0,0.0,0.0,0.0,0.0,0.0,0.0,0.0,0.0,0.0,0.0,0.0,0.0,0.0,0.0,-4.8448,-5.0412,-5.2743,-5.5062,-5.6775,-5.8024,-5.8745,-5.8852,-5.953,-6.1129,-6.1985,-6.3092,-6.4626,-6.6196,-6.7053,-6.7053,-6.7766,-6.8195,-6.8195,-6.8195,-6.8623,-6.941,-6.941,-7.0229,-7.1692,-7.0942,-7.0585,-7.055,-6.9729,-6.8944,-6.8195,-6.8159,-6.7695,-6.6767,-6.3627,-6.2378,-6.2342,-6.2342,-6.2185,-6.1894,-6.0737,-5.9377,-5.8048,-5.7643,-5.7517,-5.7422,-5.7101,-5.6873,-5.6742,-5.6406,-5.6304,-5.6269,-5.6131,-5.5957,-5.5781,-5.5537,-5.518,-5.4815,-5.4597,-5.449,-5.449,-5.449,-5.2804,-5.1415,-5.1382,-5.0783,-5.0551,-5.1249,-5.1348,0.0,-5.231,-5.2409,-5.2409,-5.2409,-5.2409,-5.2111,-5.1415,-5.0651,-4.9922,-4.9193,-4.7073,-4.5814,-4.5814,-4.4456,-4.3664,-4.3664,-4.3664,-4.3664,-4.3664,0.0,0.0,0.0,0.0,0.0,0.0,0.0,0.0,0.0,0.0,0.0,0.0,0.0,0.0,0.0,0.0,0.0,0.0,0.0,0.0,0.0,0.0,-5.3135,-5.1804,-5.4125,-5.6633,-5.8417,-6.0023,-6.1093,-6.1272,-6.2342,-6.3413,-6.4448,-6.5233,-6.6125,-6.7088,-6.8123,-6.8694,-6.8694,-6.9444,-7.0122,-7.0693,-7.0693,-7.1085,-7.1834,-7.1834,-7.2084,-7.2477,-7.2263,-7.2156,-7.212,-7.1371,-7.0907,-7.0621,-6.9444,-6.8873,-6.8409,-6.5839,-6.4483,-6.3912,-6.3306,-6.2906,-6.2592,-6.1955,-6.131,-6.0696,-6.0289,-5.9978,-5.9697,-5.9268,-5.9047,-5.8896,-5.8673,-5.871,-5.8714,-5.8283,-5.8421,-5.8459,-5.762,-5.6896,-5.6216,-5.5459,-5.4854,-5.449,-5.449,-5.403,-5.3467,-5.2904,-5.2672,-5.244,-5.2144,-5.2111,0.0,-5.2376,-5.2409,-5.2409,-5.2409,-5.2409,-5.2343,-5.2111,-5.0916,-5.0121,-4.9922,-4.7835,-4.6609,-4.6609,-4.5682,-4.5185,-4.5185,-4.5185,-4.5185,0.0,0.0,0.0,0.0,0.0,0.0,0.0,0.0,0.0,0.0,0.0,0.0,0.0,0.0,0.0,0.0,0.0,0.0,0.0,0.0,0.0,0.0,-5.4813,-5.7453,-5.8203,-5.9023,-6.0272,-6.2164,-6.3484,-6.4376,-6.4697,-6.5554,-6.641,-6.7231,-6.7695,-6.8302,-6.9051,-6.9551,-6.9979,-7.03,-7.0764,-7.1371,-7.2156,-7.2156,-7.237,-7.2798,-7.2798,-7.2976,-7.3298,-7.3298,-7.3298,-7.3262,-7.2477,-7.1977,-7.1585,-7.0336,-6.9554,0.0,0.0,0.0,0.0,0.0,-6.3654,-6.3044,-6.2404,-6.1848,-6.1253,-6.075,-6.0489,-6.0265,-5.9924,-5.9732,-5.965,-5.9533,-5.9611,-5.9616,-5.9293,-5.936,-5.9393,-5.8797,-5.7981,-5.7199,-5.6614,-5.5951,-5.5421,-5.5421,-5.5421,0.0,-5.446,-5.3831,-5.3268,-5.287,-5.2572,-5.2409,-5.2409,-5.2409,-5.2409,-5.2409,-5.2409,-5.2409,-5.2409,-5.1048,0.0,0.0,0.0,-4.6742,-4.6444,-4.6013,0.0,0.0,0.0,-4.5781,-4.5781,0.0,0.0,0.0,-4.4522,-4.4522,0.0,0.0,0.0,0.0,0.0,0.0,0.0,0.0,0.0,0.0,0.0,0.0,0.0,0.0,0.0,0.0,-5.8631,-6.2021,-6.5804,-6.4626,-6.4055,-6.5982,-6.691,-6.7624,-6.8159,-6.8302,-6.8694,-6.9515,-6.9586,-6.9943,-7.0728,0.0,0.0,0.0,0.0,-7.2191,-7.2941,-7.2941,-7.2976,-7.3048,-7.3048,-7.344,-7.4118,-7.4118,-7.4118,-7.4118,-7.3191,-7.2441,-7.1728,-7.0837,-6.9915,-6.8961,-6.8277,-6.7525,-6.6779,-6.5468,-6.4388,-6.3379,-6.246,0.0,0.0,-6.0194,-5.9962,-5.9923,-5.9728,-5.9689,-5.9689,-5.9689,-5.9689,-5.9689,-5.9689,-5.9531,-5.9378,-5.9212,-5.8522,-5.7873,-5.7707,-5.7144,-5.668,-5.668,-5.668,-5.6481,-5.5852,-5.4593,-5.3632,-5.3566,-5.3003,-5.2638,-5.2638,-5.2539,-5.2506,-5.2506,0.0,0.0,-5.2409,-5.1115,-5.0286,-5.022,-4.8199,-4.6709,-4.6079,-4.6046,-4.6046,-4.6046,-4.6046,-4.6046,-4.6046,-4.6046,-4.6046,-4.6046,-4.5881,-4.5781,0.0,0.0,0.0,0.0,0.0,0.0,0.0,0.0,0.0,0.0,0.0,0.0,0.0,0.0,0.0,-6.0415,-6.3555,-6.6553,-6.9229,-6.9765,-6.9551,-6.873,-6.9337,-6.9622,-6.9122,-6.9658,-7.0371,-7.1192,-7.1228,-7.1549,-7.2334,-7.237,-7.2441,-7.2584,-7.2584,-7.2976,-7.3761,-7.3797,-7.4118,-7.4761,0.0,0.0,-7.4975,-7.4975,-7.4975,-7.4903,-7.344,-7.2656,-7.23,-7.0876,-6.9849,-6.9137,-6.794,-6.6986,-6.6176,-6.5478,-6.4599,-6.3617,-6.2806,-6.2319,-6.1941,-6.1274,-6.1106,-6.1065,-6.082,-6.0812,0.0,-6.0812,-6.0812,-6.0812,-6.0812,-6.0771,-6.0431,-5.9245,-5.884,-5.8369,-5.7144,-5.6779,-5.668,-5.668,-5.668,-5.6647,-5.6514,-5.5752,-5.4953,-5.4394,-5.4195,-5.4096,-5.4096,-5.3566,-5.3202,-5.3202,-5.2705,-5.2409,-5.2409,-5.1578,-5.0817,-5.0253,-4.8696,-4.7736,-4.757,-4.757,-4.757,-4.757,-4.757,-4.757,-4.757,-4.757,-4.757,-4.7537,-4.6344,-4.5781,0.0,0.0,0.0,0.0,0.0,0.0,0.0,0.0,0.0,0.0,0.0,-5.3599,0.0,0.0,-6.1521,-6.4662,-6.7195,-6.9586,-7.1942,-7.262,-7.2405,-7.1192,-7.1085,-7.0942,-7.055,-7.0514,-7.0835,-7.162,-7.1692,-7.2013,-7.2762,-7.2798,-7.2976,-7.3405,-7.3405,-7.3797,-7.4618,-7.4618,-7.4796,-7.5225,-7.5225,-7.5225,-7.5225,-7.5225,-7.4902,-7.4401,-7.319,-7.2299,-7.1584,-7.0091,-6.9122,-6.8527,-6.7683,-6.6899,-6.6143,-6.5289,-6.4297,-6.3237,-6.2552,-6.2116,-6.1864,-6.1417,-6.1252,-6.121,-6.1161,-6.1119,-6.1119,-6.1119,-6.1119,-6.1119,-6.1119,-6.1119,-6.0821,-5.9728,-5.9164,-5.8601,-5.7475,-5.6945,-5.668,-5.668,-5.668,-5.668,-5.668,-5.6382,-5.5918,-5.5152,-5.4721,-5.449,-5.449,-5.4158,-5.3831,-5.3467,-5.3102,-5.2771,-5.2442,-5.1746,-5.0817,-4.9723,-4.8961,-4.8398,-4.8034,-4.8001,-4.8001,-4.8001,-4.8001,-4.8001,-4.8001,-4.8001,-4.8001,-4.7968,-4.7239,-4.6908,0.0,0.0,0.0,0.0,0.0,0.0,0.0,0.0,-5.31,-5.4786,-5.6418,-5.831,-6.0808,-6.3056,-6.5518,-6.8516,-7.0229,-7.1906,-7.3976,-7.4082,-7.3761,-7.3119,-7.237,-7.1834,-7.1692,-7.0978,-7.0835,-7.162,-7.1834,-7.2227,-7.2976,-7.3191,-7.3547,-7.4189,-7.4225,-7.4547,-7.5189,-7.5225,-7.5225,-7.5225,-7.5225,-7.5081,-7.4902,-7.4902,-7.4329,-7.3328,-7.2401,-7.1329,-7.0183,-6.8837,-6.8088,-6.7656,-6.7243,-6.6531,-6.5669,-6.4855,-6.3798,-6.2629,-6.2076,-6.1676,-6.1342,-6.1169,-6.1119,-6.1119,-6.1119,-6.1119,-6.1119,-6.1119,-6.1119,-6.1119,-6.1119,-6.1119,-6.092,-6.0191,-5.9429,-5.8734,-5.8138,-5.7409,-5.6945,-5.7077,-5.7111,-5.7077,-5.6912,-5.6912,-5.6647,-5.5951,-5.5322,-5.4957,-5.4957,-5.4825,-5.4423,-5.3662,-5.35,-5.3135,-5.2475,-5.1746,-5.0783,-4.9591,-4.9392,-4.8995,-4.8233,-4.8233,-4.8166,-4.8001,-4.8001,-4.8001,-4.8001,-4.8001,-4.8001,-4.8001,-4.8001,-4.8001,-4.4906,-4.4999,-4.607,-4.833,-5.0138,-5.1672,0.0,0.0,-5.6525,-5.8774,-6.0522,-6.2556,-6.5625,-6.7552,-6.9444,-7.187,-7.3012,-7.3976,-7.4939,-7.4475,-7.3976,-7.3904,-7.3155,-7.2405,-7.1763,-7.0978,-7.0835,-7.162,-7.2298,-7.3012,-7.3833,-7.4547,-7.4975,-7.5082,-7.5082,-7.5118,-7.5225,-7.5225,-7.5225,-7.5225,-7.5225,-7.4723,-7.3864,-7.3864,-7.3257,-7.2078,-7.0511,-6.9237,-6.8236,-6.7325,-6.6795,-6.65,-6.6062,-6.4943,-6.36,-6.4151,-6.337,-6.2037,-6.1628,-6.1424,-6.1342,-6.1169,-6.1119,-6.1119,-6.1119,-6.1119,-6.1119,-6.1119,-6.1119,-6.1119,-6.1119,-6.1119,-6.092,-6.0191,-5.9429,-5.8866,-5.88,-5.8204,-5.7873,-5.8535,-5.8634,-5.8436,-5.7773,-5.7674,-5.7409,-5.668,-5.6514,-5.6448,-5.6448,-5.5885,-5.5185,-5.4494,-5.3798,-5.3135,-5.2475,-5.1746,-5.1249,-5.1083,-5.0452,-4.9756,-4.9028,-4.8995,-4.8663,-4.8001,-4.8001,-4.8001,-4.8001,-4.8001,-4.8001,-4.8001,-4.8001,-4.8001,-4.4906,-4.5856,0.0,0.0,-5.2243,-5.4848,-5.6355,-5.9059,-6.1736,-6.3627,-6.5268,-6.7053,-6.9301,-7.0621,-7.1799,0.0,-7.419,-7.4654,-7.4547,-7.3833,-7.3155,-7.2727,-7.1549,-7.1014,-7.162,-7.0978,-7.0835,-7.162,-7.1977,-7.2477,-7.3262,-7.3619,-7.4011,-7.4511,-7.4511,-7.4725,-7.5225,-7.4761,-7.4438,-7.4329,-7.3902,-7.3402,-7.2863,-7.2752,-7.1847,-7.0248,-6.8613,-6.7482,-6.6803,-6.633,-6.5664,-6.4993,-6.4807,-6.3694,-6.2342,-6.333,-6.2616,-6.1227,-6.1053,-6.0928,-6.0802,-6.0708,-6.0708,-6.0708,-6.0708,-6.0708,-6.0708,-6.0708,-6.0708,-6.0708,-6.0708,-6.0708,-6.0511,-5.9786,-5.9358,-5.9029,-5.8593,-5.8264,-5.8133,-5.8429,-5.8494,-5.8305,-5.774,-5.7648,-5.7423,-5.6812,-5.668,-5.668,-5.668,-5.6415,-5.5786,-5.4589,-5.35,-5.2705,-5.2407,-5.2144,-5.1779,-5.1348,-5.0982,-5.0518,-4.979,-4.9326,-4.8961,-4.8663,-4.8233,-4.8001,-4.8001,-4.8001,-4.8001,-4.8001,-4.8001,-4.8001,-4.5869,0.0,0.0,-5.1958,-5.5277,-5.856,-6.0558,-6.3234,-6.5768,-6.7588,-6.8694,-6.9729,-7.1121,-7.1799,-7.2441,-7.3226,-7.3869,-7.4118,-7.3726,-7.2798,-7.187,-7.1121,-6.9622,-6.9122,-7.0264,-7.0264,-7.0407,-7.0978,-7.1442,-7.1942,-7.2477,-7.2691,-7.3155,-7.394,-7.3725,-7.4011,-7.4795,-7.3938,-7.3437,-7.3328,-7.2723,-7.2187,-7.168,-7.0982,-6.9871,-6.8364,-6.6956,-6.6119,-6.5757,-6.5448,-6.4838,-6.4096,-6.4006,-6.2986,-6.1687,-6.2486,-6.185,-6.0633,-6.0633,-6.0506,-6.0378,-6.0378,-6.041,-6.0453,-6.041,-6.0378,-6.0345,-6.0378,-6.0378,-6.0378,-6.0378,-6.0378,-6.0247,-5.9722,-5.9428,-5.9198,-5.8862,-5.8632,-5.8567,-5.8763,-5.8796,-5.865,-5.8092,-5.7877,-5.7602,-5.7033,-5.6774,-5.668,-5.668,-5.6514,-5.5918,-5.4659,-5.34,-5.2572,-5.2442,-5.2409,-5.2177,-5.1647,-5.1614,-5.1247,-5.0518,-4.9988,-4.9525,-4.9127,-4.8597,-4.8199,-4.8001,-4.8001,-4.8001,-4.8001,-4.8001,-4.8001,0.0,0.0,-5.3518,-5.6624,-5.9766,-6.2913,-6.6018,-6.6839,-6.7588,-6.9907,-6.9836,-6.9551,-7.0371,-7.055,-7.0835,-7.162,-7.1799,-7.2049,-7.2727,-7.1513,-7.0264,-6.9479,-6.8016,-6.7088,0.0,-6.848,-6.9372,-6.9372,-7.0835,-7.1692,-7.1727,-7.2405,-7.3155,-7.394,-7.3119,-7.3011,-7.3721,-7.2827,-7.2364,-7.2327,-7.2107,-7.1422,-7.0199,-6.8194,-6.6995,-6.644,-6.5721,-6.5325,-6.5111,-6.4531,-6.43,-6.43,-6.4053,-6.3084,-6.1789,-6.1834,-6.1227,-6.042,-6.042,-6.0378,-6.0378,-6.0378,-6.0486,-6.0551,-6.0453,-6.0312,-6.0237,-6.0345,-6.0378,-6.0378,-6.0378,-6.0378,-6.0378,-6.0345,-5.9821,-5.9493,-6.0181,-5.9755,-5.9493,-6.0181,-6.0312,-6.0083,-5.9362,-5.8881,-5.8312,-5.7595,-5.7027,-5.668,-5.668,-5.6084,-5.5317,-5.4556,-5.3831,-5.3102,-5.2475,-5.2409,-5.2409,-5.2376,-5.2376,-5.2045,-5.1315,-5.1249,-5.0551,-4.9127,-4.9094,-4.873,-4.8001,-4.8001,-4.8001,-4.8001,-4.8001,-4.8001,0.0,0.0,-5.666,-5.9273,-6.2699,-6.5804,-6.7374,-6.8944,-7.005,-6.9765,-6.9515,-6.9087,-6.8302,-6.8159,-6.8409,-6.9194,-6.9765,-7.0193,-7.0443,-6.9586,-6.8444,-6.7124,-6.6053,0.0,0.0,0.0,0.0,-6.9265,-7.03,-7.0907,-7.0907,-7.1156,-7.1551,-7.2264,-7.1836,-7.194,-7.2572,-7.1609,-7.0998,-7.0661,-6.9524,-6.8555,-6.7837,-6.6686,-6.5898,-6.5415,-6.4433,-6.4132,-6.43,-6.3107,-6.2964,-6.3288,-6.2288,-6.1562,-6.1077,-6.0591,-6.0193,-5.9935,-5.9935,-5.9935,-5.9935,-5.9935,-5.9935,-6.0011,-5.9935,-5.9903,-5.987,-5.9903,-5.9935,-5.9935,-5.9935,-5.9935,-5.9935,-5.9935,-5.974,-5.961,-5.987,-5.974,-5.9643,-5.987,-5.9935,-5.9751,-5.9206,-5.854,-5.7781,-5.6763,-5.6651,-5.668,-5.668,-5.6084,-5.5483,-5.5251,-5.4125,-5.3334,-5.3069,-5.2638,-5.2409,-5.2409,-5.2409,-5.231,-5.2045,-5.158,-5.1083,-5.0551,-4.9591,-4.8995,-4.873,-4.8233,-4.8001,-4.8001,-4.8001,-4.8001,0.0,-5.6882,-6.0665,-6.302,-6.5946,-6.8444,-6.9194,-6.9907,-7.005,-6.8663,-6.7489,-6.6242,-6.4642,-6.4322,-6.4571,-6.5419,-6.6667,-6.7772,-6.8409,-6.8016,-6.7231,-6.5946,-6.509,0.0,0.0,0.0,0.0,-6.8837,-6.9804,-7.0375,-7.0375,-7.0306,-7.0557,-7.1161,-7.066,-7.0578,-7.1087,-7.005,-6.9246,-6.8739,-6.7612,-6.6753,-6.6201,-6.5625,-6.5135,-6.4695,-6.363,-6.3483,-6.3894,-6.2404,-6.2242,-6.2761,-6.1595,-6.1012,-6.072,-6.0267,-5.9943,-5.9716,-5.9716,-5.9716,-5.9716,-5.9716,-5.9716,-5.9716,-5.9716,-5.9716,-5.9716,-5.9716,-5.9716,-5.9716,-5.9716,-5.9716,-5.9716,-5.9716,-5.9716,-5.9716,-5.9716,-5.9716,-5.9716,-5.9716,-5.9716,-5.9631,-5.9307,-5.8525,-5.7575,-5.6603,-5.6455,-5.6486,-5.6564,-5.6244,-5.5918,-5.5615,-5.449,-5.3699,-5.3434,-5.2771,-5.2409,-5.2409,-5.2409,-5.2409,-5.2409,-5.1945,-5.158,-5.1315,-5.0121,-4.9359,-4.9094,-4.8365,-4.8001,-4.8001,-4.8001,-4.8001,-5.7088,-6.1307,-6.534,-6.7659,-6.9372,-7.0693,-7.1371,-6.9658,-6.7626,-6.6571,-6.3907,-6.128,0.0,0.0,-5.9526,-6.0493,-6.2626,-6.4757,-6.6556,-6.6874,-6.666,0.0,0.0,0.0,0.0,0.0,0.0,-6.8054,0.0,-7.0167,-7.0167,-6.9991,-7.0131,-7.0691,-6.958,-6.9056,-6.9362,-6.8194,-6.725,-6.6627,-6.6415,-6.5975,-6.5336,-6.4885,-6.4485,-6.4189,-6.3242,-6.3246,-6.3797,-6.2307,-6.2145,-6.2761,-6.1983,-6.1336,-6.0785,-6.0753,-6.0299,-5.9716,-5.9716,-5.9716,-5.9716,-5.9716,-5.9716,-5.9716,-5.9716,-5.9716,-5.9716,-5.9716,-5.9716,-5.9716,-5.9716,-5.9716,-5.9716,-5.9716,-5.9716,-5.9716,-5.9716,-5.9716,-5.9716,-5.9716,-5.9716,-5.9716,-5.9652,-5.869,-5.7729,-5.7151,-5.6545,-5.6198,-5.6362,-5.6525,-5.6376,-5.5714,-5.4953,-5.4192,-5.3496,-5.2804,-5.2373,-5.2373,-5.2373,-5.2409,-5.2409,-5.2373,-5.2042,-5.1347,-5.0618,-4.9888,-4.9127,-4.8431,-4.8034,-4.8001,-4.8001,-4.8001,-6.1807,-6.4947,-6.7624,-6.9444,-7.0193,-7.023,-6.9096,-6.7031,-6.4579,-6.1898,-5.9313,-5.6872,0.0,0.0,0.0,-5.7043,-5.9296,0.0,-6.3863,-6.5148,0.0,0.0,0.0,-6.6018,-6.623,-6.6908,0.0,0.0,-6.9459,-6.9991,-6.9991,-6.9778,-6.9631,-6.9475,-6.8509,-6.7959,-6.7721,-6.6728,-6.6062,-6.5746,-6.5348,-6.4943,-6.4577,-6.4319,-6.384,-6.321,-6.245,-6.221,-6.2275,-6.0818,-6.0979,-6.1951,-6.072,-6.0461,-6.072,-6.0202,-5.9878,-5.9716,-5.9716,-5.9716,-5.9716,-5.9716,-5.9716,-5.9716,-5.9716,-5.9716,-5.9716,-5.9716,-5.9716,-5.9716,-5.9716,-5.9716,-5.9716,-5.9716,-5.9716,-5.9716,-5.9716,-5.9716,-5.9716,-5.9716,-5.9716,-5.9555,-5.8961,-5.8659,-5.802,-5.6839,-5.6645,-5.6515,-5.6231,-5.6244,-5.6179,-5.5982,-5.4832,-5.3977,-5.378,-5.2811,-5.2158,-5.2158,-5.2302,-5.2409,-5.2409,-5.223,-5.2092,-5.1894,-5.1168,-5.0443,-4.9684,-4.9126,-4.8531,-4.8001,-4.8001,-4.8001,-6.5161,-6.7624,-6.9517,-7.1017,-7.066,-6.9344,-6.722,-6.4415,-6.133,-5.8025,-5.5462,0.0,0.0,0.0,0.0,0.0,0.0,0.0,-6.2253,-6.4241,-6.5521,0.0,-6.6484,0.0,-6.7442,-6.7693,-6.8152,0.0,-6.9242,-6.9489,-6.9489,-6.9048,-6.8632,-6.8323,-6.7535,-6.6837,-6.6235,-6.5581,-6.5168,-6.4897,-6.4656,-6.4426,-6.4146,-6.4038,-6.3603,-6.2858,0.0,-6.1821,-6.1692,-6.0299,-6.0364,-6.1239,-6.0137,-5.9976,-6.0267,-5.9878,-5.9716,-5.9716,-5.9716,-5.9716,-5.9716,-5.9716,-5.9716,-5.9716,-5.9716,-5.9716,-5.9716,-5.9716,-5.9716,-5.9716,-5.9716,-5.9716,-5.9716,-5.9716,-5.9716,-5.9716,-5.9716,-5.9716,-5.9716,-5.9716,-5.9716,-5.9587,-5.9122,-5.8799,-5.8216,-5.7126,-5.6797,-5.6466,-5.5871,-5.5966,-5.6086,-5.6086,-5.507,-5.4251,-5.3924,-5.2988,-5.2269,-5.201,-5.2086,-5.2158,-5.2158,-5.2013,-5.1977,-5.1977,-5.1254,-5.053,-4.9774,-4.9255,-4.8563,-4.7869,-4.7968,-4.8001,-6.77,-6.959,-7.1017,-7.2122,-7.0557,-6.8035,-6.528,-6.1565,-5.7748,-5.443,0.0,-4.9758,-4.8259,0.0,-5.0694,-5.1739,0.0,-5.8512,-6.0968,-6.3409,-6.5284,-6.6275,-6.7127,-6.794,-6.8823,-6.8502,-6.842,-6.8863,-6.8784,-6.8746,-6.8784,-6.7975,-6.7414,-6.7078,-6.6491,-6.5757,-6.4976,-6.4702,-6.4518,-6.4286,-6.4286,-6.4146,-6.4024,-6.4024,-6.3538,-6.2696,-6.2081,0.0,-6.1433,-6.0202,-6.0073,-6.0591,-5.9976,-5.9716,-5.9716,-5.9716,-5.9716,-5.9716,-5.9716,-5.9716,-5.9716,-5.9716,-5.9716,-5.9716,-5.9716,-5.9716,-5.9716,-5.9716,-5.9716,-5.9716,-5.9716,-5.9716,-5.9716,-5.9716,-5.9716,-5.9716,-5.9716,-5.9716,-5.9716,-5.9716,-5.9716,-5.9716,-5.9716,-5.9155,-5.8518,-5.7709,-5.7029,-5.6349,-5.5539,-5.5766,-5.6006,-5.6006,-5.5352,-5.4632,-5.388,-5.316,-5.2478,-5.179,-5.1794,-5.1794,-5.1794,-5.1794,-5.1758,-5.1758,-5.1136,-5.0383,-4.9564,-4.9115,-4.8494,-4.7671,-4.7869,-4.7935,-7.0062,-7.1267,-7.1906,-7.1479,-6.9141,-6.5953,-6.211,-5.7675,0.0,0.0,0.0,-4.6463,-4.5521,-4.7212,0.0,-4.9853,0.0,0.0,0.0,0.0,-6.3952,0.0,0.0,0.0,0.0,0.0,0.0,0.0,0.0,-6.7495,-6.7656,-6.7168,-6.6457,-6.5415,-6.5135,-6.4748,-6.4179,-6.4132,-6.4085,-6.4038,-6.4038,-6.4038,-6.4024,-6.4024,-6.3279,-6.1983,-6.1854,0.0,-6.0073,-5.9814,-5.9781,-5.9878,-5.9749,-5.9716,-5.9716,-5.9716,-5.9716,-5.9716,-5.9716,-5.9716,-5.9716,-5.9716,-5.9716,-5.9716,-5.9716,-5.9716,-5.9716,-5.9716,-5.9716,-5.9716,-5.9716,-5.9716,-5.9716,-5.9716,-5.9716,-5.9716,-5.9716,-5.9716,-5.9716,-5.9716,-5.9716,-5.9716,-5.9716,-5.9619,-5.9069,-5.7773,-5.7524,-5.6899,-5.5571,-5.545,-5.5491,-5.5491,-5.4915,-5.4233,-5.3448,-5.2856,-5.2253,-5.1569,-5.1721,-5.1794,-5.1794,-5.1647,-5.1536,-5.1536,-5.1406,-5.0688,-4.9352,-4.9433,-4.8817,-4.7537,-4.7571,-4.7637,-7.0451,-7.1088,-7.0841,-6.9954,-6.7057,-6.3357,-5.9253,0.0,0.0,0.0,0.0,-4.5057,-4.4749,0.0,0.0,0.0,0.0,0.0,0.0,0.0,0.0,0.0,0.0,0.0,0.0,0.0,0.0,0.0,0.0,-6.666,-6.6878,-6.6235,-6.5492,-6.4669,-6.4531,-6.4333,-6.4024,-6.4024,-6.4024,-6.4024,-6.4024,-6.4024,-6.3991,-6.3603,-6.2825,-6.1821,-6.1821,0.0,-5.9749,-6.0105,-6.0073,-5.9716,-5.9716,-5.9716,-5.9716,-5.9716,-5.9716,-5.9716,-5.9716,-5.9716,-5.9716,-5.9716,-5.9716,-5.9716,-5.9716,-5.9716,-5.9716,-5.9716,-5.9716,-5.9716,-5.9716,-5.9716,-5.9716,-5.9716,-5.9716,-5.9716,-5.9716,-5.9716,-5.9716,-5.9716,-5.9716,-5.9716,-5.9716,-5.9716,-5.936,-5.8292,-5.7806,-5.7191,-5.6122,-5.5636,-5.5409,-5.5409,-5.4794,-5.4114,-5.333,-5.2702,-5.2064,-5.1382,-5.1462,-5.1499,-5.1499,-5.1424,-5.135,-5.135,-5.135,-5.083,-4.9722,-4.9548,-4.8903,-4.7858,-4.76,-4.7537,-6.9635,-6.9917,-6.9175,-6.8327,-6.4951,-6.0817,-5.6768,-5.2183,0.0,0.0,-4.4738,-4.4272,-4.4371,0.0,0.0,0.0,0.0,0.0,0.0,0.0,0.0,0.0,0.0,0.0,0.0,0.0,0.0,0.0,0.0,0.0,-6.5932,-6.5258,-6.4656,-6.424,-6.424,-6.4179,-6.4024,-6.4024,-6.4024,-6.4024,-6.4024,-6.3926,-6.3732,-6.3149,-6.2404,-6.1595,-6.1595,0.0,0.0,-6.0332,-6.0235,-5.9716,-5.9716,-5.9716,-5.9716,-5.9716,-5.9716,-5.9716,-5.9716,-5.9716,-5.9716,-5.9716,-5.9716,-5.9716,-5.9716,-5.9716,-5.9716,-5.9716,-5.9716,-5.9716,-5.9716,-5.9716,-5.9716,-5.9716,-5.9716,-5.9716,-5.9716,-5.9716,-5.9716,-5.9716,-5.9716,-5.9716,-5.9716,-5.9716,-5.9425,-5.8508,-5.7935,-5.7297,-5.6381,-5.5766,-5.5409,-5.5409,-5.4924,-5.4276,-5.3362,-5.2786,-5.2074,-5.1232,-5.1199,-5.1199,-5.1199,-5.1199,-5.1199,-5.1199,-5.1199,-5.0843,-5.0098,-4.9693,-4.9017,-4.8139,-4.7791,-4.7566,-6.7753,-6.8027,-6.7634,-6.6867,-6.3241,-5.8851,-5.5018,0.0,0.0,0.0,-4.3469,-4.3335,-4.336,-4.5295,0.0,0.0,0.0,0.0,0.0,0.0,0.0,0.0,0.0,0.0,0.0,0.0,0.0,0.0,0.0,0.0,-6.4485,-6.4272,-6.4118,-6.3991,-6.3991,-6.4024,-6.4024,-6.4024,-6.4024,-6.4024,-6.4024,-6.3667,-6.2987,-6.2923,-6.2145,-6.0882,-6.0882,0.0,0.0,-5.9781,-5.9781,-5.9716,-5.9716,-5.9716,-5.9716,-5.9716,-5.9716,-5.9716,-5.9716,-5.9716,-5.9716,-5.9716,-5.9716,-5.9716,-5.9716,-5.9716,-5.9716,-5.9716,-5.9716,-5.9716,-5.9716,-5.9716,-5.9716,-5.9716,-5.9716,-5.9716,-5.9716,-5.9716,-5.9716,-5.9716,-5.9716,-5.9716,-5.9716,-5.9716,-5.9263,-5.7871,-5.7654,-5.7061,-5.5701,-5.5442,-5.5409,-5.5409,-5.5345,-5.4762,-5.3395,-5.3272,-5.2624,-5.1264,-5.1199,-5.1199,-5.1199,-5.1199,-5.1199,-5.1199,-5.1199,-5.0843,-5.0098,-5.0034,-4.9321,-4.8029,-4.7964,-4.7679,-6.488,-6.5924,-6.5818,-6.4146,-6.0909,-5.6984,-5.2676,0.0,0.0,-4.2936,-4.2911,-4.3207,-4.3207,-4.5122,-4.6669,0.0,0.0,0.0,0.0,0.0,0.0,0.0,0.0,0.0,0.0,0.0,0.0,0.0,0.0,0.0,-6.4132,-6.4038,-6.4024,-6.4024,-6.4024,-6.4024,-6.4024,-6.4024,-6.4024,-6.4024,-6.4024,-6.3862,-6.3538,-6.2631,-6.1919,-6.1368,-6.0979,0.0,0.0,-6.017,-6.0105,-5.9716,-5.9716,-5.9716,-5.9716,-5.9716,-5.9716,-5.9716,-5.9716,-5.9716,-5.9716,-5.9716,-5.9425,-5.909,-5.9587,-5.9716,-5.9716,-5.9716,-5.9716,-5.9716,-5.9716,-5.9716,-5.9716,-5.9716,-5.9716,-5.9716,-5.9716,-5.9716,-5.9716,-5.9716,-5.9716,-5.9716,-5.9716,-5.9317,-5.8874,-5.8292,-5.7482,-5.6705,-5.6154,-5.5668,-5.5409,-5.5409,-5.5053,-5.4567,-5.4017,-5.3175,-5.2398,-5.1847,-5.1394,-5.1199,-5.1199,-5.1199,-5.1199,-5.1199,-5.1199,-5.1038,-5.0746,-5.0325,-4.9807,-4.9256,-4.8835,-4.8288,-6.1118,-6.2579,-6.2717,-6.112,-5.8312,-5.4922,0.0,0.0,0.0,-4.262,-4.2792,-4.3276,-4.3483,-4.4975,-4.619,0.0,0.0,0.0,0.0,0.0,0.0,0.0,0.0,0.0,0.0,0.0,0.0,0.0,0.0,0.0,0.0,-6.4024,-6.4024,-6.4024,-6.4024,-6.4024,-6.4024,-6.4024,-6.4024,-6.4024,-6.4024,-6.3797,-6.3311,-6.2275,-6.1595,-6.1174,-6.0688,0.0,0.0,-6.0267,-6.017,-5.9716,-5.9716,-5.9716,-5.9716,-5.9716,-5.9716,-5.9716,-5.9716,-5.9716,-5.9684,-5.9457,-5.8993,-5.8637,-5.9004,-5.9231,-5.9393,-5.9393,-5.9555,-5.9716,-5.9716,-5.9716,-5.9716,-5.9716,-5.9716,-5.9716,-5.9716,-5.9716,-5.9716,-5.9716,-5.9716,-5.9652,-5.9381,-5.8928,-5.8443,-5.8022,-5.7126,-5.6413,-5.6187,-5.5733,-5.5409,-5.5409,-5.4988,-5.4632,-5.4405,-5.3434,-5.2657,-5.2236,-5.175,-5.1394,-5.1199,-5.1199,-5.1199,-5.1199,-5.1199,-5.1199,-5.1199,-5.0681,-5.0325,-5.0098,-4.958,-4.8965,-5.627,-5.7524,-5.7978,-5.7943,-5.5667,-5.2632,0.0,0.0,0.0,-4.3345,-4.3172,-4.3414,-4.4138,-4.4801,-4.5203,-4.5203,-4.536,0.0,0.0,0.0,0.0,0.0,0.0,0.0,0.0,0.0,0.0,0.0,0.0,0.0,0.0,-6.4024,-6.4024,-6.4024,-6.4024,-6.4024,-6.4024,-6.4024,-6.4024,-6.4024,-6.4024,-6.3246,-6.1821,-6.1821,-6.1044,0.0,0.0,0.0,0.0,-5.9716,-5.9716,-5.9716,-5.9716,-5.9716,-5.9716,-5.9716,-5.9716,-5.9716,-5.9716,-5.9716,-5.9587,-5.8831,-5.8605,-5.8475,-5.7806,-5.8097,-5.8605,-5.8605,-5.9122,-5.9716,-5.9716,-5.9716,-5.9716,-5.9716,-5.9716,-5.9716,-5.9716,-5.9716,-5.9716,-5.9716,-5.9716,-5.949,-5.8734,-5.8605,-5.8119,-5.6737,-5.651,-5.6251,-5.5539,-5.5409,-5.5409,-5.5409,-5.5409,-5.5118,-5.447,-5.4405,-5.3758,-5.23,-5.2203,-5.1879,-5.1199,-5.1199,-5.1199,-5.1199,-5.1199,-5.1199,-5.1199,-5.1167,-5.0811,-5.0098,-5.0098,-4.971,-5.29,-5.425,-5.4701,-5.4149,-5.2528,-5.0287,-4.7189,0.0,-4.3345,-4.2551,-4.2718,-4.3228,-4.4019,-4.4448,-4.4742,-4.4742,-4.4961,0.0,0.0,0.0,0.0,0.0,0.0,0.0,0.0,0.0,0.0,0.0,0.0,0.0,0.0,-6.4024,-6.4024,-6.4024,-6.4024,-6.4024,-6.4024,-6.4024,-6.4024,-6.4024,-6.3505,-6.2987,-6.2502,-6.1562,-6.0882,0.0,0.0,0.0,0.0,-5.9716,-5.9716,-5.9716,-5.9716,-5.9716,-5.9716,-5.9716,-5.9349,-5.8928,-5.8928,-5.8648,-5.8227,-5.7968,-5.7579,-5.7126,-5.6899,-5.7352,-5.8,-5.8443,-5.9122,-5.9716,-5.9716,-5.9716,-5.9716,-5.9716,-5.9716,-5.9716,-5.9716,-5.9716,-5.9716,-5.9716,-5.9716,-5.949,-5.8702,-5.8227,-5.7579,-5.664,-5.6089,-5.5668,-5.5442,-5.5409,-5.5409,-5.5409,-5.5409,-5.5312,-5.5118,-5.4665,-5.3984,-5.3013,-5.2495,-5.1879,-5.1199,-5.1199,-5.1199,-5.1199,-5.1199,-5.1199,-5.1199,-5.1199,-5.107,-5.0843,-5.0325,-4.9969,0.0,-5.0223,-5.07,-5.0218,-4.9154,0.0,0.0,0.0,-4.2595,-4.2029,-4.2421,-4.3049,-4.3776,-4.415,-4.435,-4.435,-4.4319,0.0,0.0,0.0,0.0,0.0,0.0,0.0,0.0,0.0,0.0,0.0,0.0,0.0,0.0,-6.3732,-6.3603,-6.3603,-6.3603,-6.3441,-6.3182,-6.3182,-6.3182,-6.3182,-6.2696,-6.234,-6.2081,-6.1206,-6.0656,0.0,0.0,0.0,0.0,-5.9425,-5.9252,-5.9252,-5.9004,-5.8907,-5.8907,-5.8907,-5.8615,-5.8227,-5.8227,-5.7935,-5.7557,-5.7297,-5.6672,-5.6089,-5.6089,-5.6608,-5.7385,-5.8313,-5.8928,-5.9317,-5.9652,-5.9716,-5.9716,-5.9716,-5.9716,-5.9716,-5.9716,-5.9716,-5.9716,-5.9716,-5.9716,-5.9393,-5.8389,-5.7871,-5.7255,-5.6251,-5.5701,-5.5409,-5.5409,-5.5409,-5.5409,-5.5409,-5.5409,-5.5409,-5.5409,-5.5021,-5.447,-5.3758,-5.3013,-5.23,-5.1588,-5.1329,-5.1199,-5.1199,-5.1199,-5.1199,-5.1199,-5.1199,-5.1199,-5.1167,-5.0714,-5.0519,0.0,0.0,0.0,0.0,0.0,0.0,0.0,0.0,0.0,-4.1837,-4.227,-4.2867,-4.3457,-4.3816,-4.4039,-4.4039,0.0,0.0,0.0,0.0,0.0,0.0,0.0,0.0,0.0,0.0,0.0,0.0,0.0,0.0,0.0,-6.3182,-6.2793,-6.2728,-6.2728,-6.2437,-6.1821,-6.1821,-6.1821,-6.1821,-6.1757,-6.14,-6.0785,-6.0688,-6.0299,0.0,0.0,0.0,0.0,-5.8863,-5.8572,-5.8443,-5.7838,-5.7621,-5.7621,-5.7621,-5.7589,-5.7524,-5.7524,-5.7524,-5.732,-5.664,-5.596,-5.5409,-5.5409,-5.5928,-5.677,-5.8054,-5.8508,-5.8734,-5.9414,-5.9684,-5.9716,-5.9716,-5.9684,-5.9652,-5.9716,-5.9684,-5.9652,-5.9716,-5.9684,-5.9198,-5.7806,-5.7589,-5.7029,-5.5636,-5.5409,-5.5409,-5.5409,-5.5409,-5.5409,-5.5409,-5.5409,-5.5409,-5.5409,-5.5409,-5.5118,-5.4438,-5.3725,-5.2981,-5.2236,-5.1556,-5.1199,-5.1199,-5.1199,-5.1199,-5.1199,-5.1199,-5.1199,-5.1199,-5.1199,-5.1199,-4.1802,0.0,-4.4,-4.4,0.0,0.0,0.0,0.0,0.0,0.0,0.0,0.0,0.0,0.0,0.0,0.0,0.0,0.0,0.0,0.0,0.0,0.0,0.0,0.0,0.0,0.0,0.0,0.0,0.0,0.0,0.0,-6.2145,-6.1821,-6.1303,-6.1271,-6.1465,-6.1821,-6.1782,-6.1782,-6.1789,-6.1291,-6.0967,-6.0753,-5.9652,-5.936,0.0,0.0,0.0,-5.8831,-5.8669,-5.8324,-5.7806,-5.7644,-5.7621,-5.7621,-5.7621,-5.7223,-5.6737,-5.6737,-5.6381,-5.5895,-5.5733,-5.5539,-5.5409,-5.5409,-5.5928,-5.6575,-5.6899,-5.7806,-5.8637,-5.8799,-5.9295,-5.9716,-5.9716,-5.9252,-5.8993,-5.9587,-5.9252,-5.9025,-5.9619,-5.9219,-5.8615,-5.7741,-5.7126,-5.6446,-5.5539,-5.5409,-5.5409,-5.5409,-5.5409,-5.5409,-5.5409,-5.5409,-5.5409,-5.5409,-5.5409,-5.5118,-5.4438,-5.3725,-5.2981,-5.2236,-5.1556,-5.1199,-5.1199,-5.1199,-5.1199,-5.1199,-5.1199,-5.1199,-5.1199,-5.1199,-5.1199,-4.0871,-4.1516,-4.2137,-4.2137,-4.2088,-4.1936,0.0,0.0,0.0,0.0,0.0,0.0,0.0,0.0,0.0,0.0,0.0,0.0,0.0,0.0,0.0,0.0,0.0,0.0,0.0,0.0,0.0,0.0,0.0,0.0,-6.1821,-6.153,-6.1174,-6.0818,-6.0137,-6.0137,-6.085,-6.0857,-6.0857,-6.085,-6.0126,-5.9802,-5.9749,-5.8648,-5.8356,0.0,0.0,0.0,-5.813,-5.7806,-5.7417,-5.7061,-5.6705,-5.6575,-5.6575,-5.6575,-5.6349,-5.5992,-5.5992,-5.5733,-5.5409,-5.5409,-5.5409,-5.5409,-5.5409,-5.5701,-5.6057,-5.6413,-5.7061,-5.7741,-5.8065,-5.8453,-5.8745,-5.8745,-5.8421,-5.8259,-5.8648,-5.8421,-5.8259,-5.8648,-5.8421,-5.7935,-5.7223,-5.6737,-5.6251,-5.5539,-5.5409,-5.5409,-5.5409,-5.5409,-5.5409,-5.5409,-5.5409,-5.5409,-5.5409,-5.5409,-5.5247,-5.4891,-5.4211,-5.3466,-5.2754,-5.2041,-5.1491,-5.1237,-5.1199,-5.1199,-5.1199,-5.1199,-5.1199,-5.1199,-5.1199,-5.1199,-4.0823,-4.0823,-4.0799,-4.0847,-4.0752,-4.069,0.0,0.0,0.0,0.0,0.0,0.0,0.0,0.0,0.0,0.0,0.0,0.0,0.0,0.0,0.0,0.0,0.0,0.0,0.0,0.0,0.0,0.0,0.0,0.0,-6.1498,-6.085,-6.0461,-6.0461,-5.9166,-5.8777,-5.9393,-5.9381,-5.9381,-5.9393,-5.8745,-5.8453,-5.841,-5.7741,-5.7524,-5.7579,0.0,0.0,-5.7352,-5.6737,-5.6413,-5.6284,-5.5668,-5.5409,-5.5409,-5.5409,-5.5409,-5.5409,-5.5409,-5.5409,-5.5409,-5.5409,-5.5409,-5.5409,-5.5409,-5.5409,-5.5539,-5.6154,-5.6413,-5.664,-5.7255,-5.7524,-5.7621,-5.7621,-5.7482,-5.7492,-5.7589,-5.7524,-5.7492,-5.7589,-5.7524,-5.7223,-5.6608,-5.6413,-5.6122,-5.5507,-5.5409,-5.5409,-5.5409,-5.5409,-5.5409,-5.5409,-5.5409,-5.5409,-5.5409,-5.5409,-5.5409,-5.5409,-5.4762,-5.4017,-5.3175,-5.243,-5.1782,-5.1199,-5.1199,-5.1199,-5.1199,-5.1199,-5.1199,-5.1199,-5.1199,-5.1199,-4.068,-4.0558,-4.0436,-4.0655,-4.0631,-4.0534,-4.0534,0.0,0.0,0.0,0.0,0.0,0.0,0.0,0.0,0.0,0.0,0.0,0.0,0.0,0.0,0.0,0.0,0.0,0.0,0.0,0.0,0.0,0.0,0.0,-6.004,-5.9317,-5.8928,-5.8928,-5.8162,-5.7806,-5.7903,-5.7904,-5.7904,-5.7903,-5.7803,-5.7771,-5.7709,-5.6996,-5.6996,-5.7589,0.0,-5.6672,-5.664,-5.6543,-5.6122,-5.5571,-5.5442,-5.5409,-5.5409,-5.5409,-5.5409,-5.5409,-5.5409,-5.5409,-5.5409,-5.5409,-5.5409,-5.5409,-5.5409,-5.5409,-5.5442,-5.5539,-5.6025,-5.651,-5.664,-5.7126,-5.7621,-5.7621,-5.7093,-5.6834,-5.7492,-5.7093,-5.6834,-5.7492,-5.7093,-5.6608,-5.651,-5.5992,-5.5539,-5.5442,-5.5409,-5.5409,-5.5409,-5.5409,-5.5409,-5.5409,-5.5409,-5.5409,-5.5409,-5.5409,-5.5409,-5.5409,-5.4762,-5.379,-5.243,-5.1718,-5.1297,-5.1199,-5.1199,-5.1199,-5.1199,-5.1199,-5.1199,-5.1199,-5.1199,-5.1199,-4.0436,-4.0238,-4.0011,-4.0138,-4.0383,-4.0637,-4.0637,0.0,0.0,0.0,0.0,0.0,0.0,0.0,0.0,0.0,0.0,0.0,0.0,0.0,0.0,0.0,0.0,0.0,0.0,0.0,0.0,0.0,0.0,0.0,-5.8583,-5.8227,-5.8065,-5.8065,-5.7352,-5.7029,-5.7019,-5.6621,-5.6825,-5.7621,-5.721,-5.7015,-5.6964,-5.6251,-5.6089,-5.6381,0.0,-5.5928,-5.5928,-5.5928,-5.5701,-5.5409,-5.5409,-5.5409,-5.5409,-5.5409,-5.5409,-5.5409,-5.5409,-5.5409,-5.5409,-5.5409,-5.5409,-5.5409,-5.5409,-5.5409,-5.5409,-5.5409,-5.5668,-5.5928,-5.5928,-5.6154,-5.6413,-5.6413,-5.6154,-5.5992,-5.6349,-5.6154,-5.6025,-5.6349,-5.6154,-5.5928,-5.5928,-5.5636,-5.5409,-5.5409,-5.5409,-5.5409,-5.5409,-5.5409,-5.5409,-5.5409,-5.5409,-5.5409,-5.5409,-5.5409,-5.5409,-5.5409,-5.4762,-5.392,-5.2851,-5.2106,-5.1556,-5.1237,-5.1199,-5.1199,-5.1199,-5.1199,-5.1199,-5.1199,-5.1199,-5.1199,-4.0113,-3.9858,-3.9547,-3.9547,0.0,-4.0608,-4.0608,0.0,0.0,0.0,0.0,0.0,0.0,0.0,0.0,0.0,0.0,0.0,0.0,0.0,0.0,0.0,0.0,0.0,0.0,0.0,0.0,0.0,0.0,0.0,-5.7654,-5.7417,-5.732,-5.732,-5.6608,-5.6242,-5.6224,-5.5692,-5.596,-5.7061,-5.651,-5.6251,-5.6219,-5.5668,-5.5409,-5.5409,-5.5409,-5.5409,-5.5409,-5.5409,-5.5409,-5.5409,-5.5409,-5.5409,-5.5409,-5.5409,-5.5409,-5.5409,-5.5409,-5.5409,-5.5409,-5.5409,-5.5409,-5.5409,-5.5409,-5.5409,-5.5409,-5.5409,-5.5409,-5.5409,-5.5409,-5.5409,-5.5409,-5.5409,-5.5409,-5.5409,-5.5409,-5.5409,-5.5409,-5.5409,-5.5409,-5.5409,-5.5409,-5.5409,-5.5409,-5.5409,-5.5409,-5.5409,-5.5409,-5.5409,-5.5409,-5.5409,-5.5409,-5.5409,-5.5409,-5.5409,-5.5409,-5.5409,-5.4762,-5.4146,-5.3596,-5.2689,-5.1944,-5.1426,-5.1264,-5.1199,-5.1199,-5.1199,-5.1199,-5.1199,-5.1199,-5.1199,-3.9703,-3.9415,-3.9067,-3.9067,-3.9704,0.0,-4.0343,-4.1152,0.0,0.0,0.0,0.0,0.0,0.0,0.0,0.0,0.0,0.0,0.0,0.0,0.0,0.0,0.0,0.0,0.0,0.0,0.0,0.0,0.0,0.0,-5.7621,-5.6931,-5.6575,-5.6575,-5.5863,-5.5507,-5.5466,-5.5442,-5.5474,-5.5571,-5.5507,-5.5507,-5.5507,-5.5442,-5.5409,-5.5409,-5.5409,-5.5409,-5.5409,-5.5409,-5.5409,-5.5409,-5.5409,-5.5409,-5.5409,-5.5409,-5.5409,-5.5409,-5.5409,-5.5409,-5.5409,-5.5409,-5.5409,-5.5409,-5.5409,-5.5409,-5.5409,-5.5409,-5.5409,-5.5409,-5.5409,-5.5409,-5.5409,-5.5409,-5.5409,-5.5409,-5.5409,-5.5409,-5.5409,-5.5409,-5.5409,-5.5409,-5.5409,-5.5409,-5.5409,-5.5409,-5.5409,-5.5409,-5.5409,-5.5409,-5.5409,-5.5409,-5.5409,-5.5409,-5.5409,-5.5409,-5.5409,-5.5409,-5.4762,-5.4373,-5.4341,-5.2948,-5.2171,-5.2139,-5.1491,-5.1199,-5.1199,-5.1199,-5.1199,-5.1199,-5.1199,-5.1199,-3.9282,-3.9013,-3.8738,-3.8738,0.0,0.0,0.0,0.0,0.0,0.0,0.0,0.0,0.0,0.0,0.0,0.0,0.0,0.0,0.0,0.0,0.0,0.0,0.0,0.0,0.0,0.0,0.0,0.0,0.0,0.0,0.0,-5.5571,-5.5183,-5.5183,-5.4503,-5.4107,-5.4124,-5.4107,-5.4089,-5.4103,-5.4575,-5.4535,-5.4074,-5.4074,-5.4074,-5.4074,-5.4074,-5.4074,-5.4074,-5.4074,-5.4074,-5.4146,-5.46,-5.5053,-5.5409,-5.5409,-5.5409,-5.5409,-5.5409,-5.5409,-5.5409,-5.5409,-5.5409,-5.5409,-5.5409,-5.5409,-5.5409,-5.5409,-5.5409,-5.5409,-5.5409,-5.5409,-5.5409,-5.5409,-5.5409,-5.5409,-5.5409,-5.5409,-5.5409,-5.5409,-5.5409,-5.5409,-5.5409,-5.5409,-5.5571,-5.6025,-5.5701,-5.5571,-5.6025,-5.5701,-5.5409,-5.5409,-5.5409,-5.5409,-5.5409,-5.5409,-5.5409,-5.5409,-5.5183,-5.4826,-5.4405,-5.3855,-5.3142,-5.2203,-5.1944,-5.162,-5.1199,-5.1199,-5.1199,-5.1199,-5.1199,-5.1199,-3.8903,-3.8711,-3.8581,0.0,0.0,0.0,0.0,0.0,0.0,0.0,0.0,0.0,0.0,0.0,0.0,0.0,0.0,0.0,0.0,0.0,0.0,0.0,0.0,0.0,0.0,0.0,0.0,0.0,0.0,0.0,0.0,-5.4308,-5.4049,-5.4049,-5.3556,-5.3291,-5.3276,-5.3291,-5.3182,-5.2974,-5.3441,-5.3563,-5.3298,-5.3298,-5.3298,-5.3298,-5.3298,-5.3298,-5.3298,-5.3298,-5.3298,-5.333,-5.3855,-5.4503,-5.5086,-5.5086,-5.5215,-5.5409,-5.5409,-5.5409,-5.5409,-5.5409,-5.5409,-5.5409,-5.5409,-5.5409,-5.5409,-5.5409,-5.5409,-5.5409,-5.5409,-5.5409,-5.5409,-5.5409,-5.5409,-5.5409,-5.5409,-5.5409,-5.5409,-5.5409,-5.5409,-5.5409,-5.5409,-5.5604,-5.5928,-5.6413,-5.6089,-5.5928,-5.6446,-5.5863,-5.5409,-5.5409,-5.5409,-5.5409,-5.5409,-5.5409,-5.5409,-5.5409,-5.5409,-5.5215,-5.4729,-5.4308,-5.3596,-5.256,-5.2106,-5.1653,-5.1199,-5.1199,-5.1199,-5.1199,-5.1199,-5.1199,-3.8604,-3.852,0.0,0.0,0.0,0.0,0.0,0.0,0.0,0.0,0.0,0.0,0.0,0.0,0.0,0.0,0.0,0.0,0.0,0.0,0.0,0.0,0.0,0.0,0.0,0.0,0.0,0.0,0.0,0.0,0.0,-5.3265,-5.3265,-5.3265,-5.3265,-5.3265,-5.3265,-5.3265,-5.2916,-5.2171,-5.2171,-5.256,-5.3265,-5.3265,-5.3265,-5.3265,-5.3265,-5.3265,-5.3265,-5.3265,-5.3265,-5.3265,-5.3265,-5.3758,-5.4405,-5.4405,-5.4826,-5.5409,-5.5409,-5.5409,-5.5409,-5.5409,-5.5409,-5.5409,-5.5409,-5.5409,-5.5409,-5.5409,-5.5409,-5.5409,-5.5409,-5.5409,-5.5409,-5.5409,-5.5409,-5.5409,-5.5409,-5.5409,-5.5409,-5.5409,-5.5409,-5.5409,-5.5409,-5.6025,-5.6478,-5.651,-5.6478,-5.6478,-5.6478,-5.5863,-5.5409,-5.5409,-5.5409,-5.5409,-5.5409,-5.5409,-5.5409,-5.5409,-5.5409,-5.5409,-5.5409,-5.4042,-5.3298,-5.3298,-5.1944,-5.1199,-5.1199,-5.1237,-5.1237,-5.1199,-5.1199,-5.1199,-3.8492,-3.8792,0.0,0.0,0.0,0.0,0.0,0.0,0.0,0.0,0.0,0.0,0.0,0.0,0.0,0.0,0.0,0.0,0.0,0.0,0.0,0.0,0.0,0.0,0.0,0.0,0.0,0.0,0.0,0.0,0.0,-5.2819,-5.2527,-5.2527,-5.2074,-5.1815,-5.1815,-5.1815,-5.1718,-5.1491,-5.1491,-5.1588,-5.1815,-5.1815,-5.1815,-5.1815,-5.1815,-5.1815,-5.1815,-5.1815,-5.2106,-5.2527,-5.2527,-5.2981,-5.3661,-5.3661,-5.3718,-5.3912,-5.3912,-5.3912,-5.3912,-5.3912,-5.4276,-5.4697,-5.4697,-5.5053,-5.5409,-5.5409,-5.5409,-5.5409,-5.5409,-5.5409,-5.5409,-5.5409,-5.5409,-5.5409,-5.5409,-5.5409,-5.5409,-5.5409,-5.5409,-5.5409,-5.5409,-5.5604,-5.5895,-5.6413,-5.6057,-5.5733,-5.5733,-5.5539,-5.5409,-5.5409,-5.5409,-5.5409,-5.5409,-5.5409,-5.5409,-5.5409,-5.5409,-5.5409,-5.5409,-5.5021,-5.4341,-5.3298,-5.3402,-5.2689,-5.1199,-5.1653,-5.1653,-5.1199,-5.1199,-5.1199,-3.8436,0.0,0.0,0.0,0.0,0.0,0.0,0.0,0.0,0.0,0.0,0.0,0.0,0.0,0.0,0.0,0.0,0.0,0.0,0.0,0.0,0.0,0.0,0.0,0.0,0.0,0.0,0.0,0.0,0.0,0.0,-5.2041,-5.1782,-5.1782,-5.1394,-5.1199,-5.1199,-5.1199,-5.1199,-5.1199,-5.1199,-5.1199,-5.1199,-5.1199,-5.1199,-5.1199,-5.1199,-5.1199,-5.1199,-5.1199,-5.1426,-5.1782,-5.1782,-5.2236,-5.2883,-5.2883,-5.3078,-5.3298,-5.3298,-5.3298,-5.3298,-5.3298,-5.3628,-5.3984,-5.3984,-5.447,-5.5021,-5.5021,-5.5215,-5.5409,-5.5409,-5.5409,-5.5409,-5.5409,-5.5409,-5.5409,-5.5409,-5.5409,-5.5409,-5.5409,-5.5409,-5.5409,-5.5409,-5.5636,-5.5992,-5.6413,-5.6122,-5.5733,-5.5442,-5.5409,-5.5409,-5.5409,-5.5409,-5.5409,-5.5409,-5.5328,-5.5246,-5.5246,-5.5122,-5.4998,-5.4998,-5.4987,-5.46,-5.3758,-5.3808,-5.3219,-5.1894,-5.1869,-5.1701,-5.1321,-5.0993,-5.0864,0.0,0.0,0.0,0.0,0.0,0.0,0.0,0.0,0.0,0.0,0.0,0.0,0.0,0.0,0.0,0.0,0.0,0.0,0.0,0.0,0.0,0.0,0.0,0.0,0.0,0.0,0.0,0.0,0.0,0.0,0.0,-5.1199,-5.1199,-5.1199,-5.1199,-5.1199,-5.1199,-5.1199,-5.1199,-5.1199,-5.1199,-5.1199,-5.1199,-5.1199,-5.1199,-5.1199,-5.1199,-5.1199,-5.1199,-5.1199,-5.1199,-5.1199,-5.1199,-5.1556,-5.2106,-5.2106,-5.2527,-5.3142,-5.3142,-5.3142,-5.3142,-5.3142,-5.3175,-5.3168,-5.3168,-5.3725,-5.4308,-5.4373,-5.4859,-5.5345,-5.5409,-5.5409,-5.5409,-5.5409,-5.5409,-5.5409,-5.5409,-5.5409,-5.5409,-5.5409,-5.5409,-5.5409,-5.5409,-5.596,-5.6413,-5.6413,-5.6413,-5.6154,-5.5507,-5.5409,-5.5409,-5.5409,-5.5409,-5.5369,-5.5369,-5.5196,-5.5072,-5.5031,-5.4581,-5.4327,-5.4295,-5.4379,-5.435,-5.4285,-5.3472,-5.3005,-5.2773,-5.1797,-5.1327,-5.1359,-5.05,-5.0253,0.0,0.0,0.0,0.0,0.0,0.0,0.0,0.0,0.0,0.0,0.0,0.0,0.0,0.0,0.0,0.0,0.0,0.0,0.0,0.0,0.0,0.0,0.0,0.0,0.0,0.0,0.0,0.0,0.0,0.0,-5.1199,-5.1199,-5.1199,-5.1199,-5.1199,-5.1199,-5.1199,-5.1199,-5.1199,0.0,-5.1199,-5.1199,-5.1199,-5.1199,-5.1199,-5.1199,-5.1199,-5.1199,-5.1199,-5.1199,-5.1199,-5.1199,-5.1199,-5.1264,-5.1394,-5.1394,-5.1491,-5.1653,-5.1653,-5.1653,-5.1653,-5.1653,-5.2009,-5.243,-5.243,-5.2948,-5.3661,-5.4244,-5.4503,-5.4762,-5.528,-5.5409,-5.5409,-5.5409,-5.5409,-5.5409,-5.5409,-5.5409,-5.5409,-5.5409,-5.5409,-5.5409,-5.5409,-5.5539,-5.5636,-5.5636,-5.5636,-5.5604,-5.5442,-5.5409,-5.5409,-5.5409,-5.5409,-5.5328,-5.5196,-5.4989,-5.4739,-5.4359,-5.3997,-5.3782,-5.3533,-5.3913,-5.3925,-5.3311,-5.365,-5.2964,-5.1123,-5.1452,-5.0951,-4.9689,-4.9493,-4.947,0.0,0.0,0.0,0.0,0.0,0.0,0.0,0.0,0.0,0.0,0.0,0.0,0.0,0.0,0.0,0.0,0.0,0.0,0.0,0.0,0.0,0.0,0.0,0.0,0.0,0.0,0.0,0.0,0.0,-5.1199,-5.1199,-5.1199,-5.1199,-5.1199,-5.0843,-5.0843,-5.1199,-5.0843,-5.0843,-5.1199,-5.1199,-5.1199,-5.1199,-5.1199,-5.1199,-5.1199,-5.1199,-5.1199,-5.1199,-5.1199,-5.1199,-5.1199,-5.1199,-5.1199,-5.1199,-5.1199,-5.1199,-5.1199,-5.1199,-5.1199,-5.1199,-5.1199,-5.1426,-5.1718,-5.1718,-5.2203,-5.2851,-5.324,-5.3855,-5.447,-5.4826,-5.5183,-5.5409,-5.5409,-5.5409,-5.5409,-5.5409,-5.5409,-5.5409,-5.5409,-5.5409,-5.5409,-5.5409,-5.5409,-5.5409,-5.5409,-5.5409,-5.5409,-5.5409,-5.5409,-5.5369,-5.5278,-5.5278,-5.5122,-5.479,-5.4454,-5.4071,-5.3596,-5.3126,-5.2726,-5.2502,-5.2637,-5.2838,-5.3118,-5.3107,-5.2434,-5.1118,-5.0638,-4.9943,-4.9108,-4.8644,-4.849,0.0,0.0,0.0,0.0,0.0,0.0,0.0,0.0,0.0,0.0,0.0,0.0,0.0,0.0,0.0,0.0,0.0,0.0,0.0,0.0,0.0,0.0,0.0,0.0,0.0,0.0,0.0,0.0,0.0,-5.0811,-5.0811,-5.0811,-5.0811,-5.0811,-5.0228,-5.0196,-5.0811,-5.0228,-5.0228,-5.0811,-5.0811,-5.0876,-5.1005,-5.1005,-5.107,-5.1199,-5.1199,-5.1199,-5.1199,-5.1199,-5.1199,-5.1199,-5.1199,-5.1199,-5.1199,-5.1199,-5.1199,-5.1199,-5.1199,-5.1199,-5.1199,-5.1199,-5.1199,-5.1199,-5.1199,-5.1588,-5.2041,-5.2171,-5.3175,-5.4244,-5.4373,-5.4924,-5.5409,-5.5409,-5.5409,-5.5409,-5.5409,-5.5409,-5.5409,-5.5409,-5.5369,-5.5328,-5.5246,-5.5246,-5.5205,-5.5164,-5.5164,-5.5164,-5.5164,-5.5164,-5.5122,-5.4948,-5.4906,-5.4665,-5.4253,-5.377,-5.3246,-5.2802,-5.2124,-5.1618,-5.1416,-5.1182,-5.1618,-5.2785,-5.2184,-5.1638,-5.1203,-4.9708,-4.8853,-4.8568,-4.7779,-4.7508,0.0,0.0,0.0,0.0,0.0,0.0,0.0,0.0,0.0,0.0,0.0,0.0,0.0,0.0,0.0,0.0,0.0,0.0,0.0,0.0,0.0,0.0,0.0,0.0,0.0,0.0,0.0,0.0,-4.9677,-4.9285,-4.9285,-4.9285,-4.9285,-4.9285,-4.9188,-4.9188,-4.9285,-4.9224,-4.9224,-4.9285,-4.9285,-4.9645,-5.026,-5.026,-5.0584,-5.1199,-5.1199,-5.1199,-5.1199,-5.1199,-5.1199,-5.1199,-5.1199,-5.1199,-5.1199,-5.1199,-5.1199,-5.1199,-5.1199,-5.1199,-5.1199,-5.1199,-5.1199,-5.1199,-5.1199,-5.1232,-5.1426,-5.2041,-5.2819,-5.3556,-5.4244,-5.4924,-5.5409,-5.5409,-5.5409,-5.5409,-5.5409,-5.5409,-5.5409,-5.5409,-5.5278,-5.5031,-5.4623,-5.4507,-5.4497,-5.4285,-5.4274,-5.4274,-5.4274,-5.4274,-5.4274,-5.4231,-5.4028,-5.3782,-5.3552,-5.2891,-5.2306,-5.1803,-5.1246,-5.087,-5.0644,-5.0596,-5.0662,-5.0852,-5.1186,-5.0649,-4.9253,-4.9059,-4.8224,-4.6948,-4.6815,-4.6756,0.0,0.0,0.0,0.0,0.0,0.0,0.0,0.0,0.0,0.0,0.0,0.0,0.0,0.0,0.0,0.0,0.0,0.0,0.0,0.0,0.0,0.0,0.0,0.0,0.0,0.0,0.0,0.0,-4.9155,-4.8994,-4.8994,-4.8994,-4.9001,-4.9008,-4.8644,-4.8644,-4.9008,-4.8644,-4.8605,-4.8994,-4.8994,-4.9155,-4.9483,-4.9483,-5.0131,-5.1199,-5.1199,-5.1199,-5.1199,-5.1199,-5.1199,-5.1199,-5.1199,-5.1199,-5.1199,-5.1199,-5.1199,-5.1199,-5.1199,-5.1199,-5.1199,-5.1199,-5.1199,-5.1199,-5.1086,-5.1048,-5.1037,-5.1064,-5.1635,-5.2236,-5.2437,-5.33,-5.4131,-5.4131,-5.4377,-5.4665,-5.4665,-5.504,-5.5369,-5.5246,-5.5072,-5.4781,-5.4285,-5.4114,-5.3911,-5.3695,-5.3652,-5.3652,-5.3652,-5.3652,-5.364,-5.3509,-5.3258,-5.2918,-5.2622,-5.2002,-5.1479,-5.0994,-5.0585,-5.0298,-5.0038,-5.0038,-5.0038,-5.0038,-5.0183,-4.9851,-4.9027,-4.8273,-4.7519,-4.6706,-4.6355,-4.6209,0.0,0.0,0.0,0.0,0.0,0.0,0.0,0.0,0.0,0.0,0.0,0.0,0.0,0.0,0.0,0.0,0.0,0.0,0.0,0.0,0.0,0.0,0.0,0.0,0.0,0.0,0.0,0.0,-4.8541,-4.8479,-4.8479,-4.8479,-4.845,-4.8459,-4.7964,-4.7931,-4.8462,-4.7964,-4.7961,-4.8479,-4.8479,-4.8576,-4.8771,-4.8771,-4.9451,-5.0617,-5.0617,-5.0746,-5.0908,-5.087,-5.093,-5.1124,-5.0978,-5.094,-5.094,-5.0902,-5.0864,-5.0864,-5.0864,-5.0864,-5.0864,-5.0864,-5.0864,-5.0826,-5.0705,-5.0628,-5.0512,-5.0136,-5.0525,-5.0983,-5.0862,-5.1736,-5.2713,-5.2871,-5.3312,-5.3753,-5.4071,-5.4581,-5.4998,-5.4707,-5.4539,-5.4242,-5.364,-5.3346,-5.3095,-5.2785,-5.274,-5.274,-5.274,-5.274,-5.2726,-5.2577,-5.229,-5.1972,-5.1665,-5.1169,-5.0775,-5.0453,-5.0135,-4.9941,-4.9717,-4.9717,-4.9717,-4.9717,-4.9589,-4.9362,-4.8997,-4.8062,-4.7369,-4.7056,-4.6592,-4.6359,0.0,0.0,0.0,0.0,0.0,0.0,0.0,0.0,0.0,0.0,0.0,0.0,0.0,0.0,0.0,0.0,0.0,0.0,0.0,0.0,0.0,0.0,0.0,0.0,0.0,0.0,0.0,0.0,-4.741,-4.6989,-4.6989,-4.6989,-4.7024,-4.7024,-4.6992,-4.6992,-4.7024,-4.6957,-4.6957,-4.6989,-4.6989,-4.7378,-4.8058,-4.8058,-4.8447,-4.9091,-4.9091,-4.9515,-5.0126,-4.9946,-5.0252,-5.0858,-5.0409,-5.0221,-5.0253,-5.0018,-4.9971,-4.9971,-4.9971,-4.9971,-4.9971,-4.9971,-4.9971,-4.9971,-4.9971,-4.9812,-4.9693,-4.9653,-5.0003,-5.034,-5.034,-5.0913,-5.1632,-5.2278,-5.2465,-5.277,-5.3859,-5.4146,-5.406,-5.3552,-5.3465,-5.3157,-5.217,-5.1987,-5.1849,-5.1386,-5.1293,-5.1293,-5.1293,-5.1293,-5.1323,-5.1293,-5.1058,-5.0887,-5.084,-5.0442,-5.0135,-5.0135,-4.9892,-4.9717,-4.9717,-4.9717,-4.9717,-4.9717,-4.9688,-4.9369,-4.8711,-4.8653,-4.8304,-4.7724,-4.7695,-4.7695,0.0,0.0,0.0,0.0,0.0,0.0,0.0,0.0,0.0,0.0,0.0,0.0,0.0,0.0,0.0,0.0,0.0,0.0,0.0,0.0,0.0,0.0,0.0,0.0,0.0,0.0,0.0,0.0,0.0,-4.6666,-4.6212,-4.618,-4.5986,-4.5565,-4.5953,-4.6407,-4.6892,-4.6892,-4.6892,-4.6892,-4.6892,-4.7022,-4.7281,-4.7176,-4.7235,-4.7461,-4.7319,-4.8067,-4.9414,-4.9683,-4.9888,-4.9987,-5.0016,-4.9939,-4.9781,-4.951,-4.943,-4.943,-4.943,-4.943,-4.943,-4.943,-4.943,-4.943,-4.9309,-4.9107,-4.8903,-4.8573,-4.855,-4.8523,-4.8426,-4.8913,-4.9674,-5.0756,-5.0999,-5.1226,-5.2063,-5.2949,-5.3477,-5.3201,-5.2891,-5.2487,-5.1803,-5.1433,-5.1105,-5.0805,-5.0757,-5.0757,-5.0757,-5.0757,-5.0757,-5.0757,-5.0519,-5.0346,-5.0346,-5.0009,-4.9815,-4.9815,-4.9717,-4.9717,-4.9717,-4.9717,-4.9717,-4.9717,-4.9717,-4.9553,-4.932,-4.8914,-4.8624,-4.8391,-4.7956,-4.7782,0.0,0.0,0.0,0.0,0.0,0.0,0.0,0.0,0.0,0.0,0.0,0.0,0.0,0.0,0.0,0.0,0.0,0.0,0.0,0.0,0.0,0.0,0.0,0.0,0.0,0.0,0.0,0.0,0.0,0.0,-4.55,-4.5467,-4.5241,-4.4787,-4.5241,-4.5694,-4.618,-4.618,-4.6309,-4.6468,-4.6468,-4.6562,-4.6684,-4.6509,-4.6407,-4.6439,-4.6227,-4.7005,-4.8522,-4.8941,-4.9164,-4.9183,-4.933,-4.9219,-4.9015,-4.8656,-4.8573,-4.8573,-4.8573,-4.8573,-4.8573,-4.8573,-4.8573,-4.8532,-4.8407,-4.8198,-4.7946,-4.7649,-4.7422,-4.7206,-4.7106,-4.7539,-4.8298,-4.9117,-4.9654,-5.01,-5.0547,-5.1667,-5.2547,-5.2321,-5.2002,-5.1665,-5.1152,-5.0775,-5.0489,-5.0279,-5.0231,-5.0231,-5.0231,-5.0231,-5.0231,-5.0231,-5.0086,-4.999,-4.999,-4.9766,-4.9717,-4.9717,-4.9717,-4.9717,-4.9717,-4.9717,-4.9717,-4.9717,-4.9717,-4.9717,-4.9717,-4.9233,-4.9059,-4.903,-4.8624,-4.8188,0.0,0.0,0.0,0.0,0.0,0.0,0.0,0.0,0.0,0.0,0.0,0.0,0.0,0.0,0.0,0.0,0.0,0.0,0.0,0.0,0.0,0.0,0.0,0.0,0.0,0.0,0.0,0.0,-4.4787,-4.4787,-4.4755,-4.4723,-4.4755,-4.4755,-4.4755,-4.4755,-4.4787,-4.4787,-4.5044,-4.5552,-4.5584,-4.5835,-4.623,-4.612,-4.6048,-4.6048,-4.5832,-4.6389,-4.7349,-4.7642,-4.804,-4.8427,-4.8296,-4.8072,-4.7819,-4.7409,-4.7266,-4.7266,-4.7266,-4.7266,-4.7266,-4.7266,-4.7266,-4.7266,-4.7266,-4.7062,-4.6887,-4.6887,-4.6712,-4.658,-4.658,-4.7051,-4.7523,-4.7552,-4.8525,-4.9439,-4.9469,-5.0377,-5.1058,-5.084,-5.0745,-5.0632,-5.0183,-5.0086,-4.999,-4.9717,-4.9717,-4.9717,-4.9717,-4.9717,-4.9717,-4.9717,-4.9717,-4.9717,-4.9717,-4.9717,-4.9717,-4.9717,-4.9717,-4.9717,-4.9717,-4.9717,-4.9717,-4.9717,-4.9717,-4.9717,-4.9717,-4.9717,-4.9717,-4.9717,-4.9717,-4.9001,-3.8408,0.0,0.0,0.0,0.0,0.0,0.0,0.0,0.0,0.0,0.0,0.0,0.0,0.0,0.0,0.0,0.0,0.0,0.0,0.0,0.0,0.0,0.0,0.0,0.0,0.0,0.0,0.0,-4.4787,-4.4561,-4.4043,-4.3428,-4.3235,-4.3619,-4.3651,-4.3876,-4.4455,-4.4455,-4.4451,-4.4473,-4.495,-4.5094,-4.4934,-4.529,-4.5326,-4.5147,-4.5024,-4.508,-4.5441,-4.6316,-4.6819,-4.704,-4.7056,-4.7129,-4.7163,-4.6887,-4.6785,-4.6785,-4.6785,-4.6785,-4.6785,-4.6785,-4.6785,-4.6785,-4.6785,-4.6624,-4.6403,-4.6403,-4.6269,-4.612,-4.612,-4.6236,-4.6499,-4.692,-4.727,-4.7794,-4.8727,-4.9143,-4.9597,-5.043,-5.0423,-5.0279,-5.0135,-4.9941,-4.9766,-4.9717,-4.9717,-4.9717,-4.9717,-4.9717,-4.9717,-4.9717,-4.9717,-4.9717,-4.9717,-4.9717,-4.9717,-4.9717,-4.9717,-4.9717,-4.9717,-4.9717,-4.9717,-4.9717,-4.9717,-4.9717,-4.9717,-4.9717,-4.9717,-4.9717,-4.9717,-4.9233,0.0,0.0,0.0,0.0,0.0,0.0,-3.8408,-3.8732,0.0,0.0,0.0,0.0,0.0,0.0,0.0,0.0,0.0,0.0,0.0,0.0,0.0,0.0,0.0,0.0,0.0,-4.3881,-4.3848,-4.3784,-4.3784,-4.3557,-4.3009,-4.2366,-4.2172,-4.2389,-4.252,-4.2711,-4.3057,-4.3124,-4.3184,-4.3197,-4.3608,-4.3867,-4.3961,-4.418,-4.4295,-4.4282,-4.412,-4.4073,-4.4104,-4.4625,-4.5358,-4.6113,-4.616,-4.638,-4.658,-4.6358,-4.6343,-4.6343,-4.6343,-4.6343,-4.6343,-4.6343,-4.6343,-4.6343,-4.6343,-4.618,-4.609,-4.609,-4.6001,-4.5895,-4.5895,-4.5895,-4.5982,-4.6359,-4.665,-4.6981,-4.7735,-4.8159,-4.869,-4.9911,-5.0038,-4.9941,-4.9941,-4.9766,-4.9717,-4.9717,-4.9717,-4.9717,-4.9717,-4.9717,-4.9717,-4.9717,-4.9717,-4.9717,-4.9717,-4.9717,-4.9717,-4.9717,-4.9717,-4.9717,-4.9717,-4.9717,-4.9717,-4.9717,-4.9717,-4.9717,-4.9717,-4.9717,-4.9717,-4.9717,-4.9717,-4.932,0.0,0.0,0.0,0.0,0.0,0.0,-3.8351,-3.8379,-3.8379,0.0,0.0,0.0,0.0,0.0,0.0,0.0,0.0,0.0,0.0,0.0,0.0,0.0,0.0,0.0,-4.2426,-4.2362,-4.2267,-4.2237,-4.2205,-4.2045,-4.1821,-4.1625,-4.139,-4.1187,-4.1357,-4.139,-4.1189,-4.139,-4.1604,-4.1856,-4.1949,-4.2345,-4.3053,-4.2955,-4.3119,-4.3488,-4.3329,-4.321,-4.321,-4.305,-4.3886,-4.5398,-4.5437,-4.5698,-4.6018,-4.5956,-4.5895,-4.5895,-4.5895,-4.5895,-4.5895,-4.5895,-4.5895,-4.5895,-4.5895,-4.5895,-4.5895,-4.5895,-4.5895,-4.5895,-4.5895,-4.5895,-4.5895,-4.5895,-4.633,-4.6691,-4.6778,-4.7288,-4.8043,-4.9233,-4.9524,-4.9582,-4.9717,-4.9717,-4.9717,-4.9717,-4.9717,-4.9717,-4.9717,-4.9717,-4.9717,-4.9717,-4.9717,-4.9717,-4.9717,-4.9717,-4.9717,-4.9717,-4.9717,-4.9717,-4.9717,-4.9717,-4.9717,-4.9717,-4.9717,-4.9717,-4.9717,-4.9717,-4.9717,-4.9717,-4.9717,-4.9378,0.0,0.0,0.0,0.0,0.0,0.0,-3.8033,-3.8123,-3.818,0.0,0.0,0.0,0.0,0.0,0.0,0.0,0.0,0.0,0.0,0.0,0.0,0.0,0.0,0.0,-4.1119,-4.0797,-4.0702,-4.0928,-4.0801,-4.0865,-4.1241,-4.1064,-4.0817,-4.0436,-4.0612,-4.0612,-4.0409,-4.0612,-4.057,-4.0309,-4.0929,-4.1304,-4.1488,-4.2016,-4.2495,-4.289,-4.285,-4.2809,-4.2809,-4.2596,-4.3119,-4.4022,-4.4405,-4.4792,-4.5229,-4.5737,-4.5895,-4.5895,-4.5895,-4.5895,-4.5895,-4.5895,-4.5895,-4.5895,-4.5895,-4.5895,-4.5895,-4.5895,-4.5895,-4.5895,-4.5895,-4.5895,-4.5895,-4.5895,-4.5982,-4.6214,-4.6691,-4.6865,-4.723,-4.8014,-4.8566,-4.9059,-4.9582,-4.9717,-4.9717,-4.9717,-4.9717,-4.9717,-4.9717,-4.9717,-4.9717,-4.9717,-4.9717,-4.9717,-4.9717,-4.9717,-4.9717,-4.9717,-4.9717,-4.9717,-4.9717,-4.9717,-4.9717,-4.9717,-4.9717,-4.9717,-4.9717,-4.9717,-4.9717,-4.9717,-4.9717,-4.9611,0.0,0.0,0.0,-3.7449,0.0,0.0,0.0,-3.7685,-3.7626,0.0,0.0,0.0,0.0,0.0,0.0,0.0,0.0,0.0,0.0,0.0,0.0,0.0,0.0,0.0,-3.9945,-3.9724,-3.9629,-3.9721,-3.9371,-3.9422,-4.0013,-3.9791,-3.9622,-3.9637,-3.9869,-3.9844,-3.9666,-3.9844,-3.9809,-3.9487,-3.9854,-4.0107,-4.0271,-4.0949,-4.1479,-4.1895,-4.2094,-4.2199,-4.2199,-4.198,-4.2154,-4.2586,-4.3351,-4.4167,-4.4937,-4.5256,-4.5605,-4.5895,-4.5895,-4.5895,-4.5895,-4.5895,-4.5895,-4.5895,-4.5895,-4.5895,-4.5895,-4.5895,-4.5776,-4.5685,-4.5685,-4.5595,-4.5504,-4.5504,-4.5504,-4.559,-4.5907,-4.5965,-4.6166,-4.68,-4.7203,-4.7817,-4.8982,-4.9465,-4.9717,-4.9717,-4.9717,-4.9717,-4.9717,-4.9717,-4.9717,-4.9717,-4.9717,-4.9717,-4.9717,-4.9717,-4.9717,-4.9717,-4.9717,-4.9717,-4.9717,-4.9717,-4.9717,-4.9717,-4.9717,-4.9717,-4.9717,-4.9717,-4.9717,-4.9717,-4.9349,-4.9378,0.0,0.0,0.0,0.0,0.0,-3.6997,0.0,0.0,0.0,0.0,0.0,0.0,0.0,0.0,0.0,0.0,0.0,0.0,0.0,0.0,0.0,0.0,0.0,0.0,0.0,-3.8616,-3.8552,-3.8393,-3.791,-3.7906,-3.8642,-3.8388,-3.8399,-3.8782,-3.9119,-3.9162,-3.8907,-3.9126,-3.9126,-3.887,-3.887,-3.9039,-3.9419,-3.9906,-4.0469,-4.1134,-4.1381,-4.1587,-4.1702,-4.148,-4.1396,-4.1495,-4.2478,-4.3603,-4.4661,-4.4806,-4.527,-4.5895,-4.5895,-4.5895,-4.5895,-4.5895,-4.5895,-4.5895,-4.5895,-4.5895,-4.5895,-4.5895,-4.5685,-4.5504,-4.5504,-4.5321,-4.511,-4.511,-4.511,-4.511,-4.511,-4.511,-4.5281,-4.5824,-4.6024,-4.6594,-4.8124,-4.8943,-4.9348,-4.9348,-4.9513,-4.962,-4.962,-4.9669,-4.9717,-4.9717,-4.9717,-4.9717,-4.9717,-4.9717,-4.9717,-4.9717,-4.9717,-4.9717,-4.9717,-4.9717,-4.9717,-4.9717,-4.9717,-4.9717,-4.9717,-4.9717,-4.9611,-4.9465,-4.8972,-4.8943,0.0,0.0,0.0,0.0,-3.5817,0.0,0.0,0.0,0.0,0.0,0.0,0.0,0.0,0.0,0.0,0.0,0.0,0.0,0.0,0.0,0.0,0.0,0.0,0.0,0.0,-3.6869,-3.6839,-3.6942,-3.6459,-3.6509,-3.7375,-3.7565,-3.7738,-3.777,-3.8495,-3.8686,-3.8315,-3.8501,-3.8389,-3.8052,-3.8052,-3.8332,-3.8957,-3.9015,-3.9787,-4.1105,-4.0949,-4.1213,-4.1702,-4.148,-4.1396,-4.1453,-4.2138,-4.2926,-4.3834,-4.444,-4.5136,-4.5895,-4.5895,-4.5895,-4.5895,-4.5895,-4.5895,-4.5895,-4.5895,-4.5895,-4.5895,-4.5895,-4.5685,-4.5504,-4.5504,-4.5321,-4.511,-4.511,-4.511,-4.511,-4.511,-4.511,-4.5138,-4.5224,-4.5709,-4.6385,-4.7167,-4.7797,-4.8178,-4.8178,-4.8833,-4.9355,-4.9355,-4.9522,-4.9717,-4.9717,-4.9717,-4.9717,-4.9717,-4.9717,-4.9717,-4.9717,-4.9717,-4.9717,-4.9717,-4.9717,-4.9717,-4.9717,-4.9717,-4.9717,-4.9717,-4.9717,-4.9378,-4.8827,-4.8769,-4.8449,0.0,0.0,0.0,0.0,0.0,0.0,-3.5302,0.0,-3.5106,0.0,0.0,0.0,0.0,0.0,0.0,0.0,0.0,0.0,0.0,0.0,0.0,0.0,0.0,0.0,0.0,0.0,0.0,0.0,-3.5034,-3.5204,-3.5932,-3.6295,-3.6662,-3.7082,-3.7734,-3.8014,-3.7825,-3.7967,-3.7863,-3.7711,-3.7711,-3.7854,-3.814,-3.8552,-3.9251,-4.0193,-4.0351,-4.0754,-4.1254,-4.1071,-4.1015,-4.1043,-4.1269,-4.1967,-4.2941,-4.36,-4.4276,-4.4969,-4.5314,-4.5458,-4.5458,-4.5458,-4.5458,-4.5458,-4.5458,-4.5458,-4.5458,-4.5458,-4.5276,-4.5092,-4.5092,-4.4908,-4.4676,-4.4676,-4.4676,-4.4676,-4.4676,-4.4676,-4.4676,-4.4676,-4.4903,-4.5204,-4.5487,-4.6624,-4.7472,-4.7472,-4.821,-4.8758,-4.8758,-4.9319,-4.9717,-4.9717,-4.9717,-4.9717,-4.9717,-4.9717,-4.9717,-4.9717,-4.9717,-4.9717,-4.9717,-4.9717,-4.9717,-4.9717,-4.9717,-4.9717,-4.9717,-4.9717,-4.9349,-4.8663,-4.8333,-4.8217,-3.423,0.0,0.0,0.0,0.0,0.0,0.0,0.0,0.0,0.0,0.0,0.0,0.0,0.0,0.0,0.0,0.0,0.0,0.0,0.0,0.0,0.0,0.0,0.0,0.0,0.0,0.0,-3.4283,-3.4081,-3.422,-3.4761,-3.5153,-3.5711,-3.6396,-3.7025,-3.7415,-3.751,-3.751,-3.751,-3.7433,-3.7433,-3.7471,-3.751,-3.8004,-3.8699,-3.951,-3.9751,-4.0292,-4.1001,-4.0773,-4.0688,-4.0688,-4.0688,-4.1184,-4.1938,-4.268,-4.3465,-4.4253,-4.471,-4.4967,-4.511,-4.511,-4.511,-4.511,-4.511,-4.511,-4.511,-4.511,-4.4954,-4.4797,-4.4797,-4.4612,-4.4425,-4.4425,-4.4425,-4.4425,-4.4425,-4.4425,-4.4425,-4.4425,-4.4425,-4.4425,-4.4425,-4.5629,-4.6576,-4.6576,-4.7357,-4.796,-4.8161,-4.8807,-4.93,-4.9473,-4.9473,-4.9522,-4.9571,-4.96,-4.962,-4.9669,-4.9717,-4.9717,-4.9717,-4.9717,-4.9717,-4.9717,-4.9717,-4.9717,-4.9717,-4.9717,-4.9436,-4.8972,-4.8159,-4.7927,0.0,0.0,0.0,-3.357,0.0,0.0,0.0,0.0,-3.364,0.0,0.0,0.0,0.0,0.0,0.0,0.0,0.0,0.0,0.0,0.0,0.0,0.0,0.0,0.0,0.0,0.0,0.0,-3.3917,-3.3716,-3.3709,-3.3927,-3.4321,-3.4916,-3.5711,-3.6368,-3.6921,-3.7289,-3.7289,-3.7211,-3.7017,-3.7017,-3.7095,-3.7289,-3.7317,-3.8115,-3.9482,-3.9337,-3.9896,-4.1001,-4.0773,-4.0688,-4.0688,-4.0688,-4.0716,-4.0843,-4.1722,-4.2962,-4.4195,-4.4224,-4.4624,-4.511,-4.511,-4.511,-4.511,-4.511,-4.511,-4.511,-4.511,-4.4954,-4.4797,-4.4797,-4.4612,-4.4425,-4.4425,-4.4425,-4.4425,-4.4425,-4.4425,-4.4425,-4.4425,-4.4425,-4.4425,-4.4425,-4.4931,-4.5352,-4.5352,-4.6175,-4.6991,-4.7538,-4.7897,-4.8273,-4.8873,-4.8959,-4.9058,-4.9305,-4.9305,-4.9404,-4.9669,-4.9717,-4.9717,-4.9717,-4.9717,-4.9717,-4.9717,-4.9717,-4.9717,-4.9717,-4.9717,-4.9717,-4.9611,-4.8362,-4.7462,0.0,0.0,-3.3326,-3.3396,0.0,0.0,0.0,0.0,0.0,0.0,0.0,0.0,0.0,0.0,0.0,0.0,0.0,0.0,0.0,0.0,0.0,0.0,0.0,0.0,0.0,0.0,0.0,-3.3501,-3.3466,-3.3431,-3.3494,-3.3987,-3.4643,-3.5345,-3.5967,-3.6551,-3.7095,-3.7095,-3.7056,-3.6978,-3.6978,-3.7017,-3.7095,-3.7095,-3.7585,-3.8484,-3.8855,-3.9463,-4.0224,-4.0562,-4.0688,-4.0688,-4.0688,-4.0688,-4.0772,-4.1477,-4.2326,-4.3262,-4.4037,-4.446,-4.463,-4.463,-4.463,-4.463,-4.463,-4.463,-4.463,-4.463,-4.4583,-4.4565,-4.4565,-4.4472,-4.4425,-4.4425,-4.4425,-4.4425,-4.4425,-4.4425,-4.4425,-4.4425,-4.4425,-4.4425,-4.4425,-4.4593,-4.4706,-4.4706,-4.5477,-4.6243,-4.6914,-4.7612,-4.8195,-4.8852,-4.8909,-4.8959,-4.9058,-4.9058,-4.9058,-4.9128,-4.9207,-4.9207,-4.9207,-4.9207,-4.9207,-4.9207,-4.9355,-4.9453,-4.9453,-4.962,-4.9717,-4.9688,-4.8798,-4.8072,-3.329,-3.329,0.0,-3.329,-3.329,0.0,-3.329,0.0,0.0,0.0,0.0,0.0,0.0,0.0,0.0,0.0,0.0,0.0,0.0,-3.329,0.0,0.0,0.0,0.0,0.0,0.0,-3.329,-3.329,-3.329,-3.329,0.0,0.0,-3.4197,-3.4815,-3.547,-3.6089,-3.668,-3.6866,-3.6978,-3.6978,-3.6978,-3.6978,-3.6978,-3.6978,-3.7316,-3.7934,-3.8621,-3.9268,-3.9845,-4.0435,-4.0688,-4.0688,-4.0688,-4.0688,-4.0744,-4.1137,-4.184,-4.2767,-4.3975,-4.4425,-4.4425,-4.4425,-4.4425,-4.4425,-4.4425,-4.4425,-4.4425,-4.4425,-4.4425,-4.4425,-4.4425,-4.4425,-4.4425,-4.4425,-4.4425,-4.4425,-4.4425,-4.4425,-4.4425,-4.4425,-4.4425,-4.4425,-4.4425,-4.4425,-4.4425,-4.4425,-4.4903,-4.5477,-4.6147,-4.6914,-4.7636,-4.8212,-4.8468,-4.866,-4.8731,-4.8859,-4.8909,-4.8909,-4.8909,-4.8909,-4.8909,-4.8909,-4.8909,-4.8909,-4.9058,-4.9207,-4.9305,-4.9502,-4.96,-4.9717,-4.9262,-4.8711]}]]